              Height (m), 1500.0000, 1650.0000, 1800.0000, 1950.0000, 2100.0000, 2250.0000, 2400.0000, 2550.0000, 2700.0000, 2850.0000, 3000.0000, 3150.0000, 3300.0000, 3450.0000, 3600.0000, 3750.0000, 3900.0000, 4050.0000, 4200.0000, 4350.0000, 4500.0000, 4650.0000, 4800.0000, 4950.0000, 5100.0000, 5250.0000, 5400.0000, 5550.0000, 5700.0000, 5850.0000, 6000.0000, 6150.0000, 6300.0000, 6450.0000, 6600.0000, 6750.0000, 6900.0000, 7050.0000, 7200.0000, 7350.0000, 7500.0000, 7650.0000, 7800.0000, 7950.0000, 8100.0000, 8250.0000, 8400.0000, 8550.0000, 8700.0000, 8850.0000, 9000.0000, 9150.0000, 9300.0000, 9450.0000, 9600.0000, 9750.0000, 9900.0000,10050.0000,10200.0000,10350.0000,10500.0000,10650.0000,10800.0000,10950.0000,11100.0000,
  3-NOV-1996 00:02:10.57,    2.7629,    5.1248,    6.3119,    6.0588,    4.4570,    2.6495,  999.0000,  999.0000,  999.0000,  999.0000,  999.0000,  999.0000,  999.0000,  999.0000,  999.0000,  999.0000,  999.0000,  999.0000,  999.0000,  999.0000,   27.1630,   28.3798,  999.0000,  999.0000,  999.0000,  999.0000,   35.4715,   36.4005,   37.2377,   39.2513,   41.5910,   42.5403,   41.8361,   42.1972,   43.5923,   43.5875,   43.4252,   44.2300,   43.6973,   43.8198,   44.2410,   45.1456,   46.1788,   47.4581,   48.0703,   48.3647,   50.0752,   50.5964,   48.8811,   47.1117,   47.2770,   47.8927,   48.7744,   49.2668,   49.7697,   50.1623,   50.5977,   52.0727,   51.2799,   50.5859,   49.6121,   49.1192,   49.7855,   50.3277,   50.1974,
  3-NOV-1996 00:06:46.70,    3.9139,    6.6262,    7.4044,    6.6144,  999.0000,  999.0000,  999.0000,  999.0000,  999.0000,  999.0000,  999.0000,  999.0000,  999.0000,   22.7667,   24.0380,  999.0000,  999.0000,  999.0000,   27.7146,   27.6746,   28.9587,   29.9886,   30.3132,   31.5480,   33.3437,   33.2915,   33.5682,   35.3571,   37.1968,   37.6710,   40.5142,   42.5761,   42.9591,   42.9463,   44.4617,   44.3724,   43.7881,  999.0000,   43.9170,   45.0739,   45.2563,   44.2555,   43.8700,   45.4082,   46.7442,   47.5303,   48.1458,   47.8404,   46.1540,  999.0000,   46.2887,   47.7404,   46.8872,   47.8646,   50.4025,   52.1745,   51.9352,   51.3416,   51.1632,   50.8234,   50.0296,   49.4901,   50.2531,   50.7297,   49.2756,
  3-NOV-1996 00:11:20.66,    3.5565,    4.7204,    5.1449,    5.0774,  999.0000,  999.0000,  999.0000,  999.0000,  999.0000,  999.0000,  999.0000,  999.0000,  999.0000,   21.8702,   22.7132,  999.0000,  999.0000,   27.4991,   28.3323,   28.3956,   29.6568,   30.3248,   30.7334,   30.6033,   32.1552,   33.7730,  999.0000,   36.3264,   37.3457,   36.8122,   38.9612,   39.8082,   41.3651,   41.5480,   42.3845,   42.9738,   42.7514,   43.0195,   44.3063,   44.6386,   43.5286,   43.8844,   45.4398,   45.2804,   46.1407,   48.6218,   48.6397,   47.6226,   47.4215,   47.4631,   47.8713,   49.1057,   48.5946,   49.6884,  999.0000,   51.7259,   50.8194,   50.8566,   51.0407,   50.4012,   49.9313,   50.2363,   50.9733,   51.2866,   49.8878,
  3-NOV-1996 00:15:54.64,    3.0270,  999.0000,    5.2261,    5.4447,    5.0309,    5.3591,    5.4544,  999.0000,  999.0000,  999.0000,  999.0000,  999.0000,  999.0000,   22.5418,   23.6928,  999.0000,   26.5738,   27.0405,   27.5200,   27.6055,   28.4984,  999.0000,  999.0000,   30.4774,   32.0779,   32.7033,   34.0337,  999.0000,   38.0604,   37.2059,   39.5526,   39.8662,   40.2668,   40.8369,   42.3093,   42.2768,   42.7918,   43.5808,   43.6080,   43.1336,   43.5231,   44.2201,   44.3646,   44.6138,   46.6778,   46.6012,   47.5379,   45.6525,   46.1457,   45.8608,   46.5516,   47.3694,   48.0787,   50.0910,   51.0279,   50.6463,   50.9553,   51.7607,   51.3258,   51.5504,   51.5586,   50.8506,   50.2176,   50.3444,  999.0000,
  3-NOV-1996 00:20:28.43,    2.9309,    4.9964,    5.7585,    5.5638,    5.4640,  999.0000,  999.0000,  999.0000,  999.0000,  999.0000,  999.0000,  999.0000,  999.0000,  999.0000,  999.0000,  999.0000,  999.0000,  999.0000,  999.0000,   26.5591,   27.8544,   28.5521,   28.8450,  999.0000,  999.0000,  999.0000,   34.0802,   35.6386,   36.2104,   38.1303,   39.6966,   39.4431,   40.6375,   42.6557,   44.0027,   42.9612,   41.7519,   42.6814,   43.4569,   43.5617,   44.4538,   44.9790,   45.3378,   44.4715,   45.0417,   47.9223,   48.9428,  999.0000,  999.0000,   46.3185,   46.4872,   46.2998,   46.8084,   49.1577,   50.4448,   49.8059,   49.3442,   49.0654,   49.3202,   50.2122,   49.9934,   50.0379,   50.5852,   51.2595,   51.3595,
  3-NOV-1996 00:25:04.40,    5.2241,    6.0440,    6.3004,    6.2215,    6.0275,    6.3115,  999.0000,  999.0000,  999.0000,  999.0000,  999.0000,  999.0000,  999.0000,   22.5562,   23.4590,   24.4133,  999.0000,   25.6049,   27.3536,   27.7940,   27.7459,   28.2824,   29.2564,   29.8259,   29.9535,   31.2112,   32.5465,   36.6017,   38.0114,  999.0000,  999.0000,  999.0000,   40.4915,   42.0868,   43.8756,   43.8055,   43.3631,   43.6923,   43.3667,   42.7315,   43.5775,   44.8140,   45.0154,   43.2984,   43.5483,   45.7983,   46.6794,   46.1534,   46.9751,   46.8619,   46.3593,   46.3718,   48.1017,   50.2771,   51.0929,   51.2974,   51.5033,   51.6806,   51.9323,   52.3511,   51.7060,   51.1698,   51.7813,   51.9263,   52.2374,
  3-NOV-1996 00:29:38.34,    5.3304,    5.3489,    5.3255,    5.1514,    5.0007,    5.4512,  999.0000,  999.0000,  999.0000,  999.0000,  999.0000,  999.0000,  999.0000,  999.0000,  999.0000,  999.0000,  999.0000,  999.0000,   27.0613,  999.0000,   27.8699,   29.0626,   29.4002,   29.1179,   29.9110,   31.0682,   32.3215,  999.0000,  999.0000,  999.0000,  999.0000,  999.0000,   40.4098,   41.2495,   42.0417,   42.5516,   42.0574,   41.6708,   41.6735,   41.3492,   43.2410,   43.8434,  999.0000,   39.9960,   41.5514,   46.2827,  999.0000,  999.0000,  999.0000,   44.5671,   44.5234,   45.0841,   46.6782,   48.5801,   50.3470,   50.8034,   50.4257,   50.2199,   50.1625,   52.4184,  999.0000,   50.0536,   50.0158,   50.8157,   51.4183,
  3-NOV-1996 00:34:14.32,    4.9251,    4.6695,    3.8442,    3.0224,    2.7529,  999.0000,  999.0000,  999.0000,  999.0000,  999.0000,  999.0000,  999.0000,  999.0000,   22.8444,   23.6019,   24.4180,   25.0985,  999.0000,  999.0000,  999.0000,   28.0982,   29.3397,   29.7889,   28.2039,   28.4517,   29.1255,   31.7430,   34.7008,   35.2183,   37.5621,   39.3094,   41.0912,   40.6267,   42.2748,   42.7244,   42.9614,   42.8862,   42.7765,   43.6127,   44.4510,   44.2166,   43.3626,   43.5882,   41.5105,  999.0000,  999.0000,  999.0000,  999.0000,   46.3800,   46.5995,   46.0565,   46.4549,  999.0000,  999.0000,   50.9705,   51.6224,   51.2808,   51.2375,   50.4492,   50.1436,   50.5266,   50.0767,   50.0920,   50.5253,   50.4567,
  3-NOV-1996 00:38:48.77,    5.6817,    5.8767,  999.0000,    4.0858,    4.6892,    5.0509,    5.3135,  999.0000,  999.0000,  999.0000,  999.0000,   21.2793,   22.5508,   23.1398,   23.3232,   23.6234,  999.0000,   26.6301,   26.7702,   26.5260,  999.0000,   29.0987,   29.4682,   29.4766,   29.8830,   29.5638,  999.0000,   34.5227,   36.1074,   38.4270,   38.7549,   40.0413,   40.1543,   40.8697,   41.5836,   42.0572,   42.3618,   42.1226,   40.9504,   41.9874,   42.5655,   43.0665,   43.6535,   43.6651,   46.2074,   47.0597,   45.2279,   45.5339,   47.5005,   49.0219,   50.5297,   52.9029,   54.3110,   55.0218,   55.6008,   54.8714,   54.2298,   54.2924,   53.4289,   51.9933,   52.1247,   52.3903,   50.7292,   49.9525,   49.8230,
  3-NOV-1996 00:43:25.07,    4.2872,    5.0630,    5.1118,  999.0000,    3.4349,    3.2434,  999.0000,  999.0000,  999.0000,  999.0000,  999.0000,  999.0000,  999.0000,  999.0000,  999.0000,  999.0000,   25.0834,   26.4785,   26.9543,  999.0000,   28.0106,   29.2025,   30.1182,   29.2557,   30.4642,   30.7833,   32.6925,   34.1004,  999.0000,   37.3323,   37.5895,   38.8294,   40.5847,   41.7801,   43.4153,   44.1085,   44.1394,   42.0326,   41.4806,   41.4688,   41.8041,   41.9815,   43.3027,   43.9914,   45.5069,   46.4455,   46.2761,   46.6564,   48.9748,   50.1687,   50.8726,   53.7632,   54.6955,   54.0976,  999.0000,  999.0000,   52.6355,   51.9068,   51.5507,   51.0463,   50.3079,   50.8605,   52.0513,   52.4524,   51.1007,
  3-NOV-1996 00:47:58.95,    4.4350,  999.0000,    3.5871,    3.4180,    3.1022,    3.2877,    4.9933,  999.0000,  999.0000,  999.0000,  999.0000,   20.0556,   21.6915,   22.4142,   22.4589,   22.9691,  999.0000,  999.0000,   25.5806,   27.0106,   28.1973,   27.6652,   28.6386,   31.4366,   32.2919,   31.9363,   31.9974,   34.4630,   37.7725,   38.6560,   37.7594,   39.2264,  999.0000,  999.0000,   43.5541,   44.3876,   44.6807,   43.4351,   42.3445,   41.5415,   41.2322,   43.0746,   42.7189,   43.9915,   45.6043,   45.8839,   45.1015,   45.4639,   48.3494,   50.9025,   52.0562,   52.1655,   52.7001,   52.6820,   52.7109,   53.0676,   51.8777,   51.7293,   51.8756,   52.1551,   52.4640,   52.6160,   53.2761,  999.0000,  999.0000,
  3-NOV-1996 00:52:33.89,    5.1006,    3.8632,    3.5517,    3.4023,    3.0091,    2.9154,  999.0000,  999.0000,  999.0000,  999.0000,  999.0000,  999.0000,  999.0000,  999.0000,   22.7770,   23.1342,   24.8514,   25.2904,  999.0000,  999.0000,  999.0000,   27.5626,   29.3334,   31.5404,   30.8924,   30.2839,   31.5577,   35.5818,   38.1549,   38.0852,   39.7140,  999.0000,   41.7237,   43.9201,   44.0048,   43.9900,   42.6133,   42.6537,   42.0814,   41.1747,   41.1051,   42.5947,   44.0914,   44.7728,  999.0000,   46.4008,   46.3917,  999.0000,   48.5934,   50.4042,   50.9348,   50.1850,   51.3230,   51.7623,   51.6375,   51.4372,   50.7674,   50.7232,   51.0302,   50.9659,   51.5574,   50.8079,   50.0706,   49.3760,   49.4361,
  3-NOV-1996 00:57:11.07,    5.3851,    5.2514,  999.0000,    3.1743,    2.7552,  999.0000,  999.0000,  999.0000,  999.0000,  999.0000,  999.0000,  999.0000,  999.0000,  999.0000,   22.8924,   23.5994,   24.9912,  999.0000,  999.0000,   27.9050,  999.0000,  999.0000,  999.0000,   30.8169,   30.1445,   30.5941,   32.0096,   37.3483,   39.4862,   38.1392,   39.3150,   41.5796,   40.9847,   42.6746,   43.2284,   43.0064,   41.8440,   42.5739,   41.6450,   40.5865,   41.6124,   42.0047,   42.3810,   44.6268,   45.6854,   45.0854,   45.5117,   46.5436,   48.3189,   49.8438,   50.3111,   49.5628,   50.7153,   51.6810,   52.2062,   51.9762,   50.7876,   50.9033,   51.1068,   51.5230,   50.0072,   49.6837,   49.0254,   48.8953,  999.0000,
  3-NOV-1996 01:01:45.53,    5.8160,    5.7924,    5.4561,  999.0000,  999.0000,  999.0000,  999.0000,  999.0000,  999.0000,  999.0000,  999.0000,   20.1231,   21.1039,   21.8317,   22.9022,   24.4476,   23.3604,  999.0000,   28.0591,   28.2075,   28.9570,   28.6253,   29.5993,   32.0097,   31.9233,   31.7902,  999.0000,   35.9750,   39.2380,  999.0000,   38.6926,   39.2323,   41.0183,   41.9038,   41.1453,   42.3823,   41.4805,   41.1645,   40.8088,   42.2078,   42.8928,   43.6174,   44.3105,   45.0816,   46.4003,   45.5978,   45.7905,   47.2815,   48.4565,   49.3217,   50.1747,   49.8737,   50.4585,   52.1959,   52.4895,   52.5522,   52.1439,   50.1610,   50.4373,   49.4607,   48.9640,   48.8454,   48.8868,   48.9490,   51.2865,
  3-NOV-1996 01:06:19.49,    6.8990,    6.6778,    5.6528,    4.1268,  999.0000,  999.0000,  999.0000,  999.0000,  999.0000,  999.0000,  999.0000,  999.0000,   21.3640,   22.5162,  999.0000,  999.0000,  999.0000,   27.3331,   28.1536,   28.0400,  999.0000,   28.8845,   30.2703,   30.2477,   30.4047,   30.2664,   32.6291,   32.3117,  999.0000,   38.2094,   38.2519,   39.1111,   41.2691,   40.9509,   42.5331,   43.1150,   42.6090,   41.8862,   41.6458,   42.0235,   42.5456,   44.1921,   46.0781,   47.5519,   48.6081,   47.6525,   46.7900,   46.7795,   47.5554,   48.6889,   48.5239,   49.3236,   49.5596,   49.8693,   49.9323,   50.0810,   50.1976,   50.4053,   50.2889,  999.0000,   48.6881,   49.0259,   49.4196,  999.0000,   52.3679,
  3-NOV-1996 01:10:56.81,    5.2723,    5.2580,  999.0000,    3.2573,    3.1600,    3.8366,  999.0000,  999.0000,  999.0000,  999.0000,  999.0000,  999.0000,  999.0000,  999.0000,  999.0000,   24.5541,   25.8784,   25.7958,   26.3699,   26.3651,   27.2518,  999.0000,  999.0000,   30.2606,   30.6674,   30.8016,   31.1039,   33.0223,   37.3505,   39.5823,   40.4173,   41.4552,  999.0000,   42.6679,   44.6722,   44.3340,   42.9652,   42.5001,   41.9165,   41.8688,   41.5702,   42.1960,   44.2114,   45.2980,   45.8585,  999.0000,   45.2513,   44.7748,   45.9473,   47.8982,   47.6571,   47.1986,   48.2835,   48.4769,   48.2036,   49.0416,   50.3133,   50.0899,   48.8774,   48.4106,   48.2478,   47.5886,   47.8807,   49.0431,   51.1904,
  3-NOV-1996 01:15:33.70,    4.9567,    4.3749,    3.0297,    2.5058,    2.7262,  999.0000,  999.0000,  999.0000,  999.0000,  999.0000,  999.0000,  999.0000,   21.1509,   21.0015,   23.7722,   25.9594,   25.8535,   24.4477,   23.6620,  999.0000,   28.2442,  999.0000,   28.9209,   32.8837,   32.6880,   33.0650,  999.0000,   34.3817,   38.0685,  999.0000,  999.0000,  999.0000,  999.0000,   43.7634,   44.9694,   46.0981,   45.5367,   42.9514,   42.4661,   41.8480,   40.3341,   42.5356,   44.6879,   44.0903,   43.0981,   42.6644,   43.5239,   45.4950,   46.4480,   47.4405,   47.7761,   47.9877,   48.2722,  999.0000,  999.0000,   47.2926,   48.4942,   49.4709,   49.2225,   48.8283,   48.4967,   48.7100,   49.5179,   49.3157,   49.6315,
  3-NOV-1996 01:20:08.61,    3.2599,    3.0772,    2.9726,    2.4703,  999.0000,  999.0000,  999.0000,  999.0000,  999.0000,  999.0000,  999.0000,   19.4279,   20.6979,   20.3488,  999.0000,  999.0000,  999.0000,   24.3461,   24.5473,   26.1679,   26.9149,   27.6270,  999.0000,   30.5986,   32.1994,   33.7501,   33.5376,  999.0000,   38.3036,   40.1395,   41.5018,   43.4128,   41.9036,   43.7688,   44.9547,   45.1459,   44.7419,   44.7785,   44.6691,   43.7315,   43.9411,   44.8329,   44.2821,   43.2379,   44.0628,   45.8333,   47.2839,   48.0950,   48.5025,   48.5159,   49.6898,   49.7921,   48.4433,   48.2114,   47.8150,   47.7289,   48.9273,   49.3347,   49.2231,   49.2652,   47.9917,   48.1365,   49.0240,   49.5097,   51.0731,
  3-NOV-1996 01:24:43.42,    2.7699,    2.4697,    2.3940,    2.1809,    2.3469,    2.5639,    2.9262,  999.0000,  999.0000,  999.0000,  999.0000,   20.1016,   21.1894,  999.0000,  999.0000,  999.0000,  999.0000,   25.1941,   25.1654,   25.7153,   27.1930,   27.9344,   28.4627,   29.9753,   31.4259,   32.2945,   33.0938,  999.0000,  999.0000,  999.0000,   41.4412,   43.1313,   42.4152,   43.2484,   44.1633,  999.0000,   43.6476,   43.2706,   43.5104,   43.3373,   42.3186,   43.7101,   45.2296,   44.2526,  999.0000,   44.5494,   45.3933,   46.4444,   47.6082,   48.3180,   49.5716,   48.9778,   47.3898,   46.5878,   47.0830,   48.1348,   49.9302,   50.5797,   49.9097,   49.5987,   48.8956,   49.0099,   49.6901,   50.3354,   50.9915,
  3-NOV-1996 01:29:20.17,    4.7897,    3.9066,    3.2791,  999.0000,    1.7196,    2.0274,  999.0000,  999.0000,   10.3837,   11.8518,  999.0000,  999.0000,   22.0179,   23.0589,   23.9203,  999.0000,   25.1064,   26.3752,   26.5907,   27.5197,   27.8149,   28.1698,   28.6175,   29.7236,  999.0000,   31.3504,   31.6001,   32.5924,   35.8293,  999.0000,   39.7357,   41.1565,   41.5257,   41.3800,  999.0000,   44.1451,   43.6613,   43.3439,   43.6809,   43.6954,   43.4885,   44.5875,   44.6101,   44.3634,   44.8470,   46.3022,   46.7056,   46.4174,   45.6769,   47.2611,   48.6483,   47.4807,   46.5835,   46.5734,   46.5280,   47.0482,   49.4584,   50.9515,   50.4863,   51.1160,   51.9611,   52.1344,   51.0988,   51.8535,   51.9918,
  3-NOV-1996 01:33:57.47,    1.4590,    1.5845,    1.7117,  999.0000,    3.1840,    4.3313,    5.0412,  999.0000,  999.0000,  999.0000,  999.0000,  999.0000,   21.6013,   22.8481,   23.3994,  999.0000,  999.0000,   24.8666,   25.5565,   25.6965,   27.4564,   27.1907,   27.5902,   30.2755,   31.5196,   31.9533,   31.4396,   34.6096,   35.9280,   36.9743,   38.8677,   39.8927,   42.6334,   43.7184,   43.3804,   44.0756,   43.2199,   42.9604,   43.2875,   43.8164,   43.4813,   43.9101,   44.2234,   45.6619,   48.2041,   48.3829,   47.4261,   47.0121,   47.2348,   47.9450,   48.3295,   47.4975,   48.0172,   48.9408,   48.8169,   48.5678,   49.1665,   49.8824,   50.0372,   50.3480,   51.1645,   51.7365,   51.2159,   51.1402,   52.9682,
  3-NOV-1996 01:38:31.97,    2.7515,    2.9088,  999.0000,  999.0000,    3.2306,    4.2813,  999.0000,  999.0000,  999.0000,  999.0000,  999.0000,  999.0000,   20.9918,   22.3823,  999.0000,  999.0000,   23.7188,   24.1683,   24.1956,   25.8768,  999.0000,   27.4337,   26.2651,   28.1604,   30.7237,   31.1645,   30.7113,  999.0000,   35.3284,  999.0000,   39.4813,   40.2969,   40.9639,   42.2979,  999.0000,  999.0000,   44.9055,   44.0266,   44.7360,   45.0120,   46.2505,   47.5482,   48.1987,   48.9169,   48.1025,  999.0000,   46.0506,   46.5138,   47.4613,   48.5320,   48.0127,   48.0548,   48.1370,   48.2410,   48.9116,   49.5167,   49.6132,   49.2624,   49.0900,   49.7084,   50.2239,  999.0000,  999.0000,  999.0000,  999.0000,
  3-NOV-1996 01:43:06.49,    2.5133,    2.2007,    2.1933,    2.6206,    2.8868,  999.0000,  999.0000,  999.0000,  999.0000,  999.0000,  999.0000,  999.0000,  999.0000,  999.0000,  999.0000,  999.0000,  999.0000,  999.0000,   27.5128,   28.1074,   29.2229,   29.1922,  999.0000,   31.8751,   32.3975,   31.7879,   33.0104,  999.0000,  999.0000,  999.0000,  999.0000,   41.1023,   41.0580,   41.0066,   42.2379,   42.9462,   44.3393,   44.6306,   43.3635,   44.1004,   46.0786,   47.9753,   47.9616,   48.5438,   47.0393,   47.0638,   47.4069,   48.5561,   48.6168,   50.0025,   49.1900,   48.7387,  999.0000,  999.0000,   49.2346,   50.1588,  999.0000,  999.0000,  999.0000,  999.0000,  999.0000,  999.0000,  999.0000,  999.0000,  999.0000,
  3-NOV-1996 01:47:41.71,    3.3492,    3.0012,    3.2382,    4.2077,    4.6583,    5.0145,    4.9636,  999.0000,  999.0000,  999.0000,  999.0000,  999.0000,  999.0000,  999.0000,  999.0000,  999.0000,  999.0000,  999.0000,  999.0000,  999.0000,  999.0000,  999.0000,  999.0000,  999.0000,   30.2931,   29.1888,   29.9829,  999.0000,   33.9140,  999.0000,   37.6683,  999.0000,   40.0207,   40.0374,   42.0974,   43.5374,   43.8157,   43.6052,   44.4200,   44.3803,   44.9475,   46.8743,   48.1964,   47.7443,   46.9054,   46.9565,   46.6487,   48.5823,   49.4997,   48.6784,   47.0420,   47.2538,   48.9532,  999.0000,   50.1525,   48.6875,   49.1947,   50.0447,   50.1051,   48.9669,   47.9240,   48.8792,   50.5985,   51.3372,   50.2783,
  3-NOV-1996 01:52:18.50,  999.0000,    0.6239,    1.0682,    0.8074,    0.8528,    3.5298,    4.7209,  999.0000,  999.0000,  999.0000,  999.0000,  999.0000,  999.0000,  999.0000,  999.0000,  999.0000,  999.0000,  999.0000,  999.0000,  999.0000,   27.7949,   27.8625,   28.9662,   31.0118,   32.6490,   31.2196,   31.8627,   32.0466,  999.0000,  999.0000,   39.0153,   40.1059,   40.8136,   41.3568,   43.1331,   44.3787,   43.7035,   42.5802,   43.4914,   43.7090,   44.4091,   45.7117,   46.5298,   46.9118,   46.1652,   45.0314,   47.8864,   48.6110,   48.5189,   48.6920,   47.6885,   48.0383,   49.3744,   49.7427,   49.2001,   48.7663,   48.0436,   48.3066,   48.6141,   47.9269,   48.2069,   50.2941,  999.0000,   49.5088,   49.4406,
  3-NOV-1996 01:56:59.13,    2.6717,    3.0929,    3.4792,    3.2789,  999.0000,    3.3056,  999.0000,  999.0000,  999.0000,   10.7703,   11.1661,  999.0000,   19.4523,   20.6376,  999.0000,  999.0000,   23.4738,   23.9627,  999.0000,  999.0000,   27.6376,   27.9301,  999.0000,   30.3498,   30.7531,   31.3681,   31.6788,   32.0109,   33.9089,  999.0000,   40.0148,   41.4773,   42.0374,   43.3776,   45.4762,   45.4726,   44.5860,   43.8599,   45.6155,   46.0818,   44.5815,   46.6092,   49.8438,   48.5905,   47.4052,   47.5261,   50.3729,   50.5223,   48.1187,   48.3514,   48.9989,   49.0423,   48.8846,   48.1808,   47.5307,   47.6325,   47.1912,   48.4079,   48.6424,   49.8347,   48.4182,   51.2563,   52.2690,   51.2085,  999.0000,
  3-NOV-1996 02:01:35.49,    2.0955,    2.1883,    3.1750,    2.5911,    1.3225,  999.0000,  999.0000,  999.0000,  999.0000,  999.0000,  999.0000,  999.0000,   20.0050,   21.3039,   22.4729,   23.3720,   23.6013,   24.4756,   26.1506,   27.5332,   27.7826,   27.1286,   27.1774,   31.5218,   32.0337,   31.3923,   31.6792,   32.0424,  999.0000,   37.6723,   39.8730,   41.1074,   40.9699,   43.0669,   44.2016,   44.2690,   43.7032,   42.5358,   43.8469,   44.2478,   45.5685,   48.4292,   49.6074,   49.4085,   46.9541,   49.1755,   49.4229,  999.0000,  999.0000,   48.3697,   48.9705,   48.4929,   48.5661,   48.5494,   49.3216,   48.4814,   48.8046,   50.7225,   51.7005,   52.0364,   52.5356,   52.5806,   52.8034,   51.3897,   51.1364,
  3-NOV-1996 02:06:12.98,    1.1868,    1.9437,    2.5112,    2.5914,    2.9980,    3.3712,    4.3233,    7.4854,   10.4153,   11.7283,  999.0000,  999.0000,   21.2953,   22.5030,   24.2066,   24.3257,   24.0645,   24.6436,   25.4897,   28.1216,   28.4969,   28.9922,   28.8936,   31.8963,   33.2676,   32.8553,   31.6543,   32.7154,  999.0000,   38.0100,   39.7796,   39.9764,  999.0000,   42.5005,   43.2589,   43.4007,   43.1044,   42.7771,   43.0769,   44.0042,   45.9949,   47.7718,   49.5348,   49.1804,   47.0317,   47.9511,   50.3221,   50.3386,   48.4661,   47.8048,   48.1026,   48.6103,   49.1687,   49.1656,   47.9917,   46.7195,   46.7702,   46.7288,   49.3088,   51.2452,   51.9240,  999.0000,   51.1216,   50.7274,   52.2886,
  3-NOV-1996 02:10:49.97,    3.1287,    2.7343,    2.1743,    2.1987,  999.0000,  999.0000,  999.0000,  999.0000,  999.0000,  999.0000,  999.0000,  999.0000,   20.8529,   22.0792,   22.2255,   23.8480,   24.3491,   24.8147,   26.2089,   27.3578,   28.0473,   28.0165,   28.5446,   32.0695,   32.3505,   31.6081,   31.9830,   32.8990,   36.3147,  999.0000,   40.2773,   40.2871,   41.6945,   43.3165,   44.6216,   45.8349,   45.4621,   43.1705,   42.2261,   43.2151,   44.6362,   45.9219,   47.1030,   46.8105,   45.6626,   46.9976,   47.6345,   48.6698,   48.3489,   48.0455,   48.4651,   48.4858,   48.3304,   48.8380,   49.7234,   50.0342,   50.4151,  999.0000,  999.0000,   49.6562,   50.4721,   51.7869,   52.0020,   52.0353,   53.0577,
  3-NOV-1996 02:15:26.08,    3.0902,    2.7802,    2.7656,    3.5869,    3.2460,    2.9704,  999.0000,  999.0000,  999.0000,  999.0000,  999.0000,   17.3185,   20.2197,   21.3754,   21.3536,   23.4593,   24.2178,   23.4906,  999.0000,  999.0000,   28.2179,   28.8269,   29.3350,   31.3758,   30.7902,   30.9092,   30.8750,   32.4537,   34.3729,   37.5265,   38.8418,   39.8347,   41.9083,   42.8069,   44.3510,   44.9811,   44.2308,   43.5852,   43.1334,   44.8129,   44.5271,   43.7806,   43.8069,   45.1190,   46.2734,   46.8449,   48.1016,   48.3323,   48.2485,   46.9854,   47.4886,   47.3783,   47.9039,   49.0939,   49.1217,   47.7242,  999.0000,   48.7763,   49.9609,   49.5061,   50.1147,  999.0000,  999.0000,  999.0000,  999.0000,
  3-NOV-1996 02:20:00.82,    2.5729,    2.5353,    2.6457,    2.7821,    2.8099,  999.0000,  999.0000,  999.0000,  999.0000,  999.0000,  999.0000,  999.0000,  999.0000,  999.0000,   23.1674,   24.0618,   24.3884,   24.9474,   26.2858,   26.1738,   26.5606,   27.8930,   29.0750,   30.0014,   30.6237,   31.1274,   30.8944,   32.2665,   33.9724,   37.0896,   38.5518,  999.0000,   40.9584,   41.1177,   43.3182,   44.3346,   43.7846,   42.9388,   42.4731,   44.4784,   46.4436,   47.2202,   47.8970,   48.2049,   47.5920,   47.7517,   49.1830,   48.7052,   47.1487,   47.1036,   48.3463,   48.0880,   47.9514,   48.3115,   49.2816,   49.5284,   49.7746,   50.5751,   51.5949,   50.7919,   50.2375,   50.8307,   51.6117,   51.1115,   50.8666,
  3-NOV-1996 02:25:37.03,    3.5793,    3.4215,  999.0000,    2.1958,    2.6619,  999.0000,  999.0000,  999.0000,  999.0000,  999.0000,   14.0020,   18.2290,  999.0000,  999.0000,   23.6339,   24.6050,   25.2483,   25.4455,  999.0000,   27.7413,   27.4600,   28.5265,   28.6177,   29.3903,   29.2966,   30.4762,   32.3342,   33.2191,   35.2344,   37.5172,   39.0326,   40.5711,   41.5483,   42.0171,   42.6732,   45.5555,   43.2744,   41.8809,   44.5933,   42.9879,   46.6765,   47.7136,   48.6135,   48.9934,  999.0000,   46.5486,   47.9208,   49.6129,  999.0000,  999.0000,   48.1949,   49.2145,   49.6750,   48.6615,   47.4740,   47.6630,   48.8825,   48.9320,   50.4007,   49.8168,  999.0000,   49.8555,  999.0000,  999.0000,  999.0000,
  3-NOV-1996 02:30:11.93,    4.5908,    4.6010,    4.5567,    4.5801,    5.1384,    5.3690,    5.2625,  999.0000,  999.0000,  999.0000,  999.0000,  999.0000,  999.0000,  999.0000,   24.5842,   25.5603,   25.6960,   25.8063,   25.3376,  999.0000,   28.6629,   29.5970,   28.9537,   32.8645,   33.3961,   32.2198,   32.2612,   33.3042,   34.7654,  999.0000,  999.0000,  999.0000,   41.9451,   42.9699,   45.2340,   46.8980,   40.9767,   41.0595,   42.2188,   43.6476,   46.0194,   48.0403,   48.9124,   48.0524,   46.6902,   46.3343,   48.6337,  999.0000,  999.0000,  999.0000,   47.6111,   48.0963,   48.8361,   49.0147,   48.1007,   48.7810,   50.2277,   49.0878,   49.7825,   51.9165,   52.7448,   51.3640,   51.1172,   49.9278,   49.5019,
  3-NOV-1996 02:34:46.74,    3.4762,    4.6160,    4.9272,    4.9850,    4.8818,    5.3964,  999.0000,  999.0000,   13.0319,   14.0005,  999.0000,   21.9577,   23.2712,   23.9285,   24.6556,  999.0000,   25.1275,   25.6296,  999.0000,   28.4193,   27.2508,   28.2578,   29.4432,   32.6579,   32.7243,   31.9132,   32.3847,   33.9882,  999.0000,   37.0724,   38.7173,   39.7614,   41.3123,  999.0000,   45.7956,   45.2657,   43.4267,   43.2816,   44.1263,   42.8129,   46.4173,   48.0331,   48.2259,   48.2996,   47.4658,   45.3338,   45.8134,   48.2072,   48.1175,   47.4661,   48.6023,   49.2640,   49.2684,  999.0000,   50.0771,   49.4644,   50.4954,   49.4016,   50.8834,  999.0000,   53.8671,  999.0000,   51.3814,   49.7729,   49.1022,
  3-NOV-1996 02:39:23.33,    4.4673,  999.0000,    3.0748,    2.9242,    2.3891,  999.0000,  999.0000,  999.0000,  999.0000,  999.0000,  999.0000,   21.5527,   23.1758,   24.2105,  999.0000,  999.0000,  999.0000,   26.0019,   27.1589,   28.7226,   27.4214,   28.7159,   29.5383,   29.8080,   31.3897,   31.9704,   32.1620,   33.9968,   35.7376,   37.3222,   38.9499,   41.0372,   43.3820,   45.1397,   46.2261,   45.1643,   44.6655,   42.6925,   43.3450,   44.8005,   45.5131,   46.4548,   46.5954,   46.6259,   48.6859,   49.2671,   47.9486,   48.3741,   47.8790,   47.3928,   48.0050,   48.6702,   50.1622,   50.1725,   49.1569,   49.7870,   49.2152,   50.1523,  999.0000,   53.0582,   51.7335,   50.7057,   49.8649,   49.4780,   49.0782,
  3-NOV-1996 02:44:00.59,    3.8099,    3.0366,    2.0062,    1.5218,    1.1330,  999.0000,  999.0000,  999.0000,  999.0000,  999.0000,  999.0000,   21.1861,   22.9317,   23.6510,  999.0000,   24.7456,   25.1764,   25.5452,   26.3367,  999.0000,   26.7591,   28.4720,   29.1389,   31.5941,   31.9759,   32.2708,   31.7134,   33.3364,  999.0000,   36.8981,   38.0023,  999.0000,   41.2474,   43.0701,   45.1650,   44.3624,   43.8921,   43.7514,   44.4624,   43.0211,   46.1533,   46.8728,   45.9543,   46.7422,   48.6954,   48.7763,   47.9800,   48.5586,   47.2573,   46.4766,   46.1488,   47.4064,  999.0000,   49.4899,   48.4642,   48.5215,   48.1825,   49.4122,  999.0000,  999.0000,   52.0125,   50.4025,   49.6027,   50.1286,   50.0832,
  3-NOV-1996 02:48:35.79,    3.6709,    4.1029,    4.4766,    5.0463,    5.0795,    5.2616,  999.0000,  999.0000,   12.5622,   13.6467,  999.0000,   20.6409,   22.2904,   23.3324,   24.0300,   25.1556,   26.5224,   26.5978,   26.6162,   26.6427,  999.0000,   27.9704,   28.2131,   30.1262,   31.0710,   31.3628,   31.2394,   32.6703,   35.1812,   36.1762,   36.7888,   38.2004,   40.6893,   43.6806,   44.1796,   43.7476,   42.9421,   43.4249,   44.4200,   44.5915,   45.2605,   46.0223,   47.3266,   48.2053,   47.5036,   47.9106,   48.0884,   46.4398,   46.2603,   46.9235,   47.5403,   49.5167,   49.3087,   47.7769,   48.5831,   48.8560,  999.0000,  999.0000,  999.0000,  999.0000,  999.0000,  999.0000,  999.0000,  999.0000,  999.0000,
  3-NOV-1996 02:53:10.74,    4.0196,    4.7106,    5.2045,    5.3086,    4.8630,    4.5378,  999.0000,  999.0000,  999.0000,  999.0000,  999.0000,   20.6530,   22.1876,   23.5834,   24.2061,   24.7743,   25.1171,   25.7932,   26.5169,  999.0000,   26.9287,   28.3789,  999.0000,   30.3255,   31.6795,   31.3843,   31.8600,   32.9798,   34.4876,   35.8679,   37.4202,   37.9255,  999.0000,  999.0000,   43.4860,   43.3147,   43.3930,   44.0130,   44.8624,   45.1502,   44.1564,   45.1050,   47.4340,   47.9457,   47.3846,   47.2195,   46.6292,   46.4249,   46.6432,   48.3483,   47.7942,   48.3313,   49.3665,   49.6351,   48.9273,   48.5599,   48.8939,   49.6662,   51.6824,   52.9924,  999.0000,   50.1182,   50.1203,   51.0648,   50.2190,
  3-NOV-1996 02:57:48.90,    3.4563,    3.5531,    3.6100,    3.8876,    3.5435,    3.1194,    3.8824,  999.0000,  999.0000,  999.0000,  999.0000,  999.0000,   22.3031,   22.9454,  999.0000,  999.0000,  999.0000,   25.6183,   25.9327,   26.3096,   26.2332,   28.2689,   29.5038,   30.2564,   31.2453,   31.6514,   30.6149,   32.2747,   34.0335,   34.2064,   38.1277,   38.1104,   41.6426,   43.6418,   42.8154,   42.4156,   42.4223,   42.5510,   43.1484,   44.4385,   44.3213,   45.5230,   46.8106,   46.9101,   48.2302,   48.2973,  999.0000,   47.3675,   47.3493,   46.5759,   46.8860,   47.6168,   48.5666,   49.7035,   49.7176,   49.0112,   50.3915,   51.7011,   51.5356,   51.5854,   51.3286,   50.7542,   50.4992,   50.0633,   48.6512,
  3-NOV-1996 03:02:25.67,    3.4042,    3.5704,    3.5749,    3.3977,    2.5089,    1.9482,  999.0000,  999.0000,   10.5820,   12.0754,  999.0000,   20.8383,   21.9613,   22.1639,   21.4873,   21.6054,   23.0102,   23.5229,   25.2276,   25.6560,   26.2354,   28.6117,   28.8795,   31.1803,   32.5260,   33.2719,   32.5668,   33.1596,   34.5032,   33.6055,   35.2283,   38.1157,   40.6454,   42.3024,   42.7171,   42.3946,   42.1115,   42.8533,   43.7681,   44.4432,   44.1503,   46.0778,   46.9286,   47.3440,   48.1861,   46.8021,   47.2585,   47.1866,   46.8264,   47.4457,   47.9902,   48.0602,   48.7186,   48.8036,   48.9390,   51.3376,  999.0000,   51.3687,  999.0000,   49.7612,   50.0705,   50.2611,   50.7501,   50.4480,   50.1570,
  3-NOV-1996 03:07:02.35,    2.0892,    1.8018,    1.6930,    3.2415,  999.0000,  999.0000,  999.0000,  999.0000,   11.9245,   12.8682,  999.0000,   21.1991,   22.1257,   22.3128,   22.1871,   23.3243,   24.6288,  999.0000,   26.2700,   26.3377,   27.4331,   28.9093,  999.0000,   31.0236,   31.4682,   31.7520,   31.0694,   32.6077,   32.6754,   34.1138,  999.0000,   36.5427,   39.9817,   41.4436,  999.0000,  999.0000,   43.7847,   42.9534,   43.9492,   45.2413,   44.5713,   46.1249,   48.6019,  999.0000,   49.0373,   47.3986,   46.1117,   46.5958,   46.8664,   47.5226,   48.6676,   49.2952,   49.5583,   50.0101,   49.1747,   50.0456,   50.6651,  999.0000,  999.0000,   51.1630,   51.3156,   51.8693,   51.8692,  999.0000,   51.9836,
  3-NOV-1996 03:11:39.19,    1.5710,  999.0000,    1.0471,    2.8670,    3.8097,  999.0000,  999.0000,  999.0000,  999.0000,  999.0000,  999.0000,   20.7203,   21.7729,   22.6095,   22.1262,  999.0000,   24.8869,   25.0641,   25.2986,   26.3234,   27.3612,   27.9394,   29.1540,   30.5941,   30.6663,   32.2667,   31.5204,   33.4415,   33.8845,   34.0848,  999.0000,  999.0000,  999.0000,  999.0000,  999.0000,   44.0173,   44.4462,   44.7601,   45.3563,   44.7392,  999.0000,   45.1560,   47.1056,   47.5226,   48.2549,   47.3127,   46.0025,   47.3198,   47.5433,   46.8450,   48.0259,   48.4406,   48.0726,   48.6921,   48.7298,   50.1496,   51.2206,   51.1435,   52.2551,   52.9268,   52.2930,   52.5061,   51.9836,   53.1541,   53.0278,
  3-NOV-1996 03:16:16.61,    2.0024,    2.1093,    2.2071,    3.3868,    3.7260,    4.9205,  999.0000,  999.0000,   10.9241,   12.4199,  999.0000,   20.1552,   21.0952,  999.0000,   22.4247,   23.5797,   25.2549,   25.1431,   24.9498,   25.9743,   27.9821,   28.5798,   29.5480,   30.1980,   31.0487,   32.1339,  999.0000,  999.0000,   34.3524,   34.8044,   35.4045,   36.8916,   40.9567,   43.9373,   45.2217,   45.7481,   45.7121,   45.2947,   45.4288,   44.4229,   44.7925,   47.4421,   48.5496,   48.0444,   47.9653,   48.3354,   47.2040,   47.2774,   47.7600,   47.3272,   48.7549,   47.4550,   48.1221,   48.7187,   49.6571,   50.2701,   51.6578,   53.9783,   54.9696,   54.5730,   52.4755,   51.7473,   52.3565,   52.5709,   52.8229,
  3-NOV-1996 03:20:54.84,    2.0143,    3.0160,    3.2877,    2.6961,    2.3837,  999.0000,  999.0000,  999.0000,  999.0000,  999.0000,  999.0000,   20.1246,   21.2423,  999.0000,   22.3420,   22.9747,   24.5117,   25.0628,   25.6089,  999.0000,   27.7493,   28.9142,   29.4812,   29.4878,   30.3003,   31.1565,   30.7931,   31.5297,   33.4853,   33.9045,   34.9742,   36.6519,  999.0000,  999.0000,   44.0051,   44.7458,   44.6567,   43.8875,   43.6809,   43.4567,   45.1609,   47.5481,   47.7468,   47.3352,   47.9285,   47.1003,   45.8703,  999.0000,  999.0000,   49.2002,   48.5520,   48.3176,   48.4943,   47.7906,   47.6191,   48.4508,   50.3610,   52.3290,   52.9164,   52.1889,   53.0106,   53.6954,   53.5937,   53.7775,   53.3724,
  3-NOV-1996 03:25:30.14,    2.0027,    2.9040,    3.5351,    3.5609,    3.6650,  999.0000,  999.0000,  999.0000,  999.0000,  999.0000,  999.0000,  999.0000,  999.0000,   23.1335,   23.0921,   23.0813,   24.1106,   24.6964,   25.0800,   24.5225,  999.0000,  999.0000,  999.0000,   29.7242,   30.3531,   30.4592,   30.8922,   31.6645,   33.6133,   34.2877,  999.0000,   37.3385,   41.8414,   43.9576,   43.9372,   45.1707,   46.1163,   45.5958,   43.8186,   43.7402,   47.7853,   49.4940,   48.4738,   48.3048,   47.7938,   47.6891,   46.1470,   47.5245,   47.5649,   48.2246,   47.5578,   47.8015,   47.3592,   47.7097,   48.8059,   50.1974,   52.8184,  999.0000,   52.6882,   51.8800,   51.9819,   53.3348,   53.8056,   53.2358,   52.8964,
  3-NOV-1996 03:30:06.63,    1.1349,  999.0000,    4.0262,    3.6633,    3.4954,    5.0153,  999.0000,  999.0000,  999.0000,  999.0000,  999.0000,   20.3683,   21.8176,   22.9210,   22.7801,   23.3583,   24.0176,   25.2355,   26.6399,   26.9482,  999.0000,   28.2317,   29.7817,   29.8809,   30.7488,   31.2390,   30.8564,   32.3867,   32.6254,   32.5121,   33.9794,   38.4149,  999.0000,  999.0000,   42.8628,   44.4250,   45.8132,   45.2546,   45.4878,   45.2612,   46.2409,   47.6558,   47.7384,   47.4071,   46.9134,   46.3640,   46.0689,   46.6902,   48.1939,   48.3448,   48.4977,   48.7267,   49.3554,   50.9499,   50.9828,   50.5408,   50.8051,   52.9161,   53.0368,   52.0485,   52.3434,   53.0138,   53.2621,   52.2564,   52.2945,
  3-NOV-1996 03:34:41.63,  999.0000,  999.0000,  999.0000,   -1.0971,   -1.7446,  999.0000,  999.0000,  999.0000,  999.0000,  999.0000,  999.0000,   20.1176,   21.6982,   22.0291,   22.3187,   23.4659,   23.0727,   23.9708,   25.2924,   25.9536,  999.0000,  999.0000,   28.8745,   28.8402,   30.3105,   31.5340,   31.7171,   32.5638,   32.2978,   32.9125,  999.0000,   37.6253,   40.3293,   40.8776,   42.0870,   44.1166,   45.3307,   45.3473,   43.5549,  999.0000,   45.0841,   46.7412,   47.1794,   47.4078,   47.0331,   46.9023,   46.6120,   46.4639,   47.8410,   47.9178,   48.3763,   49.7197,   50.8561,   51.0767,   51.6023,   53.1323,   54.3208,   54.0359,   53.4447,   52.6385,   51.4869,   52.2364,   52.9755,   52.0112,  999.0000,
  3-NOV-1996 03:39:17.03,    2.1264,  999.0000,  999.0000,  999.0000,  999.0000,  999.0000,  999.0000,  999.0000,  999.0000,  999.0000,  999.0000,  999.0000,   21.7882,   23.0001,  999.0000,  999.0000,   23.1110,   24.8862,   24.8242,  999.0000,   27.2687,   26.9107,  999.0000,   29.7322,   31.1043,   32.7102,   31.6351,   31.1773,   32.4700,   34.4264,  999.0000,   37.1357,   40.3287,   41.8129,   42.0502,   43.1075,   45.5851,   44.8988,   44.9631,   43.2721,   45.0126,   47.4089,   47.7191,   47.3837,   47.2298,   47.0800,   45.8880,   46.1158,   46.7022,   47.7542,   48.6235,   48.1067,   48.9469,   50.1040,   52.5343,  999.0000,   54.4515,   52.9950,   52.5061,   52.0877,   51.5987,   51.9615,   52.4431,   52.5915,   52.5925,
  3-NOV-1996 03:43:53.09,    1.8370,    2.2133,    2.7991,    2.1980,  999.0000,  999.0000,  999.0000,  999.0000,  999.0000,  999.0000,  999.0000,  999.0000,   21.5329,   23.3193,  999.0000,  999.0000,  999.0000,   25.4439,   25.8435,  999.0000,   26.6442,   28.3541,   28.3158,   28.6300,   29.3991,   30.7981,   31.1141,   32.2595,   33.6390,   34.8595,   36.0044,   36.0433,   39.2594,   41.3684,   42.6516,   43.6040,   44.7741,   43.5107,   43.5378,   45.0395,   46.3621,   47.4897,   47.7916,   46.7547,   46.9714,   46.7150,   46.0092,   46.7081,   47.3391,   47.8926,   48.3516,   48.3865,   50.6727,   53.3290,   54.0374,   54.7502,   54.2810,   51.8351,   51.4942,   52.0482,   52.1642,   53.4746,   53.8275,   53.9500,   53.6987,
  3-NOV-1996 03:48:27.26,    3.9983,    3.0642,  999.0000,    0.7559,    1.6979,  999.0000,  999.0000,  999.0000,  999.0000,  999.0000,   14.9218,   17.4667,   20.6440,   22.5069,  999.0000,  999.0000,  999.0000,   25.3305,   26.4435,  999.0000,  999.0000,  999.0000,   26.9040,   28.6168,   28.9617,   30.9042,   31.2779,   32.0942,   33.9886,   34.4061,   34.7394,   36.7293,   38.9433,   41.1447,   42.6791,   44.1963,   44.8443,   43.3611,   44.4778,   44.3017,   45.0615,   46.7582,   47.3839,   47.2749,   47.2830,   46.7784,   45.2347,   45.7582,   47.1605,   47.7347,   47.8986,   48.0327,   51.0238,   53.5887,   54.7507,   53.7349,   53.2094,   51.7450,   51.0446,   51.1508,   50.7152,   51.6718,   52.0329,  999.0000,   50.8151,
  3-NOV-1996 03:53:01.35,    3.5677,  999.0000,    0.8990,    0.3870,  999.0000,  999.0000,  999.0000,  999.0000,  999.0000,  999.0000,  999.0000,  999.0000,  999.0000,   23.0283,   23.8318,   23.6911,   24.4025,   25.0270,  999.0000,  999.0000,  999.0000,  999.0000,  999.0000,   28.8991,   28.5977,   30.1884,   31.0800,   32.0896,   32.9894,   33.5494,   34.7949,   36.3019,   38.4413,   40.0343,   42.9522,   44.0807,   44.7803,   41.9510,   43.1008,   43.3342,   44.4976,   46.3159,   46.1535,   46.5448,   46.9623,   47.0142,   46.3443,   46.8690,   47.9373,   48.3521,   48.7048,   49.7948,   52.4204,   54.0899,   55.1689,   53.8902,   52.4700,   52.2453,   51.5642,   51.1128,   50.5630,   49.7804,   49.3041,   48.9872,   49.0796,
  3-NOV-1996 03:57:37.79,    4.2108,    3.2122,    2.7930,  999.0000,    1.7690,    1.2552,  999.0000,  999.0000,  999.0000,  999.0000,  999.0000,  999.0000,  999.0000,   22.0971,   22.6209,   23.8583,   24.3455,   24.2420,  999.0000,  999.0000,  999.0000,  999.0000,  999.0000,   28.2675,   28.4150,   29.3119,   31.0776,   32.6516,   32.9792,   33.1830,   34.2704,   35.1887,   38.1732,   40.1053,  999.0000,   42.7774,   41.9576,   41.4702,   42.1776,   43.0286,   44.3165,   45.3586,   45.4931,   46.4750,   47.0229,   45.7895,   45.4247,   46.0781,   48.2247,   48.5849,   48.7759,   49.7616,   50.8173,   53.0154,   53.6414,   52.9464,   51.8244,   50.6948,   49.9273,   50.2618,   50.6048,   49.0433,   47.7206,   47.3106,   49.0752,
  3-NOV-1996 04:02:12.10,    5.4839,    4.5340,    3.4379,    3.1585,    3.9596,    3.4398,  999.0000,  999.0000,  999.0000,  999.0000,  999.0000,  999.0000,  999.0000,   21.8286,   23.1908,   24.1932,   24.4570,   24.0611,   22.8279,  999.0000,  999.0000,  999.0000,   26.0215,   29.0003,   28.0321,   29.5169,   31.4295,   32.7290,   32.4443,   33.3657,   33.9493,   34.8057,   37.0378,   39.8425,   43.3924,   44.8730,   41.8396,   41.9854,   42.9220,   42.7202,   44.4636,   45.9213,   45.8653,   46.5256,   46.7772,   45.5333,   43.9652,   44.9246,   47.1751,   48.0706,   48.1296,   49.5639,   54.5953,   54.1115,   52.7646,   53.1741,   52.4792,   52.1118,   51.9828,   51.8701,   51.6086,   49.3469,  999.0000,   47.8519,   51.3127,
  3-NOV-1996 04:06:45.83,    5.3596,    4.4741,    4.8352,    4.9805,    4.9366,    5.2816,  999.0000,  999.0000,  999.0000,  999.0000,  999.0000,  999.0000,   21.5093,   22.9475,   22.9949,   23.1815,   23.3855,   23.8042,   23.1844,  999.0000,  999.0000,  999.0000,  999.0000,   26.2480,   27.2026,   29.0779,   30.7485,   32.6186,   33.1287,   34.2883,   35.1240,  999.0000,   37.9600,   39.9374,   43.7282,   45.4368,   42.1836,   40.0738,   41.3359,   43.9193,   45.6369,   46.4418,   47.5481,   47.3704,   47.1972,   45.6373,   44.6282,   46.0945,   46.9340,   47.8513,   48.9378,   49.8284,   52.1720,  999.0000,  999.0000,   51.5301,   51.0509,   50.4474,   50.5401,   50.8970,   50.6143,   51.2570,   51.3012,   51.1189,  999.0000,
  3-NOV-1996 04:11:19.87,    4.6428,  999.0000,    3.9406,    3.0884,    2.9417,  999.0000,  999.0000,  999.0000,   12.3645,   13.3000,   14.9460,   19.0603,   21.9113,   23.2044,   23.5362,   23.7194,   24.1785,   24.5533,   24.4324,  999.0000,  999.0000,  999.0000,  999.0000,   27.4649,   27.3384,   29.1144,   30.6840,   31.7754,   31.8255,   33.4492,   34.0080,  999.0000,   37.5380,   39.6997,  999.0000,   42.8522,   41.3896,   40.9711,   41.1524,   43.9913,   46.3750,   47.2231,   47.1523,   46.2205,   45.8573,   45.7039,   44.8884,   45.8013,   46.9229,   47.1740,   48.3357,   48.8869,   51.5208,   52.6429,   52.1150,   51.2764,   50.5594,   50.6593,   49.9101,   49.4142,   49.7654,   51.2726,   52.1175,   51.6209,   50.5294,
  3-NOV-1996 04:15:54.82,    2.7293,    2.6139,    2.5079,    2.4501,    3.5504,  999.0000,  999.0000,  999.0000,  999.0000,  999.0000,  999.0000,  999.0000,  999.0000,  999.0000,   22.4787,   23.2000,   24.4237,   25.2092,   24.9453,  999.0000,  999.0000,  999.0000,  999.0000,   27.4024,   27.7452,   29.5406,   30.7966,   31.8847,   32.5356,   33.7985,   33.9080,   35.6999,  999.0000,  999.0000,   44.1280,   42.9897,   42.4016,   42.4656,   43.3687,   44.9356,   47.3859,   47.2591,   46.8375,   46.0203,   46.3961,   45.1885,   44.9593,   46.3102,   47.5257,   48.8069,   50.3009,   50.5704,   52.9881,   53.6571,   52.9630,   52.3034,   51.3989,   50.9239,   50.6512,   50.9377,   52.0990,   51.6152,   50.7342,  999.0000,  999.0000,
  3-NOV-1996 04:20:29.57,    3.0989,    1.9579,    1.2384,    1.0719,  999.0000,  999.0000,  999.0000,  999.0000,  999.0000,  999.0000,  999.0000,  999.0000,  999.0000,  999.0000,  999.0000,   22.6369,   23.2583,   24.2370,   25.7158,   25.6910,   26.9212,  999.0000,  999.0000,  999.0000,  999.0000,   30.0397,   30.9497,   32.1992,  999.0000,   33.9765,   33.9721,  999.0000,   39.0171,   42.5264,  999.0000,   43.1004,   41.8826,   41.5772,   44.2340,   46.0225,   46.8166,   46.9466,   45.5314,   45.8484,   45.5686,   44.4765,   45.3609,   45.9651,   47.4128,   47.5242,   49.3839,   50.2686,   51.5215,   52.5990,   53.4929,   53.4398,   53.0467,   53.6448,   53.2510,   52.9749,   53.3368,   52.6713,   52.0552,   51.3144,   50.2874,
  3-NOV-1996 04:25:35.50,    5.2392,  999.0000,  999.0000,    1.9889,    2.1540,  999.0000,  999.0000,  999.0000,  999.0000,  999.0000,  999.0000,  999.0000,  999.0000,  999.0000,   22.4044,   23.0329,   23.4311,   24.2829,  999.0000,   26.1205,   25.9373,   26.7227,   26.7173,   27.1297,   28.5756,   30.0441,   31.8025,   32.3227,   32.4836,   33.7704,   33.3673,   33.7358,  999.0000,  999.0000,  999.0000,   42.6187,   41.4473,   42.1923,   44.3573,   46.7393,   47.2698,   46.5319,   46.6625,   46.9213,   46.2435,   47.5488,   47.7665,   46.7398,   46.5590,   47.1532,   47.3595,   47.9657,   49.9649,   50.6023,   50.2693,   49.8674,   50.4416,   52.3504,   53.7710,  999.0000,   53.3652,   52.9293,   53.4667,   53.9612,   54.7036,
  3-NOV-1996 04:30:06.52,    5.3883,  999.0000,    1.2662,    0.7018,    1.0313,    1.0989,  999.0000,  999.0000,  999.0000,  999.0000,  999.0000,  999.0000,   20.5316,   22.3689,   22.4728,   22.3447,   23.0498,   23.9636,   25.1662,   25.8382,  999.0000,  999.0000,  999.0000,  999.0000,   27.7128,   28.9253,   31.2395,   31.4674,  999.0000,   33.8780,   33.5865,   35.5691,  999.0000,  999.0000,  999.0000,   42.7100,   41.3275,   41.6832,   46.0185,  999.0000,   47.1020,   46.7045,   46.1783,   47.3327,   46.8210,   46.6095,   47.1698,   45.7022,  999.0000,  999.0000,   49.0421,   49.7809,   51.2034,   51.2343,   50.1732,   50.2376,   50.1790,   49.8310,   51.3358,   52.1084,   53.3125,   54.0354,   53.0017,   52.3470,   52.2508,
  3-NOV-1996 04:34:38.29,    5.2708,  999.0000,    2.7562,    2.2070,    1.5015,    3.3283,    5.0052,    5.4983,  999.0000,  999.0000,  999.0000,  999.0000,   19.7678,   20.9752,  999.0000,  999.0000,   22.8831,   23.6575,   24.6545,   24.6747,  999.0000,  999.0000,  999.0000,   26.7052,   27.7466,   30.0718,   32.1054,   33.4117,   32.9776,   34.4174,   34.4706,   37.5993,   39.6982,   42.5089,   45.2222,  999.0000,   41.3998,   43.1065,   44.9921,  999.0000,   46.8134,   47.4867,   47.7749,   47.5908,   46.8056,   45.9011,   46.5841,   46.4808,   45.5987,   46.8325,   48.5534,   50.6710,   52.2231,   51.3734,   51.4718,   52.3351,   51.7726,   51.1880,   51.8367,   51.2646,   50.8926,   49.8446,   49.7404,   49.9290,   50.2412,
  3-NOV-1996 04:39:08.72,    4.7521,  999.0000,    0.8147,   -0.5215,   -0.5371,  999.0000,  999.0000,  999.0000,  999.0000,  999.0000,  999.0000,  999.0000,  999.0000,  999.0000,  999.0000,   20.7276,   22.0337,   23.3098,  999.0000,  999.0000,  999.0000,  999.0000,  999.0000,  999.0000,  999.0000,   30.6607,   31.5584,   32.6814,   33.0167,   34.7281,   35.9013,   37.7998,   40.5355,  999.0000,   43.8445,   42.4107,   41.6001,   42.8368,  999.0000,   45.2931,   45.7259,   46.6837,   46.7106,   46.5759,   46.6694,   46.5890,   46.7085,   46.5062,   46.4657,   47.9685,   48.2857,   49.1313,   51.0082,   50.6289,   50.1813,   51.7068,   52.1661,   52.5822,   51.3997,   50.2153,   50.7579,   51.3154,   52.7154,   53.3923,   52.5091,
  3-NOV-1996 04:43:38.43,    4.8315,    4.7044,  999.0000,    2.6296,    2.3539,    2.7753,  999.0000,  999.0000,  999.0000,  999.0000,  999.0000,  999.0000,  999.0000,  999.0000,  999.0000,  999.0000,  999.0000,   23.9133,   22.7323,  999.0000,  999.0000,  999.0000,  999.0000,  999.0000,   29.3214,   31.0145,   32.5401,   31.8145,   33.2448,   35.8472,   36.7949,   38.6022,  999.0000,  999.0000,  999.0000,  999.0000,   42.6645,   43.1962,   43.9325,   44.8626,   44.2284,   47.8218,   45.7715,   45.4184,   45.2193,   44.8508,   46.2921,   46.2417,   46.4111,   47.7512,   49.1339,   50.3117,   51.3668,   51.5490,   50.5081,   50.2493,   50.1711,   50.7710,   50.8940,   50.6482,   51.4081,   52.3126,   53.5041,   53.3299,   51.8727,
  3-NOV-1996 04:48:07.85,    2.6771,    2.7746,  999.0000,    0.6828,    0.5559,    2.1679,    3.2761,  999.0000,  999.0000,  999.0000,  999.0000,  999.0000,  999.0000,   20.3084,   21.1186,   22.5643,   22.8250,  999.0000,  999.0000,  999.0000,  999.0000,   23.5068,   24.7362,   27.1506,   28.9229,   30.8131,   31.4145,   31.6590,   33.1387,   34.4616,   36.1560,   37.4659,   40.2541,   44.5786,   46.3531,   45.0304,   43.3628,   43.1813,   44.3705,  999.0000,   45.1635,   45.8791,   45.9582,   46.3707,   45.4776,   44.8974,   45.1992,   44.5501,   45.2608,   46.6059,   46.6687,   48.3195,   50.8390,   51.0734,   51.3057,   51.7348,   51.4627,   51.1893,   50.3772,   49.7223,   50.7262,   53.2206,   54.2542,   52.7173,   52.3251,
  3-NOV-1996 04:52:37.55,    2.4568,    2.7116,  999.0000,    1.0239,    0.7404,    1.9816,  999.0000,  999.0000,  999.0000,  999.0000,  999.0000,   18.4480,   19.9529,   20.1757,  999.0000,  999.0000,   22.8032,   20.5448,  999.0000,  999.0000,  999.0000,  999.0000,  999.0000,   26.6775,   27.6287,   29.8735,   31.4934,   32.4280,   32.5862,   34.3561,   36.8448,   38.9927,   41.8817,  999.0000,   46.0767,   43.8501,   43.2180,   42.6884,   43.8582,   44.5577,   45.3611,   46.2205,   46.4088,   46.3612,   45.2103,   45.2860,   45.2563,   45.0865,   45.9866,   48.4030,   48.6617,   49.8504,   52.1127,   51.6738,   50.6898,   50.9134,   49.9871,   49.7790,   49.4571,   50.5181,   51.0703,   51.3543,   51.4648,   52.8467,   52.2824,
  3-NOV-1996 04:57:08.08,    2.0259,    1.9851,    1.2093,    0.6762,    0.7536,    0.9160,  999.0000,  999.0000,  999.0000,  999.0000,  999.0000,   16.5026,   18.3694,  999.0000,  999.0000,  999.0000,  999.0000,    4.4513,    3.3508,    2.5727,  999.0000,  999.0000,  999.0000,   27.0115,   27.8651,   30.1265,   30.2672,  999.0000,   32.5348,  999.0000,   35.2487,   38.7727,   42.1787,   45.2870,   44.0933,   43.1842,   42.9863,   42.1543,   43.8300,   43.2692,   45.0488,   45.5618,   45.9682,   46.4590,   44.5681,   45.3437,   44.9928,  999.0000,   45.9964,   48.5007,   48.6463,   49.7398,  999.0000,  999.0000,  999.0000,   48.8246,   48.6244,   50.9585,   50.7975,   50.4104,   50.5650,   51.3365,   51.0553,   51.0943,   52.0448,
  3-NOV-1996 05:01:38.14,    3.8800,    4.1566,  999.0000,  999.0000,  999.0000,  999.0000,  999.0000,  999.0000,  999.0000,  999.0000,  999.0000,  999.0000,   21.0840,   22.3032,  999.0000,  999.0000,   23.4975,   24.5650,   25.6278,   26.0661,  999.0000,  999.0000,  999.0000,   26.3199,   27.9305,   29.9291,   29.7033,  999.0000,   31.7283,   32.5066,   34.8753,   37.9260,   42.0695,  999.0000,   43.0421,   42.8065,   42.7619,   42.5507,   44.6173,   45.5584,   45.0233,   44.5831,  999.0000,   46.1335,   45.9882,   47.6710,  999.0000,  999.0000,   47.9868,   49.2061,   50.3874,   51.2992,   51.0433,   50.1146,  999.0000,  999.0000,   50.6274,   49.4896,   49.3363,   48.9934,   48.8942,   50.5457,   51.3439,   50.7048,   50.9964,
  3-NOV-1996 05:06:09.73,    1.7165,    2.5334,    2.7198,  999.0000,  999.0000,  999.0000,  999.0000,  999.0000,  999.0000,  999.0000,  999.0000,  999.0000,   21.0591,   21.8127,   21.7120,   22.7936,   23.9067,   25.3737,   26.9591,   26.4976,  999.0000,  999.0000,  999.0000,   27.1594,   27.4908,   29.2388,   29.8186,   29.9741,   30.7658,  999.0000,   34.6930,   38.1411,   42.6004,   44.7275,   44.3444,   43.3669,  999.0000,  999.0000,  999.0000,   45.0361,   45.2254,   44.9224,   44.3517,   45.2773,  999.0000,   45.9787,  999.0000,   47.6392,   49.7301,   51.3842,   51.6321,   50.4748,   49.6815,   50.7991,   51.0741,   51.9286,   52.0724,   50.3360,   49.7443,   50.5282,   51.2639,   52.4497,   51.1356,   49.5203,   49.9642,
  3-NOV-1996 05:10:40.20,    0.5724,    1.4147,    1.0425,    0.7856,    1.5315,  999.0000,  999.0000,  999.0000,   10.1857,   10.6867,  999.0000,  999.0000,   19.6653,   20.3301,   20.9922,   22.5185,   23.3640,   24.2943,  999.0000,  999.0000,  999.0000,  999.0000,  999.0000,  999.0000,   28.0975,   29.9254,   29.5340,  999.0000,   31.2033,  999.0000,   35.1913,   38.3750,   41.8206,  999.0000,   44.5982,   42.5195,   42.6442,   43.3030,   43.7890,   43.9693,   43.9512,   43.7888,   43.4788,   42.7337,   44.3239,   44.5193,   45.4378,   47.6625,   48.0940,   48.9440,   50.6100,   52.1118,   52.3615,   51.7193,   51.3252,  999.0000,  999.0000,   49.2903,   49.3728,   49.5941,  999.0000,   51.5362,   51.7901,   50.7907,   50.0458,
  3-NOV-1996 05:15:10.46,   -1.0274,   -1.1650,    0.1951,    0.6347,    1.5376,  999.0000,  999.0000,  999.0000,  999.0000,   10.1191,   12.0341,  999.0000,   19.5926,   21.3912,   22.5342,  999.0000,   23.4536,   25.0786,   26.9054,   27.4162,  999.0000,  999.0000,  999.0000,   28.0397,   27.9515,   30.4346,  999.0000,   30.8805,   31.4788,  999.0000,   36.6795,   39.3034,   43.6409,  999.0000,   45.5311,   43.6417,   43.0650,  999.0000,  999.0000,   45.4622,   44.0751,   44.5531,   44.4916,   44.2769,  999.0000,   45.6495,   46.3100,   48.0795,  999.0000,   50.1694,   49.7096,   49.9496,   49.3064,   49.9465,   50.8061,   51.1316,   51.3672,  999.0000,  999.0000,   50.9536,   50.8293,   50.5385,   49.8827,   50.8829,  999.0000,
  3-NOV-1996 05:19:40.99,    3.0018,  999.0000,    1.0865,    0.6737,    1.8703,    2.7438,  999.0000,  999.0000,  999.0000,  999.0000,  999.0000,  999.0000,   18.6058,   20.6063,  999.0000,   22.7383,   23.4229,  999.0000,  999.0000,  999.0000,  999.0000,  999.0000,  999.0000,  999.0000,  999.0000,  999.0000,  999.0000,  999.0000,  999.0000,  999.0000,  999.0000,  999.0000,  999.0000,   46.1899,  999.0000,   43.1092,  999.0000,   44.8182,   46.1134,   46.2467,   44.5539,   44.0950,   43.8270,  999.0000,  999.0000,   49.2382,  999.0000,  999.0000,  999.0000,   50.9892,   49.8491,   49.0249,   48.0094,   47.7529,   47.9815,   48.4420,   48.9928,   49.7436,   49.7950,   50.0858,   50.9830,   52.2130,   52.5171,  999.0000,   54.0364,
  3-NOV-1996 05:24:10.32,    2.3325,  999.0000,    1.0722,    1.3758,    2.2136,    3.1037,    4.8653,  999.0000,  999.0000,  999.0000,  999.0000,  999.0000,  999.0000,   21.4242,   21.7276,   22.7842,   23.5297,   24.6623,  999.0000,  999.0000,  999.0000,  999.0000,  999.0000,  999.0000,   29.7081,   30.3833,   28.5461,   29.2630,  999.0000,   29.9588,  999.0000,  999.0000,  999.0000,  999.0000,   44.9398,   44.0334,   44.0452,   46.0206,   46.5132,  999.0000,   44.8974,   44.5827,   43.6678,   45.0883,  999.0000,   46.9704,  999.0000,  999.0000,  999.0000,  999.0000,   48.1295,   48.6503,   48.9303,   49.8153,   49.5257,   48.5438,   48.9494,   49.2464,   48.6157,   50.0137,   51.5662,   52.3714,   52.8295,   51.6253,  999.0000,
  3-NOV-1996 05:28:41.23,    0.8073,    0.9005,  999.0000,  999.0000,  999.0000,  999.0000,  999.0000,  999.0000,  999.0000,  999.0000,  999.0000,  999.0000,  999.0000,  999.0000,  999.0000,  999.0000,   24.2023,   25.2874,   26.0354,   26.9327,  999.0000,  999.0000,  999.0000,   27.9353,   30.8317,   31.4730,   30.5734,  999.0000,  999.0000,   33.3115,   34.8409,   37.5094,  999.0000,  999.0000,   44.1028,  999.0000,  999.0000,  999.0000,  999.0000,  999.0000,   45.9252,   45.6356,   44.3614,   44.8390,  999.0000,  999.0000,   48.5456,  999.0000,   49.5329,   50.2106,   49.7438,   50.2160,   50.5071,   50.2298,   49.7267,   49.6949,   50.1544,   50.5016,   50.2020,   50.8066,   51.5019,   51.9142,   52.4325,  999.0000,  999.0000,
  3-NOV-1996 05:33:11.56,    1.2871,    1.7372,    1.2913,    0.5215,    1.5022,    2.5727,  999.0000,  999.0000,  999.0000,  999.0000,  999.0000,  999.0000,   19.8082,   21.4069,  999.0000,  999.0000,   24.1969,   25.4348,  999.0000,  999.0000,  999.0000,  999.0000,  999.0000,   28.1963,   29.9458,   29.9809,   29.1068,   29.0677,   30.8873,   31.9015,   34.5818,   37.8642,   41.8342,  999.0000,   46.1601,  999.0000,   44.3199,   45.8897,   47.3337,   47.9257,   45.7130,   44.2893,   44.2393,   46.5001,  999.0000,  999.0000,  999.0000,  999.0000,   50.5259,   50.2138,   50.3534,   49.8380,   50.5713,   50.2021,   49.8091,   49.9591,   50.5476,   51.0832,   51.6212,  999.0000,   53.2769,   52.9300,   52.6499,   53.9044,  999.0000,
  3-NOV-1996 05:37:42.50,    0.4364,    0.9354,    1.2258,    1.0226,    0.7393,    1.3566,    2.7774,  999.0000,  999.0000,  999.0000,  999.0000,  999.0000,  999.0000,  999.0000,  999.0000,  999.0000,  999.0000,  999.0000,   26.7726,   27.1635,  999.0000,  999.0000,  999.0000,   28.9863,   28.8290,   29.7035,   28.9971,   29.8174,   32.1705,   32.1282,   34.1369,   37.7512,   42.7313,  999.0000,   44.1883,  999.0000,  999.0000,  999.0000,   46.4035,   47.2400,   47.7121,   47.6096,  999.0000,   44.8625,   44.4915,  999.0000,   46.8957,   49.3652,   50.6448,   51.4716,   50.6801,   50.8749,   50.3356,   50.4221,   50.6373,   51.0420,   52.2008,   52.8320,   52.0190,   52.1962,   53.3463,   51.6816,   50.2384,  999.0000,  999.0000,
  3-NOV-1996 05:42:13.78,    1.3344,    1.4107,    1.6054,    0.9915,    2.2443,    2.7083,  999.0000,  999.0000,  999.0000,  999.0000,  999.0000,  999.0000,   19.6105,   21.3476,  999.0000,   23.7839,   24.4140,  999.0000,  999.0000,  999.0000,  999.0000,  999.0000,  999.0000,   30.1093,   30.5726,   29.5510,   28.8278,   29.9051,  999.0000,  999.0000,   35.1465,   38.6713,   43.8212,  999.0000,   43.9639,   43.4032,   44.4486,   45.7531,   45.9889,   47.3954,   47.3771,  999.0000,   46.7137,   48.3848,  999.0000,  999.0000,   47.3039,   50.4411,   52.1983,   51.6392,   49.8729,   50.2663,   49.4833,   48.5684,   49.0633,   50.4009,  999.0000,   51.4458,  999.0000,   51.1647,   52.4558,   51.6249,  999.0000,   51.0725,  999.0000,
  3-NOV-1996 05:46:44.06,    2.3944,    2.2585,  999.0000,   -0.1753,    0.7540,    2.1199,    3.0276,  999.0000,    6.0736,    7.0437,    8.5957,  999.0000,  999.0000,   20.6727,   22.4841,   23.6679,  999.0000,  999.0000,  999.0000,  999.0000,  999.0000,  999.0000,  999.0000,   30.3362,   30.1834,   30.2121,   30.9647,   30.0371,   30.8137,  999.0000,  999.0000,  999.0000,   43.0708,  999.0000,   43.5306,   43.8196,   45.2968,   45.2764,   46.6514,  999.0000,  999.0000,   47.9082,   49.0131,   48.7751,   47.8442,   46.7658,  999.0000,   50.4632,   51.6768,   50.7156,   50.4412,   50.9641,   50.0878,   48.8010,   49.5450,   50.3705,   51.0611,   50.6320,   51.1129,   52.2396,   52.2205,   51.4066,  999.0000,   52.6727,   56.5889,
  3-NOV-1996 05:51:14.92,    0.6801,    1.0771,    0.6275,    0.8558,    1.4702,    2.6027,    3.1769,  999.0000,  999.0000,  999.0000,  999.0000,  999.0000,  999.0000,  999.0000,  999.0000,   23.2178,   24.4419,   26.0685,   26.4709,   27.5203,   27.7248,  999.0000,  999.0000,   29.8570,   30.2982,  999.0000,  999.0000,   31.9401,  999.0000,  999.0000,  999.0000,   38.5560,  999.0000,  999.0000,  999.0000,   43.6833,   45.5501,   45.9382,   46.2815,  999.0000,   46.5154,   48.1277,   48.4545,   49.3659,   48.8947,   47.5061,  999.0000,  999.0000,  999.0000,  999.0000,   51.5123,   51.9291,   50.4979,   50.7161,   51.5494,   51.1157,   50.9899,   51.3435,   51.7875,   52.3506,  999.0000,   52.1729,   53.5033,  999.0000,   57.1438,
  3-NOV-1996 05:55:45.71,    0.7893,  999.0000,   -2.0473,   -0.7169,    0.6529,    2.6888,    3.2345,  999.0000,    7.5616,    8.1706,  999.0000,  999.0000,  999.0000,  999.0000,  999.0000,  999.0000,  999.0000,  999.0000,  999.0000,  999.0000,  999.0000,  999.0000,  999.0000,   29.6767,   30.3479,   30.7233,  999.0000,   32.4375,   34.3091,   34.4933,   34.4227,  999.0000,  999.0000,   44.2214,   44.4260,   44.2639,   44.0268,   43.1287,   44.1652,   45.0831,   46.3323,   46.9973,  999.0000,   48.3164,  999.0000,   49.1868,   50.0710,   51.4107,   53.0637,   52.6674,   51.4116,   50.7533,   51.1289,   51.4612,   52.0209,   52.2413,   52.2490,   52.0991,   52.0876,   52.7636,   54.3424,   55.2813,  999.0000,   56.0285,   57.7079,
  3-NOV-1996 06:00:15.85,    0.5346,    0.5826,    0.9089,    1.2088,  999.0000,  999.0000,  999.0000,  999.0000,  999.0000,  999.0000,  999.0000,  999.0000,  999.0000,  999.0000,  999.0000,  999.0000,  999.0000,  999.0000,  999.0000,  999.0000,  999.0000,  999.0000,  999.0000,   29.4642,   30.4177,   29.8207,   29.9628,   31.4036,   33.2300,   33.3213,   33.5902,   36.7136,  999.0000,   43.6576,  999.0000,   44.9417,   44.5649,   43.9466,   42.6536,   43.7962,   45.1857,   47.1546,   48.2286,   47.0584,   48.0928,   48.9546,   49.6289,   50.8273,   51.6569,   51.4767,   51.2225,   51.2694,   51.4356,   50.9327,   50.6844,   51.3935,   51.3918,   50.9061,   50.7955,   51.7808,   52.3229,   51.7906,   52.4286,   56.1305,   58.2430,
  3-NOV-1996 06:04:46.37,    0.6626,    0.3657,    1.0402,  999.0000,  999.0000,  999.0000,  999.0000,  999.0000,  999.0000,  999.0000,  999.0000,  999.0000,  999.0000,   22.3166,   23.8325,   24.3678,  999.0000,   25.9541,   27.4021,  999.0000,  999.0000,  999.0000,  999.0000,   30.1318,   30.8123,   31.6493,  999.0000,   33.1269,   34.2167,   34.3538,   34.1109,   36.5151,   41.0911,   44.4190,   46.0755,   45.7784,   45.5283,   44.6892,  999.0000,   43.0929,   45.1498,   47.0023,   47.0962,   47.1046,   47.6617,   47.8385,   48.7969,   49.5585,   50.4671,   52.2563,   51.7196,   50.9943,   51.4019,   51.6386,   51.5199,   51.9988,   52.6132,   52.7873,   52.6820,   52.3400,   52.3083,  999.0000,  999.0000,  999.0000,   55.2988,
  3-NOV-1996 06:09:16.58,    0.6965,    0.4598,    1.2898,    3.0064,  999.0000,    3.6640,  999.0000,  999.0000,  999.0000,  999.0000,  999.0000,   16.8103,   17.7389,  999.0000,   22.3502,   22.9572,   23.7427,  999.0000,  999.0000,   25.9729,   26.9633,  999.0000,  999.0000,  999.0000,  999.0000,   31.5410,   31.1000,   33.3881,   35.3628,   35.0701,  999.0000,  999.0000,   40.9715,   44.0985,   46.1017,   45.9750,   46.2353,   45.0997,  999.0000,   43.7512,   46.0979,   47.2542,   48.0349,   47.7123,   47.6507,   48.2686,   48.4500,   49.4366,   50.6317,   52.6322,   52.1657,   51.9268,   52.2135,   51.9453,   51.8631,   51.7012,   51.7649,   51.5475,   51.5117,   51.9360,   50.9511,   52.1385,   52.0339,   54.7315,   54.7941,
  3-NOV-1996 06:13:46.87,    0.9808,    1.1254,    2.8780,    4.2672,    5.0435,    5.2236,    5.0913,  999.0000,  999.0000,  999.0000,  999.0000,  999.0000,  999.0000,   21.8107,   22.4524,   22.9505,   23.8190,   24.5192,  999.0000,   26.4617,   27.6125,   28.4506,  999.0000,   30.7230,   31.0135,   30.8498,   32.2457,   33.9547,   34.4645,  999.0000,   33.7246,   35.5128,   38.7591,   42.4707,   44.7746,   45.0498,  999.0000,  999.0000,   42.6191,   45.3585,   47.0843,   47.8172,   46.7679,   46.6666,   47.9835,   48.6273,   47.5727,   48.9205,   51.1694,   52.7394,   51.8299,   51.2677,   51.8675,   51.9188,   52.0841,   51.8530,   52.1376,   51.8200,   52.1158,   51.4850,   51.8001,   53.2642,  999.0000,  999.0000,   56.3231,
  3-NOV-1996 06:18:17.04,    0.8199,    1.2209,  999.0000,    4.7209,    5.2710,    5.3550,  999.0000,  999.0000,  999.0000,  999.0000,  999.0000,   17.1682,   18.8487,   21.7217,   23.2958,   23.5731,   24.4065,   25.2783,   26.9555,   28.0732,   27.9758,  999.0000,  999.0000,   30.7275,  999.0000,   31.4161,   32.7603,   33.3263,   34.3931,   35.2187,  999.0000,   36.9835,   40.3807,   43.6802,   45.3587,  999.0000,   45.7397,  999.0000,  999.0000,   46.2296,   46.1364,   47.0756,   47.9972,   48.2030,   47.8681,   46.2077,  999.0000,   49.8346,   51.8024,   52.3280,   52.1291,   51.4266,   51.0200,   50.6252,   50.3774,   49.7740,   50.1095,   50.7887,   50.2254,   50.0104,   50.3764,   51.5045,   52.1764,   54.1238,   53.9169,
  3-NOV-1996 06:22:47.99,    0.9006,    1.8229,    3.5783,    4.8956,    5.2842,    5.3372,  999.0000,  999.0000,  999.0000,  999.0000,  999.0000,  999.0000,  999.0000,   22.6278,   23.5001,   24.0244,  999.0000,  999.0000,   26.7918,   27.9874,   27.8282,  999.0000,  999.0000,   29.6905,  999.0000,   29.4786,   31.0738,   32.0587,   32.8410,   33.7250,  999.0000,   35.1469,   38.8875,   42.9960,   45.3472,  999.0000,   43.3883,  999.0000,   44.2250,  999.0000,  999.0000,   47.7445,   47.7072,   47.3445,   46.4923,   47.0091,   47.9669,   50.3512,   52.5544,   52.5004,   51.3046,   51.0345,   50.9517,   50.7271,   51.2977,   50.8882,   51.7416,   50.7790,   49.8787,   50.3168,   51.0209,  999.0000,  999.0000,   53.7502,   53.4166,
  3-NOV-1996 06:27:19.16,    0.8267,  999.0000,  999.0000,  999.0000,  999.0000,  999.0000,  999.0000,  999.0000,  999.0000,  999.0000,  999.0000,  999.0000,  999.0000,   22.0065,   23.6945,   24.6614,   25.0842,   25.2042,   25.3722,   26.8918,   28.5125,   28.1251,   28.5337,   29.0060,   28.3087,   29.4512,   31.0570,   32.0132,   31.7587,   32.8466,  999.0000,  999.0000,  999.0000,  999.0000,   44.1941,  999.0000,   42.6572,  999.0000,   43.6889,   44.6982,   46.9634,   48.2447,   47.1862,   46.3956,   46.3777,   46.9371,   48.0486,  999.0000,  999.0000,  999.0000,  999.0000,   51.8748,   52.6913,  999.0000,   50.9164,   51.3948,   51.4647,   50.9159,   51.7648,   51.7732,   52.8219,   53.9268,   52.2945,   53.1246,   54.9686,
  3-NOV-1996 06:31:49.21,   -0.2155,  999.0000,    3.9308,    4.6277,    4.8651,    4.7155,    5.3627,    5.5023,  999.0000,  999.0000,  999.0000,  999.0000,  999.0000,  999.0000,   24.4124,   25.4724,   26.2666,   26.2852,  999.0000,   27.3378,   28.1648,   27.8085,  999.0000,   28.4531,   28.9009,   29.7880,  999.0000,  999.0000,   32.0051,   32.5535,  999.0000,   34.1332,   38.0301,   42.0647,  999.0000,   46.2037,   43.6265,   42.2151,   43.0085,   44.4208,   46.0418,   47.5983,  999.0000,   46.0787,   45.1848,   46.1694,   47.7219,  999.0000,   51.8548,   51.7747,   51.9586,   51.7189,   53.6473,   53.1422,   51.8745,   52.4743,   52.2087,   51.6366,   52.5162,   51.5909,   52.4635,  999.0000,   52.5897,   52.6794,   55.3065,
  3-NOV-1996 06:36:18.60,   -2.1777,  999.0000,  999.0000,    3.8684,    4.8362,  999.0000,  999.0000,  999.0000,  999.0000,  999.0000,  999.0000,  999.0000,  999.0000,   22.8247,   24.1062,   25.0542,  999.0000,   26.6532,   27.0835,  999.0000,  999.0000,  999.0000,  999.0000,   28.7167,   28.2936,   29.5840,   30.9587,   31.6148,   32.4626,  999.0000,  999.0000,   33.7829,   36.9187,   41.3216,   44.6084,  999.0000,   43.7172,   42.5835,   43.2115,   44.8010,   46.3667,   47.3686,   46.9292,   47.4269,   47.3581,   46.4916,   47.1208,  999.0000,  999.0000,   52.9331,   53.3080,   52.5535,   52.6805,   51.5427,   51.2178,   51.8227,   51.9961,   51.7647,   52.2108,   51.7744,   51.3074,   51.9012,   52.3024,   52.3330,   54.3917,
  3-NOV-1996 06:40:48.19,    0.2179,    2.2246,    4.0280,    4.9561,    5.0358,  999.0000,  999.0000,  999.0000,  999.0000,  999.0000,  999.0000,  999.0000,  999.0000,   22.1936,   23.6447,   24.8970,   25.7949,  999.0000,  999.0000,   26.2414,   26.3887,  999.0000,  999.0000,   29.7450,   28.7168,   30.1134,   31.3592,  999.0000,   33.3525,   34.4994,   32.9873,  999.0000,   37.6660,   41.8481,   44.9520,  999.0000,   43.1478,  999.0000,   44.2093,   44.9552,   46.3543,   46.5098,   47.3397,   47.2582,   47.5076,   46.3992,   47.3840,   49.8461,   51.7104,   52.4596,   52.1304,   51.9922,   52.4482,   52.6451,   52.7322,   53.4998,   53.4787,   52.6630,   52.1953,   52.5383,   53.5954,   53.9226,   53.0464,  999.0000,  999.0000,
  3-NOV-1996 06:45:18.03,  999.0000,  999.0000,    2.7269,    3.5606,    3.0906,    3.0127,  999.0000,  999.0000,  999.0000,  999.0000,  999.0000,  999.0000,  999.0000,   22.3818,   23.2905,   24.0381,  999.0000,  999.0000,  999.0000,  999.0000,  999.0000,  999.0000,  999.0000,   29.3006,   28.7028,   30.2261,   30.7551,  999.0000,   33.1747,  999.0000,  999.0000,  999.0000,  999.0000,  999.0000,  999.0000,  999.0000,   43.5947,  999.0000,   43.5413,   43.9179,   44.5767,   44.4953,   44.9225,   46.7686,   47.1485,   45.7126,   46.8344,   49.8338,  999.0000,   52.1605,  999.0000,   51.5049,   53.2205,   54.1991,   53.3898,   53.5755,   54.5317,   54.6475,   54.0731,   53.7588,   54.0642,   53.6780,   53.8000,   54.5955,  999.0000,
  3-NOV-1996 06:49:47.55,    1.0306,    2.2542,    2.8007,    4.2967,  999.0000,  999.0000,    5.4344,    5.4678,  999.0000,  999.0000,  999.0000,  999.0000,  999.0000,   21.9893,   23.3073,  999.0000,  999.0000,  999.0000,  999.0000,  999.0000,  999.0000,  999.0000,  999.0000,   29.3230,   28.1663,   29.8944,   30.6852,  999.0000,  999.0000,  999.0000,  999.0000,   33.2538,   36.5399,   40.5510,   43.7806,  999.0000,   43.3246,  999.0000,   42.5436,  999.0000,   43.4081,   44.0596,   45.3052,   46.9080,   46.6728,  999.0000,   46.2503,   50.1265,   51.9321,   52.2621,   51.8170,   52.5102,   52.7483,  999.0000,  999.0000,  999.0000,   53.0888,   52.6404,   53.0984,   52.7092,   52.4481,   53.6004,   52.7153,   53.1969,  999.0000,
  3-NOV-1996 06:54:17.85,    2.3161,  999.0000,  999.0000,  999.0000,    3.9973,    4.2842,  999.0000,  999.0000,  999.0000,  999.0000,  999.0000,  999.0000,  999.0000,  999.0000,   23.4790,   24.0299,   23.9308,   25.5217,  999.0000,  999.0000,  999.0000,  999.0000,  999.0000,   29.4364,   28.4360,   30.1293,   30.9965,  999.0000,   33.2577,   34.4794,   33.4358,  999.0000,  999.0000,   40.8679,  999.0000,  999.0000,  999.0000,   41.7056,   43.0584,   45.5599,   46.2589,   44.9350,   45.2380,   46.6827,   45.8994,   45.5325,   47.1853,   50.9086,   51.9990,   52.4661,   52.5324,   52.5394,   52.8551,   53.2271,  999.0000,  999.0000,  999.0000,  999.0000,  999.0000,  999.0000,  999.0000,   46.1168,   46.5564,  999.0000,   54.0472,
  3-NOV-1996 06:58:48.42,    1.5225,    2.0365,    2.3796,    1.3764,    2.5256,    3.0898,  999.0000,  999.0000,  999.0000,  999.0000,  999.0000,  999.0000,   19.7504,  999.0000,  999.0000,  999.0000,  999.0000,  999.0000,   26.5706,   26.0307,  999.0000,  999.0000,  999.0000,  999.0000,   28.1978,   30.0768,   29.7665,   30.7124,  999.0000,  999.0000,  999.0000,   33.3555,   37.2064,   42.4060,  999.0000,  999.0000,   43.8528,  999.0000,   42.7099,   43.7628,   44.4612,   44.4774,   45.6221,   46.1806,   45.3408,   44.7271,   44.7479,  999.0000,  999.0000,   50.1240,   50.4372,   50.2350,   50.0262,   50.4660,   51.1836,   52.9380,   54.1491,   53.8608,   54.5249,   54.7394,  999.0000,   55.0363,   54.2513,  999.0000,   56.6897,
  3-NOV-1996 07:03:18.02,    3.5931,    3.7856,    3.6875,    4.5452,    4.8343,    4.6419,    5.3073,  999.0000,    7.9232,    9.4952,  999.0000,  999.0000,  999.0000,  999.0000,  999.0000,  999.0000,  999.0000,  999.0000,  999.0000,  999.0000,  999.0000,  999.0000,  999.0000,  999.0000,   28.2478,   29.8720,   29.3593,   30.9265,  999.0000,  999.0000,  999.0000,  999.0000,  999.0000,  999.0000,  999.0000,  999.0000,  999.0000,  999.0000,  999.0000,   44.1016,   44.2104,   45.2338,  999.0000,   46.7957,  999.0000,  999.0000,  999.0000,  999.0000,   51.2130,   50.9537,   51.2234,   51.2662,   50.5501,   51.0747,   51.3418,   51.3230,   52.3640,   53.0268,   53.8580,  999.0000,   52.1810,   52.3176,   53.2447,   52.9310,   54.8323,
  3-NOV-1996 07:07:47.83,    2.6929,    3.0772,    3.3215,    3.3917,    2.9563,    2.5375,  999.0000,  999.0000,  999.0000,  999.0000,  999.0000,  999.0000,  999.0000,  999.0000,   23.5893,   23.7507,   24.5006,  999.0000,  999.0000,  999.0000,  999.0000,  999.0000,  999.0000,  999.0000,   28.8600,   30.7565,   31.5509,  999.0000,   33.6906,  999.0000,  999.0000,  999.0000,   36.3631,   40.3903,   44.1098,  999.0000,  999.0000,  999.0000,   44.9949,   45.5138,   45.4148,   46.4712,   46.8752,   47.4056,   45.8077,  999.0000,   45.6034,   49.6464,   51.2175,   51.8395,   51.6041,   51.0692,   51.8948,   52.1420,   51.6756,   51.3383,   52.2339,   52.1947,   51.4890,   50.9133,   51.1000,   50.8594,   50.1722,   50.6361,   53.7544,
  3-NOV-1996 07:12:17.84,    2.4217,    3.0386,    3.5129,    2.8595,    2.0327,    0.5909,  999.0000,  999.0000,  999.0000,  999.0000,  999.0000,  999.0000,  999.0000,   22.5642,   23.1728,   23.7506,   24.9002,  999.0000,  999.0000,  999.0000,  999.0000,  999.0000,  999.0000,   27.6578,   28.8546,  999.0000,   29.9142,  999.0000,   34.1176,   34.7492,   33.8229,  999.0000,  999.0000,  999.0000,  999.0000,  999.0000,  999.0000,  999.0000,   45.0422,   45.9728,   47.3306,   47.9974,   48.4670,   48.3178,   45.4896,  999.0000,   47.4188,   50.4706,   52.9531,   53.3103,   51.5199,   51.5829,   51.7067,   51.5486,   50.8567,   49.6251,   49.2933,   49.5037,   48.6670,   47.2747,   48.2603,   49.8205,   50.4052,   51.7657,  999.0000,
  3-NOV-1996 07:16:51.57,    1.5076,    1.9690,    2.4778,    3.2896,    2.7904,  999.0000,  999.0000,  999.0000,  999.0000,  999.0000,  999.0000,  999.0000,  999.0000,  999.0000,  999.0000,  999.0000,  999.0000,  999.0000,  999.0000,  999.0000,  999.0000,  999.0000,  999.0000,  999.0000,   30.1690,   32.0572,   32.0712,  999.0000,   35.0189,  999.0000,   35.7757,   36.3920,  999.0000,   41.4926,  999.0000,   44.4601,  999.0000,   44.1565,   45.8843,   46.4327,   47.5796,   47.5743,   47.3266,   47.4631,   45.9712,  999.0000,   47.0164,   50.2931,   51.5718,   51.1146,   49.8299,   49.8988,   50.2311,   50.0233,   50.1292,   50.8307,   51.1354,   50.4770,   49.9802,   50.3887,   50.7476,   50.4308,   49.4703,   48.8872,   50.0102,
  3-NOV-1996 07:21:22.03,    2.5413,    2.9256,    3.8511,    3.9734,  999.0000,  999.0000,    4.6000,    5.2834,  999.0000,  999.0000,  999.0000,  999.0000,  999.0000,  999.0000,   23.8128,   24.9318,  999.0000,  999.0000,  999.0000,  999.0000,   27.3827,   28.6942,  999.0000,   29.1249,   30.1613,   31.4919,   32.5695,  999.0000,   34.7662,   36.4078,   35.9546,   35.6720,  999.0000,   42.1356,  999.0000,   42.8352,   42.2008,   44.0104,   45.6539,   46.9409,   47.6668,   48.6247,   47.7476,   46.0786,   44.6888,   45.5067,   48.7189,   52.4552,  999.0000,   52.2023,   51.7107,   52.4747,   52.6716,   51.7619,   50.8433,   49.6642,   49.4477,   49.8573,   49.9857,   50.2913,   50.0617,   49.0908,   49.2030,   50.9275,   53.8973,
  3-NOV-1996 07:25:51.67,    2.6939,    2.6792,    3.1890,    3.2637,    2.5931,    1.2939,  999.0000,  999.0000,  999.0000,  999.0000,  999.0000,  999.0000,  999.0000,   22.7816,   23.5599,  999.0000,  999.0000,  999.0000,  999.0000,  999.0000,  999.0000,  999.0000,  999.0000,   28.5661,   29.7245,   30.6322,  999.0000,  999.0000,   34.5478,   35.0905,  999.0000,  999.0000,   36.2117,   40.8463,   44.4346,  999.0000,  999.0000,   43.1059,   44.7765,   46.5249,   45.8967,   47.1880,   46.7542,   44.5602,   44.4313,   47.2155,   49.8088,  999.0000,  999.0000,  999.0000,   51.2927,   50.8608,   50.1197,   50.2424,   49.6253,   48.0568,   47.5688,   47.9025,   48.3434,   49.1520,   49.5095,   49.8685,   51.4640,   52.6522,   54.0202,
  3-NOV-1996 07:30:21.24,    3.4082,    3.3609,    3.4476,    3.2310,    3.0794,    2.7511,  999.0000,  999.0000,  999.0000,  999.0000,  999.0000,  999.0000,  999.0000,   23.0917,   23.5998,   23.2008,   24.5208,   25.2712,  999.0000,  999.0000,  999.0000,  999.0000,  999.0000,  999.0000,   29.7334,   30.1421,   30.8464,   31.0825,   34.3195,   34.7789,   34.8916,  999.0000,   36.1756,   40.3499,   44.1216,  999.0000,  999.0000,   43.2164,   45.7041,  999.0000,   46.4126,   46.6498,   46.9734,  999.0000,   45.6446,   48.2633,   51.8975,   53.5168,   52.2306,   51.6613,   50.4426,   50.2358,   51.1168,   51.2495,   50.7562,   50.1126,   50.1983,   50.1839,   50.2480,   51.3921,   52.4735,   51.5074,   51.1931,   52.7562,   54.0126,
  3-NOV-1996 07:34:50.76,    3.8082,    4.4056,    4.7051,    4.8838,  999.0000,  999.0000,  999.0000,  999.0000,  999.0000,  999.0000,  999.0000,  999.0000,  999.0000,   23.1377,   24.0567,  999.0000,  999.0000,  999.0000,  999.0000,  999.0000,  999.0000,  999.0000,  999.0000,   27.5088,   29.2188,  999.0000,   30.4564,   30.3631,   32.8758,   34.6193,   34.0633,  999.0000,   35.8696,   39.5674,  999.0000,   43.9052,   42.5244,   43.2839,   45.8710,   47.7398,   47.1010,   45.0545,   45.4844,   46.4890,   48.0256,   49.8704,   52.8518,   53.2942,   51.7202,   51.7224,   51.5686,   51.7241,   51.7818,   51.4023,   51.4219,   51.2924,   51.1917,   51.0124,   51.0762,   51.3567,   52.0431,   53.5307,   53.4112,   53.4128,   54.0521,
  3-NOV-1996 07:39:20.10,    3.3353,    3.9936,    3.1670,    2.5856,    2.7551,  999.0000,  999.0000,  999.0000,  999.0000,  999.0000,  999.0000,  999.0000,  999.0000,  999.0000,  999.0000,  999.0000,  999.0000,  999.0000,  999.0000,  999.0000,  999.0000,  999.0000,  999.0000,  999.0000,   29.5142,   29.9679,   30.2914,   30.7804,   32.5406,   33.8135,   33.4773,  999.0000,   35.0494,   38.6527,   41.8502,  999.0000,   41.4129,   42.0320,   44.9231,  999.0000,   45.0979,   45.0546,  999.0000,   46.0777,   47.5143,   49.9067,  999.0000,   50.8301,   50.6543,   50.5736,   50.6548,   50.8710,   50.5722,   50.0580,   49.4079,   49.4552,   49.2699,   48.9919,   49.3295,   50.6732,   51.8336,   52.3010,   52.7344,   53.7943,   55.0938,
  3-NOV-1996 07:43:50.24,    3.2718,  999.0000,    3.1644,    1.9220,    1.1601,    1.0916,  999.0000,  999.0000,  999.0000,  999.0000,  999.0000,  999.0000,  999.0000,   22.8714,   23.7831,  999.0000,  999.0000,  999.0000,  999.0000,  999.0000,  999.0000,  999.0000,  999.0000,  999.0000,  999.0000,  999.0000,  999.0000,  999.0000,  999.0000,  999.0000,  999.0000,  999.0000,  999.0000,  999.0000,  999.0000,  999.0000,  999.0000,   42.3917,   44.2336,  999.0000,  999.0000,  999.0000,  999.0000,  999.0000,  999.0000,   51.5580,   51.4967,   50.0251,   51.0236,   51.8539,   50.7983,   49.6228,   49.7036,   50.4738,   52.3188,   53.5122,   53.3502,   51.4271,   50.7789,   51.4604,   51.9905,   52.6218,   52.8284,   53.1762,   55.2964,
  3-NOV-1996 07:48:20.49,    2.8960,    3.0025,    2.9019,    2.0538,    0.8878,    0.2611,  999.0000,  999.0000,  999.0000,  999.0000,  999.0000,  999.0000,  999.0000,   23.4263,   24.2954,   25.3322,  999.0000,  999.0000,  999.0000,  999.0000,  999.0000,  999.0000,  999.0000,   28.9499,   29.4847,   30.4307,   31.8751,  999.0000,   32.7347,   34.1707,  999.0000,  999.0000,  999.0000,  999.0000,  999.0000,  999.0000,   44.8742,   44.0379,   46.1900,   45.9661,   44.5762,   44.3768,   45.1221,   46.5170,   48.8657,   50.6052,   51.2944,   51.5931,   50.9948,   51.0541,   51.0056,   49.9946,   48.7258,   48.6831,   49.4981,   50.0938,   50.7036,   50.8262,   51.2423,   51.4314,  999.0000,   50.9724,  999.0000,  999.0000,   53.0374,
  3-NOV-1996 07:52:50.98,    2.1692,    2.7208,    3.2315,    2.3996,  999.0000,  999.0000,  999.0000,  999.0000,  999.0000,  999.0000,  999.0000,  999.0000,  999.0000,  999.0000,   23.9755,   24.8382,   25.0168,   25.8997,  999.0000,  999.0000,  999.0000,  999.0000,  999.0000,   28.2233,   28.4507,   29.6007,   31.8393,   31.3955,   32.1015,  999.0000,   34.9383,  999.0000,   35.1468,   38.7218,  999.0000,   45.4366,  999.0000,   46.5115,   48.0439,  999.0000,   47.3798,   46.6189,   45.1704,   45.8461,  999.0000,   49.7511,   51.1780,   51.3898,   50.4877,   49.8396,   48.9120,   48.1377,   47.7093,   47.9372,   48.8752,   49.2629,   48.8959,   48.9763,   49.1817,   49.6381,   50.0678,   50.5657,   51.7833,  999.0000,   52.2146,
  3-NOV-1996 07:57:20.54,    2.3619,    2.1636,    2.2595,    2.3513,    1.1808,    0.9905,  999.0000,  999.0000,  999.0000,  999.0000,  999.0000,  999.0000,  999.0000,  999.0000,   22.2420,   23.5926,   24.3155,  999.0000,  999.0000,  999.0000,  999.0000,  999.0000,  999.0000,   28.2750,   29.0420,   30.6536,  999.0000,   31.8694,   31.8373,   33.9459,   34.9374,  999.0000,  999.0000,   39.5716,   43.3034,   45.0238,   44.3897,   45.7373,   47.2046,   48.1341,   47.7133,   47.4025,   46.1705,   45.1042,   46.4922,   50.2241,  999.0000,   51.6945,   50.2433,   50.6541,   49.3989,   48.0405,   47.1644,   47.2071,   46.7511,   46.6193,   47.7293,   49.0213,   49.8924,   50.9557,   50.9155,   50.8424,   51.3135,   51.6658,   52.6472,
  3-NOV-1996 08:01:50.24,    2.9659,  999.0000,    0.9497,    1.0352,    0.8083,    1.0350,  999.0000,  999.0000,  999.0000,  999.0000,  999.0000,  999.0000,  999.0000,  999.0000,  999.0000,   24.4538,   25.5358,   26.2663,   26.1671,  999.0000,  999.0000,  999.0000,  999.0000,   28.3238,   29.1522,   31.3252,  999.0000,  999.0000,   32.3384,   34.2885,   34.7907,   34.6363,   36.7532,   40.1918,   43.7154,   45.0675,   46.4526,   46.2383,   46.0479,   48.3066,   49.5870,   48.5307,   46.9948,  999.0000,   45.0552,   48.7630,   50.7758,   50.6832,   49.5115,   48.9680,   49.4695,   48.9942,   48.0599,   47.6556,   47.7687,   48.4785,   49.2169,   49.5223,   50.2131,   51.5671,   51.6034,   51.6411,   52.5295,   53.8157,   54.5064,
  3-NOV-1996 08:06:20.24,    2.3624,    1.4362,    2.3399,    2.5825,    1.4162,  999.0000,  999.0000,  999.0000,  999.0000,  999.0000,  999.0000,  999.0000,  999.0000,  999.0000,   22.6683,   23.4803,   24.5610,   25.5712,  999.0000,  999.0000,  999.0000,  999.0000,  999.0000,   27.9891,   28.5752,   29.7769,   31.0387,   30.2143,   31.4587,   33.4496,   33.6595,   33.5711,  999.0000,  999.0000,   43.7305,   45.1450,   47.4770,   47.7609,   47.1337,   48.5601,   48.2150,   47.8471,   46.4436,   44.5488,  999.0000,   48.7003,   50.0540,   49.1106,   49.1230,   48.7432,   48.6590,   48.3239,   47.5893,   46.8702,   46.1227,   46.7451,   47.7084,   47.7256,   48.4267,   49.6301,   51.1085,   50.8619,   51.4154,   52.6391,   52.9164,
  3-NOV-1996 08:10:50.67,    2.8212,    3.7980,    4.0084,    2.8960,    1.3158,    0.9494,  999.0000,  999.0000,  999.0000,  999.0000,  999.0000,  999.0000,  999.0000,   22.6884,   22.5417,   23.6276,   24.6588,   25.2091,   26.8435,   27.6515,  999.0000,  999.0000,  999.0000,   27.3125,   28.9590,   29.8848,   31.7148,   31.0912,   32.2277,   34.5730,   34.9483,  999.0000,  999.0000,  999.0000,  999.0000,   45.9479,   47.0376,   47.3127,  999.0000,  999.0000,   47.0979,   45.9978,   45.9374,   45.8775,   48.7104,   49.8511,   49.9072,   49.5849,   49.1345,   47.3010,   46.9503,   47.3532,   47.3249,   46.9929,   47.1668,   47.6268,   48.0540,   48.3620,   48.6829,   48.4832,   49.4138,  999.0000,   51.3961,   51.8721,   52.6358,
  3-NOV-1996 08:15:20.10,    2.6633,    3.6630,    3.5306,    2.7127,    1.4118,    0.5626,  999.0000,  999.0000,  999.0000,  999.0000,   16.0812,   17.9543,  999.0000,   23.0640,   22.1527,   22.8122,   24.6195,   25.0869,   25.9322,   26.9524,   26.9871,  999.0000,  999.0000,   28.7437,   29.6758,   30.4233,   32.3208,   31.5357,   33.3203,  999.0000,   34.6147,   35.5045,  999.0000,   41.2686,  999.0000,   45.9341,   46.7482,  999.0000,   45.9007,   46.0230,   46.1097,   47.1077,   47.0073,   46.6223,   47.9891,   50.1712,   51.0962,   49.5897,   49.0059,  999.0000,  999.0000,   45.3699,   45.2940,   46.3290,   47.7262,   47.9800,   47.6713,   48.2099,   48.8394,   48.9024,   49.2961,   49.7761,   50.2955,   51.7088,   52.1392,
  3-NOV-1996 08:19:49.51,    2.2769,  999.0000,    3.5036,    2.8618,    0.9611,    0.9914,  999.0000,  999.0000,  999.0000,  999.0000,  999.0000,  999.0000,  999.0000,   23.4732,   23.0197,   24.0698,   24.9250,   25.3991,   26.2533,  999.0000,   27.2193,   27.1241,  999.0000,   28.9868,   29.3197,   30.8300,   32.6992,  999.0000,  999.0000,  999.0000,   34.6737,   35.2466,   37.9102,   42.2649,   45.1555,   46.5255,   48.1114,   48.4717,   47.2997,   47.3009,  999.0000,  999.0000,  999.0000,  999.0000,  999.0000,  999.0000,  999.0000,  999.0000,  999.0000,  999.0000,  999.0000,  999.0000,  999.0000,  999.0000,  999.0000,  999.0000,  999.0000,  999.0000,  999.0000,  999.0000,  999.0000,  999.0000,   50.0556,  999.0000,  999.0000,
  3-NOV-1996 08:24:19.02,    2.0325,    2.5007,    2.8646,    2.9546,    1.7407,    0.9989,  999.0000,  999.0000,  999.0000,  999.0000,  999.0000,  999.0000,  999.0000,   23.1778,   23.4361,   24.8992,   25.1489,   25.5507,   26.6644,  999.0000,   27.0748,   26.5439,  999.0000,   28.9151,   29.3036,   30.7799,   31.8524,   30.8728,   32.5032,   34.3689,   33.6988,   34.1637,  999.0000,  999.0000,  999.0000,   47.0919,   48.8687,   48.5638,   46.9076,   46.1137,   47.1206,   47.7780,   48.9866,   48.8844,   46.4023,   47.0385,   51.3741,   50.0411,   50.1353,   49.7609,   49.9755,   49.4619,   49.4205,   49.4781,  999.0000,  999.0000,  999.0000,  999.0000,  999.0000,  999.0000,  999.0000,  999.0000,  999.0000,  999.0000,  999.0000,
  3-NOV-1996 08:28:49.06,    2.1898,    3.0547,    2.9667,    2.9650,  999.0000,  999.0000,  999.0000,  999.0000,  999.0000,  999.0000,  999.0000,  999.0000,  999.0000,  999.0000,  999.0000,   24.3965,   25.2052,   25.8796,   26.6060,   26.8951,   26.9819,   26.8587,   27.5115,   29.7430,   29.3271,   30.9361,   31.7008,   32.3611,   33.5661,   34.7764,   34.6016,   35.1905,   36.6991,   40.8180,   43.9384,   45.8492,  999.0000,   47.7634,   48.4298,  999.0000,   47.6526,   48.6484,   49.5218,   49.0717,   49.6806,   51.1948,   50.3730,   50.3101,   49.8879,   50.0378,   50.1587,   49.8661,   49.3867,   49.3391,   48.5182,   47.1491,   47.1948,   49.1654,   48.5321,   49.2260,   49.4258,   48.0696,   48.2802,   49.5941,  999.0000,
  3-NOV-1996 08:33:18.91,   -0.8011,  999.0000,    1.4800,    1.9401,    1.3567,    1.7759,  999.0000,  999.0000,  999.0000,  999.0000,   15.5454,   19.3336,   22.0400,   23.2827,   22.9007,   24.1435,  999.0000,   26.1854,   27.0384,   26.9685,   27.0898,   27.4133,   28.5324,   29.5491,   30.1872,   31.6625,   33.2964,   33.3613,   33.6925,   35.1907,   34.9056,   34.6183,   36.1998,   40.2067,   43.2137,   45.4560,   48.0733,   47.8731,   46.8781,   46.6661,   48.1139,   49.7516,   48.8522,   49.7018,   50.6605,   49.7530,   50.4771,   50.5207,   50.4558,   49.6832,   48.2239,   48.6071,   49.2475,   49.5204,   49.1195,   48.4313,   47.3838,   47.5198,   47.8475,   47.2345,   47.5562,   49.3789,   50.5773,   51.6033,   50.6630,
  3-NOV-1996 08:37:49.65,    4.1112,    4.0689,    3.4513,    2.4054,  999.0000,  999.0000,  999.0000,    6.2793,    7.7851,  999.0000,  999.0000,  999.0000,   21.2595,   22.6400,   23.0661,   24.2472,   25.3620,   25.3143,   26.4925,   26.7682,   26.4294,  999.0000,   28.3559,   29.6362,   31.0904,   31.0372,   32.4556,   32.9750,   32.3857,   33.7585,   34.1648,  999.0000,   35.6331,   40.0533,   43.6323,   45.5496,   46.8888,   45.6890,   46.6314,   48.2781,   49.4387,  999.0000,   49.4123,   50.5596,   50.4486,   49.8322,   50.0377,   50.4436,   50.5256,   49.2088,   47.3920,   48.0271,   48.6474,   48.4760,   48.3628,   48.6092,   48.9342,   48.6685,   48.3861,   48.0952,   48.6503,   49.5575,   49.3596,   49.9326,   49.5185,
  3-NOV-1996 08:42:20.35,    2.7064,    3.0187,    2.3827,    1.6465,    1.4305,    2.6482,  999.0000,  999.0000,  999.0000,  999.0000,  999.0000,  999.0000,  999.0000,   21.7609,   22.9844,   24.6283,   26.0761,   26.3879,   26.1803,   25.8996,   25.7651,   26.9967,   28.5821,   30.3230,   30.1704,   31.5224,   32.3673,   33.3826,   34.3716,   34.8780,   35.4469,  999.0000,   36.4395,   40.3222,   43.4452,   45.9317,  999.0000,  999.0000,   47.0871,   49.3720,   49.7852,   49.6721,   49.0575,   49.7403,   50.7885,   49.4638,   49.8785,   50.4611,   50.1738,   49.3365,   48.5549,   47.9956,   48.0953,   48.6353,   49.4649,   49.8386,   49.1446,   49.7863,   50.5329,   50.5263,   49.0975,   49.3065,   50.4022,   50.5183,   49.7259,
  3-NOV-1996 08:46:51.95,    2.8677,    3.1638,  999.0000,    1.2187,    0.8089,    2.3535,  999.0000,  999.0000,  999.0000,  999.0000,  999.0000,  999.0000,  999.0000,   21.4804,   22.0742,   23.5071,   25.5864,   26.2700,   26.0952,   25.5635,   25.9535,   27.0418,  999.0000,   29.8420,   29.5527,   31.3056,   32.7656,   32.8336,   33.4506,   34.2895,   33.2388,   34.3231,   36.4447,   39.9826,   43.6715,   45.2617,  999.0000,   45.8039,   47.4175,   49.2762,  999.0000,  999.0000,   49.8772,   50.8722,   50.4094,   49.0194,   47.7234,   48.7926,   49.0854,   48.1471,   48.1991,  999.0000,  999.0000,   47.6614,   49.4723,   51.5358,   50.9373,   50.2164,   50.2694,   50.3003,   48.9883,   48.9148,   50.1626,  999.0000,  999.0000,
  3-NOV-1996 08:51:22.37,    2.6105,    2.9562,    2.7855,    1.5927,    0.9139,  999.0000,  999.0000,  999.0000,  999.0000,  999.0000,  999.0000,  999.0000,   20.7646,   21.7509,   22.0090,  999.0000,  999.0000,   25.8833,   25.2865,   25.4281,   25.9844,  999.0000,  999.0000,   29.5852,   30.0133,   30.3293,   30.7102,   32.2541,   33.3443,   33.5793,   32.6279,  999.0000,   35.9243,   39.2639,   42.5598,   44.7153,   46.1831,  999.0000,   47.5457,   48.3090,   48.7824,   49.0101,   50.5054,   51.2873,   49.3514,   48.5133,   48.8844,   49.2671,   49.4254,   48.4355,   48.8731,   48.3263,   47.4696,   48.1332,   50.0580,   51.0686,   50.7778,   49.4557,   49.1827,   50.9909,   50.5470,   49.3094,   49.7308,   50.3387,   50.1207,
  3-NOV-1996 08:55:53.34,    1.1944,  999.0000,    1.3136,    0.6972,    0.1797,  999.0000,    4.3051,    5.2776,  999.0000,  999.0000,  999.0000,  999.0000,  999.0000,   21.8284,   22.1773,   23.4283,   25.8692,   25.9219,   24.9403,   25.3303,   26.6498,   27.7496,   28.5252,   29.8867,   30.2105,   31.1640,   32.8522,   32.2830,   33.4415,   34.1809,   35.1763,  999.0000,   35.6806,   39.4504,   42.2816,   44.1685,  999.0000,   45.2260,   46.2082,   47.5252,   48.5686,   49.1965,  999.0000,   49.6510,  999.0000,   48.5970,   49.1216,   49.1366,   48.9454,   48.8962,   49.2791,   49.0517,   48.5160,   48.6841,   49.3077,   50.0699,   50.3283,   49.5878,   48.3140,   49.2870,   50.2091,   50.5553,   50.8086,   51.7511,   52.1665,
  3-NOV-1996 09:00:23.84,    0.7627,    1.0499,    0.9382,    1.4772,  999.0000,    3.9743,    5.1929,  999.0000,  999.0000,  999.0000,  999.0000,  999.0000,  999.0000,  999.0000,  999.0000,   24.2884,   26.0639,   25.6844,   24.4500,  999.0000,  999.0000,  999.0000,   28.3155,   29.3949,   29.7171,   30.0692,   32.9017,   33.1436,   34.9793,   35.7158,   36.1731,  999.0000,   36.6358,  999.0000,  999.0000,  999.0000,   46.3968,   47.0261,  999.0000,   47.2655,   47.9924,   48.1626,   49.3156,   50.5734,   50.2875,   48.4817,   49.0800,   49.3931,   49.5843,   49.3784,   49.3401,   49.0651,   49.2593,   49.4777,   48.7993,   50.1645,   49.8802,   48.7691,   48.9167,   49.2103,   49.7352,   50.5904,   50.8646,   51.7131,   51.6994,
  3-NOV-1996 09:04:54.08,    1.7533,  999.0000,    2.4562,    2.1427,    1.0580,  999.0000,  999.0000,  999.0000,  999.0000,  999.0000,  999.0000,  999.0000,   21.5450,   22.4354,   22.9535,   24.3747,   25.7440,  999.0000,   26.3150,   26.9162,   26.8839,   27.8566,  999.0000,   28.8839,   29.4924,   30.7636,   32.6331,   32.9452,   33.8651,   34.8203,   34.4166,  999.0000,   37.0054,   39.9779,   41.1370,   44.1238,   47.1297,   47.6785,  999.0000,   47.3544,   48.7052,   48.4572,   49.7258,   51.1677,   50.6472,  999.0000,   49.0982,   49.8555,   49.0339,   48.6260,   49.0902,   49.0744,   48.0816,   47.4777,   47.0377,   48.3219,   49.2799,   48.9564,   49.3220,   49.9639,   50.9547,   50.9333,  999.0000,   52.2143,   53.0384,
  3-NOV-1996 09:09:25.03,    2.1963,    3.0547,    2.6897,    1.6696,    0.4964,    0.2826,  999.0000,  999.0000,  999.0000,  999.0000,  999.0000,  999.0000,   21.7761,   23.1260,   23.5458,   24.7698,   26.3883,   26.6793,   26.3796,   25.7975,   26.1806,   27.3303,   29.2149,   30.3678,   30.2371,   31.6585,   33.6334,   32.8704,   33.4265,   34.6084,   35.1314,  999.0000,   36.8961,   39.5756,  999.0000,  999.0000,   46.7191,   47.4057,   46.1619,   46.8592,   46.6044,   47.7178,   50.4009,   53.0130,   53.3862,  999.0000,   47.3441,   47.7572,   47.2778,   48.1631,   47.9170,   47.4419,   47.8007,   48.1355,   48.4311,   49.0374,   49.1769,   48.7617,   49.7845,   50.7035,   50.1706,   50.1468,   51.2505,   51.2865,   52.2761,
  3-NOV-1996 09:13:54.43,   -0.1520,    1.8752,    1.6538,    1.1570,    0.7729,  999.0000,  999.0000,  999.0000,  999.0000,  999.0000,  999.0000,  999.0000,   20.5333,   22.0084,   23.3314,   25.3643,   26.4507,   26.7002,   26.8992,   27.3701,   26.5923,   27.5366,  999.0000,   29.7538,   30.5936,   31.3441,   32.7787,   33.7472,   33.5416,   34.5778,   34.2985,  999.0000,   36.3943,   39.7667,   41.3023,   43.7216,   45.6984,  999.0000,   45.4145,   46.4653,   47.7973,   48.1103,   50.8580,   52.4981,   52.4733,   50.1433,   47.4852,   47.1889,   48.3518,   48.6132,   48.1856,   48.1556,   47.1901,   47.5329,  999.0000,  999.0000,  999.0000,   50.4791,   51.6060,   50.6452,   49.6910,   50.3471,   50.9586,   51.6203,   53.4336,
  3-NOV-1996 09:18:24.30,    2.3091,    2.7105,    2.2677,    1.7944,    1.6160,  999.0000,  999.0000,  999.0000,  999.0000,  999.0000,  999.0000,  999.0000,  999.0000,  999.0000,   23.6673,   25.5759,   25.6886,   25.7089,   26.3068,   26.8121,   26.8339,   28.2229,   29.0897,   29.6072,   31.0160,   30.7416,   32.8484,   33.4848,   34.5810,   34.3470,   33.9605,   34.5604,   37.3773,   39.1636,  999.0000,  999.0000,   46.6507,   47.2214,  999.0000,   47.7074,   48.6424,   49.6510,   51.4659,   51.7407,   52.0367,   50.4985,   48.3473,   46.9121,   47.5287,   48.3126,   48.5495,   48.6546,   49.0106,   48.9625,   48.1370,   49.0834,   50.2327,   49.8041,   50.2068,   50.5419,   50.9747,   51.0583,   51.2878,   52.0027,  999.0000,
  3-NOV-1996 09:22:53.04,    0.7142,    1.6737,    2.1421,  999.0000,    1.6293,    3.7075,    5.0912,    5.9020,  999.0000,  999.0000,  999.0000,  999.0000,   20.7613,   22.0496,   23.5153,   25.4009,   26.5786,   26.2218,   25.9047,   26.3485,   27.3335,   28.0834,   28.4498,   29.0571,   30.4811,   31.3847,   32.4165,   32.5041,   34.0106,   34.6036,   34.3623,   33.8730,   37.3848,  999.0000,  999.0000,  999.0000,  999.0000,   49.6018,  999.0000,   48.3227,   49.3692,   51.0635,   52.3025,   52.0984,   52.7899,   51.6140,  999.0000,  999.0000,   46.7769,   47.7436,   48.1687,   48.5231,   48.6503,   49.3448,   49.6712,   49.6677,   49.9782,   50.1686,   50.8160,   51.5845,   52.0038,   51.4992,   50.3789,   50.7633,  999.0000,
  3-NOV-1996 09:27:22.06,    0.5405,    1.8235,    2.2505,    1.7579,    1.3629,  999.0000,    4.9671,    5.5276,  999.0000,  999.0000,  999.0000,  999.0000,   20.1052,   21.9959,   23.1029,   24.9056,   26.0431,   26.1835,   26.1131,   26.4188,   26.8318,   27.7678,   27.9103,   27.9680,   29.7984,   30.9969,   31.2567,   31.0172,   32.3075,   32.2915,   33.2333,  999.0000,  999.0000,   39.6204,   43.4332,   46.1375,   47.2953,   46.6904,   46.2877,  999.0000,  999.0000,  999.0000,  999.0000,   53.1581,   53.0373,   52.0157,   50.9500,   49.1032,   47.5639,   47.5120,   48.3074,  999.0000,  999.0000,  999.0000,  999.0000,  999.0000,  999.0000,  999.0000,  999.0000,  999.0000,  999.0000,  999.0000,  999.0000,  999.0000,  999.0000,
  3-NOV-1996 09:31:51.98,    1.8983,    2.7087,    2.3263,    1.7452,    1.8809,    3.8925,    5.0825,    5.6988,  999.0000,  999.0000,  999.0000,  999.0000,   20.8164,   22.4005,   23.5322,   25.8371,   26.5780,   26.3374,   26.6804,   27.1966,   27.4079,   27.0728,   27.4557,   27.6419,   29.8077,   31.2285,   30.4266,   30.8663,  999.0000,   32.0693,   34.7144,   34.4382,   34.9170,   38.0628,   40.2372,   43.4151,   45.6704,  999.0000,   47.6849,   48.9055,   50.9765,   53.3195,   54.8751,   53.9033,   52.0961,   51.0174,   50.5583,   47.9338,   48.2101,   50.8281,   50.9946,   49.7795,   49.4968,   50.6485,   51.2869,   52.0760,   50.9732,   48.2721,   47.6002,   48.1705,   50.1669,   51.0262,   51.9548,   51.6019,   51.5028,
  3-NOV-1996 09:36:21.85,    0.8786,    2.1184,    2.2873,    1.8028,  999.0000,  999.0000,  999.0000,  999.0000,  999.0000,  999.0000,  999.0000,  999.0000,   21.3461,   22.5228,   23.6786,   25.0232,   25.5202,   26.1783,   26.6304,   26.9364,   27.2249,   27.3209,   27.5643,   28.1535,   29.7153,   30.4095,   30.5186,   31.3406,   31.1622,   34.0587,   34.0094,   34.5848,   36.4031,   39.1851,   41.6617,   43.4037,   46.1068,  999.0000,   46.7648,  999.0000,   50.4895,   52.0067,   53.6385,   53.4622,   52.0652,   51.6295,  999.0000,  999.0000,   50.5519,   52.2218,   51.7542,   50.9962,   49.9781,   49.5865,   49.4424,   49.0768,   48.0622,   47.7252,   48.6136,   49.9317,   51.4909,   52.9214,   53.1176,   51.4697,   50.9641,
  3-NOV-1996 09:40:51.96,    1.5912,    2.4167,    2.2929,    1.4425,    2.4264,    2.8831,  999.0000,  999.0000,  999.0000,  999.0000,   14.1205,   18.3498,   21.2479,   22.3638,   23.6686,   25.3593,   25.8549,   25.7736,   25.6311,   25.6073,   26.7115,   27.1279,   26.9433,   28.2398,   29.8055,   31.3044,   30.4800,  999.0000,   30.9901,   32.5835,   33.5836,   32.6900,   36.5739,   38.9580,   41.7096,   43.7365,   46.5327,   46.1362,   46.1637,  999.0000,   48.9609,  999.0000,   52.8504,   52.6478,   53.0442,   52.8406,  999.0000,   50.7891,   51.3000,   51.1006,   49.1381,   48.3795,   49.0018,   48.7011,   48.2052,   47.5620,  999.0000,  999.0000,   50.2616,   50.0091,  999.0000,   51.1025,   51.6436,   51.7423,   51.7719,
  3-NOV-1996 09:45:21.42,    2.1005,    2.9142,  999.0000,  999.0000,  999.0000,  999.0000,  999.0000,  999.0000,  999.0000,  999.0000,   14.8041,   18.6538,   21.1589,   22.1059,   23.0764,   24.6414,   26.0820,   26.0685,   26.4113,   26.4804,   26.6164,   26.1688,  999.0000,   28.2419,   29.9209,   30.9049,   30.1167,   31.2760,   31.3935,   32.3282,   32.8246,   34.9586,   36.5501,   37.4381,   39.3153,  999.0000,   40.7682,  999.0000,  999.0000,  999.0000,  999.0000,  999.0000,  999.0000,  999.0000,   51.6677,   50.7446,  999.0000,   45.6649,   48.0573,   50.4890,  999.0000,  999.0000,   47.4038,   48.1883,   48.1793,   48.1139,   48.6355,  999.0000,  999.0000,   51.2536,   53.1874,   52.6014,   52.1487,   53.5057,   52.8012,
  3-NOV-1996 09:49:50.91,    2.3188,    2.7879,    1.9783,    1.3190,    1.4725,    3.4627,  999.0000,  999.0000,   10.2671,   11.4484,  999.0000,  999.0000,   20.7140,   22.2377,   23.7886,   25.8901,   26.6831,   26.3436,  999.0000,   26.6162,   26.9500,   26.4828,   27.4008,   28.2120,   29.7778,   31.2804,   30.1867,   31.0257,   30.9361,   32.5350,   33.4286,   33.4030,   36.5528,   39.1710,   41.5684,   43.7219,   44.7725,   47.0240,   46.1518,   47.8605,   51.0462,   52.7806,   53.0764,   51.4331,   50.5913,   50.1694,   47.9933,   46.0946,   47.8203,   49.7646,   49.5077,   49.0301,   48.9957,   49.2491,   48.8373,   48.1581,   48.0951,   49.0909,   49.9394,   51.4298,   50.8864,  999.0000,   48.4802,   50.7841,   51.3300,
  3-NOV-1996 09:54:20.60,    3.0950,    3.5619,  999.0000,    0.9332,    0.5693,    2.4468,    4.9209,    6.0873,  999.0000,  999.0000,   13.4605,   16.7093,   20.1063,   21.6990,   23.2353,  999.0000,   26.4383,   26.7748,   26.7818,   26.5228,   26.1523,   25.7970,   26.7625,   28.2687,   30.0276,   31.6685,   30.5196,   32.5625,   32.4605,   31.9762,   31.4682,  999.0000,   35.3883,   37.9174,   41.2819,   43.5761,   45.6881,   46.4802,   44.5696,   44.6427,   47.2338,   48.6306,   47.8351,   46.3384,   44.9120,   43.1021,   42.2671,   43.5795,   45.4704,   47.9019,   49.8962,   50.8852,   50.9514,   50.0524,   49.6993,   50.4078,   50.7349,   51.2916,   51.8324,   51.5149,   49.7875,   50.6495,   50.2953,   50.9334,   52.6510,
  3-NOV-1996 09:58:50.39,    3.9527,  999.0000,    2.3971,    2.0935,    2.5344,    2.6032,  999.0000,  999.0000,    9.9144,   11.6430,  999.0000,  999.0000,  999.0000,   21.1524,   23.2320,   25.4242,   25.6844,   26.2370,   26.0772,   26.1056,   26.2826,   26.6462,   27.0107,   28.8426,   29.9616,   30.8110,   30.6402,   31.5599,   31.9672,   31.9071,   32.8374,   33.0712,   35.0428,   37.8357,   39.8771,   41.0415,   43.3252,   46.9829,   47.5743,  999.0000,   48.6203,   48.9261,   49.5993,   49.0677,   46.7798,  999.0000,   44.3538,   47.3594,   48.6465,   48.5989,   49.0013,   48.5801,   47.7905,   47.7344,   51.4208,  999.0000,   55.0193,   56.3143,  999.0000,   54.3254,   52.5121,   51.7723,   53.0186,   52.9021,   53.0820,
  3-NOV-1996 10:03:19.90,    3.7122,    2.9777,    1.6194,    0.6640,  999.0000,  999.0000,  999.0000,  999.0000,   10.4549,   11.8125,   12.1496,  999.0000,  999.0000,  999.0000,   24.2015,   26.1701,   26.0287,   25.4712,  999.0000,   26.0400,   26.1445,   26.2153,   26.0632,   28.7827,   30.4173,   30.8232,   30.9240,   31.5280,   31.5725,   32.4968,   33.1284,   34.1292,   35.8501,   37.6996,   40.2066,   43.0022,   44.3404,   46.4391,   47.3660,   48.7831,   48.6837,   50.0280,   51.1418,   52.4480,   51.8223,  999.0000,   45.0797,   46.1873,   48.3936,   50.1351,   50.0041,   50.0427,   49.7835,   49.6098,   52.5025,   53.9213,   55.1698,   56.7983,   57.6691,  999.0000,  999.0000,   50.8671,   50.6175,   51.2645,   51.0129,
  3-NOV-1996 10:07:49.97,    4.2448,    3.6184,    2.2911,    1.4369,  999.0000,  999.0000,  999.0000,  999.0000,   10.1690,   10.7513,   12.9252,  999.0000,   20.3005,   21.3269,   22.7518,   25.9970,   26.3035,   25.9968,   26.1460,   25.8731,   26.4599,   26.1554,   27.2730,   28.9640,   30.4718,   31.7644,   31.3984,   32.0867,   31.8036,   33.0663,   33.8915,   34.6390,   36.3156,   37.8531,   40.6054,   42.4777,   42.5717,   45.1109,   47.0542,   48.9621,   48.1180,   50.2800,   49.5665,   50.6779,   50.4468,   49.2366,  999.0000,  999.0000,  999.0000,   52.0968,   53.7635,   53.8871,  999.0000,  999.0000,   10.0567,   10.3683,  999.0000,  999.0000,   10.3373,    4.7745,  999.0000,  999.0000,  999.0000,  999.0000,  999.0000,
  3-NOV-1996 10:12:20.07,    4.3845,    3.6424,    1.4360,  999.0000,    2.2511,  999.0000,  999.0000,    7.6234,    9.7066,   11.6611,   15.1480,   19.0384,   20.8216,   21.6101,   22.8598,  999.0000,   25.7296,   25.3247,   26.1888,   26.8123,   26.9004,   26.0986,   26.6354,   28.4743,   29.7927,   31.2293,   30.3751,   31.3555,   31.2356,   32.3521,   32.6922,  999.0000,   34.6768,   37.7007,   41.1733,   43.0035,  999.0000,  999.0000,   47.4108,   49.4661,   50.0762,   50.6776,   50.9092,   51.3278,   50.1711,   49.7313,   48.9230,   47.2028,  999.0000,   48.7926,   51.7791,   52.5274,  999.0000,  999.0000,   42.6892,   42.9461,   52.0270,   50.3053,  999.0000,   44.3535,   53.6464,   52.0255,   52.1454,   51.3527,   50.5972,
  3-NOV-1996 10:16:50.78,    3.0904,    3.4884,  999.0000,  999.0000,  999.0000,    4.7187,    5.3918,    5.6396,  999.0000,  999.0000,  999.0000,  999.0000,   19.7288,   20.9941,   22.6800,   25.2818,   25.5081,   25.1195,   26.0321,   26.7754,   26.6254,   25.9632,   26.7794,   29.3690,   29.9816,   30.7074,   30.4652,   31.1668,   31.1825,   32.3004,  999.0000,  999.0000,   34.6546,  999.0000,  999.0000,   42.8573,   42.4364,  999.0000,  999.0000,   50.5278,   51.0578,   50.6767,   49.8586,   51.0988,   50.7250,   49.8466,  999.0000,   47.9946,   48.4875,   48.4673,   49.1908,   51.0431,   51.5934,   49.9343,   48.7770,   48.6559,   48.8461,   49.2627,   45.8286,   51.8603,   52.5439,   51.4621,   51.4113,   51.9105,   51.8665,
  3-NOV-1996 10:21:21.18,    3.1072,    3.3030,    2.0311,    1.6016,    1.3542,  999.0000,  999.0000,  999.0000,  999.0000,   11.2557,  999.0000,  999.0000,   20.0766,   21.4404,   23.4134,  999.0000,  999.0000,   25.5481,   26.1082,   26.8067,   26.2166,   25.8618,   26.8013,    4.9546,    5.0428,    5.2166,    5.6537,   30.9402,   31.4797,   32.8114,   32.7738,   33.1163,   34.9364,  999.0000,   38.1854,   40.2942,   41.3634,   45.3047,   48.7671,   50.5038,   51.1120,   49.5830,   47.4239,   46.3600,   47.3495,   48.6941,   50.2254,  999.0000,  999.0000,   51.2132,   51.2870,   51.4098,   50.0603,   48.1573,   47.1407,   46.3530,   45.5164,   44.2269,   42.8696,   43.2802,  999.0000,  999.0000,  999.0000,  999.0000,  999.0000,
  3-NOV-1996 10:25:52.44,    3.6494,    4.5600,  999.0000,    1.7174,    1.5559,    3.0538,    5.0293,  999.0000,  999.0000,  999.0000,  999.0000,  999.0000,   20.0465,   21.2874,  999.0000,   25.4507,   25.5579,   25.3600,  999.0000,   26.4385,   26.2836,  999.0000,   27.0889,   25.0514,   26.0995,   26.2403,   30.7305,   31.4993,   30.5093,   31.8543,   32.4952,   31.2195,   33.1004,  999.0000,  999.0000,   40.8872,  999.0000,   44.9604,   47.3888,   48.3673,   49.9460,   50.1532,   48.8762,   47.9186,   47.1897,   47.0664,   48.1294,   46.8927,   47.6246,   50.2565,   50.7991,   51.9189,   52.1670,   50.8586,   50.6029,   50.9981,  999.0000,  999.0000,  999.0000,  999.0000,  999.0000,  999.0000,  999.0000,  999.0000,  999.0000,
  3-NOV-1996 10:30:22.40,    3.8417,    3.3017,    3.2176,    3.2929,    2.8812,    2.7984,  999.0000,  999.0000,    7.3166,    8.9638,  999.0000,  999.0000,   19.0730,   20.6218,   22.2987,   24.7612,   25.3022,   25.5629,  999.0000,   26.1441,   26.1191,   26.3101,   28.1172,   29.4564,   30.6892,   30.8336,   27.4472,   31.2157,   31.3955,   32.7584,   33.3294,   32.8192,   34.4206,   36.8048,   38.5528,   40.6848,   41.1115,  999.0000,  999.0000,   47.4490,   48.9144,   47.8652,   47.4449,   47.6606,   47.6585,   48.5046,   48.8522,   46.6756,   46.9388,   49.5884,   51.4823,   51.8587,   52.1915,   53.0100,   52.0630,   51.8759,   51.6652,   49.8743,   48.8900,   49.9152,   49.1748,   49.2113,   50.0007,   51.1341,   52.0114,
  3-NOV-1996 10:34:52.54,    4.5423,    3.2856,    2.0184,    1.7098,  999.0000,  999.0000,  999.0000,  999.0000,  999.0000,  999.0000,  999.0000,  999.0000,   18.9755,   20.3130,   21.4036,   24.0950,   25.3404,   25.6051,   25.4743,   25.9818,   25.9177,   25.5706,   27.1675,   28.9534,   29.8805,   30.5673,   29.0377,   29.8982,   31.2401,   31.9528,   32.4321,   31.9775,   32.7997,   35.2872,   38.0033,   40.6399,   41.0535,   44.1364,   46.3937,   48.1218,   48.7451,   49.3015,   48.8894,   47.9148,   47.3908,   47.9422,   48.8400,   48.2582,   48.6602,   51.2572,  999.0000,   51.8445,   51.1804,   51.6291,   52.0121,   51.7218,   51.1577,   49.2805,   49.9013,   51.8561,   51.6583,   51.0495,   50.0721,   50.1227,   51.8158,
  3-NOV-1996 10:39:24.83,    3.4250,    3.2839,    2.6432,    1.0774,  999.0000,  999.0000,  999.0000,  999.0000,  999.0000,  999.0000,  999.0000,   18.0292,   19.6425,   20.8619,   22.3675,   24.8469,   26.0576,   26.4209,   26.0899,   26.4697,   26.0675,   25.6044,   27.5522,   28.6436,   29.4686,   30.3298,   29.9446,   29.9990,   30.8140,   32.4845,   33.2928,  999.0000,   34.5260,   35.7337,   38.2430,   40.9384,   41.4564,   44.4969,   45.7280,   47.3811,   48.6088,   48.7094,   47.7999,   47.4475,   47.1200,   47.2971,   47.6624,   48.5172,   50.0568,   52.4566,   52.5441,   51.9928,   51.7344,   51.1340,   51.0264,   51.3674,   50.8884,   50.2919,   50.7520,   51.0814,   50.5645,   50.2102,   50.6103,   50.6703,   50.0519,
  3-NOV-1996 10:43:57.15,    2.9040,  999.0000,    2.7029,    2.6902,    2.6415,  999.0000,  999.0000,  999.0000,  999.0000,  999.0000,  999.0000,   18.8909,   20.1896,   21.2432,  999.0000,   25.0917,   25.9589,   26.0269,   26.3906,  999.0000,  999.0000,   25.8467,   26.6152,   28.5996,   29.0143,   29.5742,   29.7345,   29.8585,   30.3583,   31.7095,   32.9556,  999.0000,  999.0000,   35.8774,   37.7122,   40.2729,   40.2453,   41.9021,  999.0000,   47.6967,   47.0812,   48.2778,   47.6202,   47.4400,   47.3783,   46.8975,   46.7546,   46.9785,   49.0000,   52.2402,   53.3231,   52.9723,   52.1795,   52.0888,   51.8476,   50.6857,   49.3641,   48.9185,   49.4903,   49.7260,  999.0000,   48.0849,   48.1467,   49.3886,   52.2076,
  3-NOV-1996 10:48:28.21,    3.1340,    3.1508,  999.0000,  999.0000,  999.0000,    4.3382,    5.7208,  999.0000,  999.0000,  999.0000,  999.0000,   17.4987,   19.2721,  999.0000,  999.0000,   24.8348,   25.5094,   25.6237,   26.3234,   26.2571,   25.9866,   26.0576,   26.1047,   27.0649,   29.3250,   29.6167,   29.5035,   29.1945,   30.7473,   31.8247,   31.5747,   32.2113,   33.5398,   35.8005,   38.3889,   39.9252,   40.1901,   42.6095,   45.2245,   46.3877,   47.0903,   48.5569,   48.0781,   47.4910,   47.3350,   46.7452,   46.3998,   46.6213,   47.9269,   51.1360,   52.8875,   53.9887,   54.1291,  999.0000,   50.6185,   51.1028,   50.6833,   49.8301,   50.2380,   51.1029,   51.2468,   50.5924,   49.5369,   50.6943,   53.7083,
  3-NOV-1996 10:52:58.76,    2.7126,    3.5226,  999.0000,    2.0097,    1.8482,    2.6019,  999.0000,    7.1556,    7.1112,  999.0000,  999.0000,   16.1767,   18.6101,   21.0465,   22.2357,   25.0021,   25.6861,   25.5941,   25.6988,   25.8319,   25.8715,   26.4469,   27.0894,   28.9313,   29.4303,   28.8458,   29.9725,   30.0515,   31.3130,   32.4191,   31.2698,  999.0000,  999.0000,  999.0000,  999.0000,  999.0000,  999.0000,  999.0000,  999.0000,  999.0000,   47.8543,   49.0485,   48.4717,   47.8102,   47.7006,   47.4646,   46.1357,  999.0000,   45.9529,   49.4896,   52.2075,  999.0000,   52.2881,   50.1251,   50.1484,   49.2573,   49.0640,   49.3014,   49.6418,   50.1021,   50.0381,   49.1035,   48.4466,   50.6785,   52.8180,
  3-NOV-1996 10:57:29.06,    2.8601,    2.6659,    1.7222,    1.4382,    0.8358,  999.0000,  999.0000,  999.0000,  999.0000,  999.0000,  999.0000,   18.1972,   20.1373,   21.0617,   22.0099,   24.7638,   26.4826,   26.5930,   26.2561,   26.0057,   26.1177,   26.0871,   27.6328,   28.7999,   30.4849,   29.5714,   29.4028,   29.8083,   31.3863,   32.6359,   31.4275,   32.5279,   33.3251,   35.3200,   38.4485,   39.9064,   39.6811,   42.3858,   45.4810,   45.8062,   48.1062,   49.7262,   48.9368,   47.3495,   47.0506,   46.2372,   45.5278,   45.6416,   47.3099,   50.0424,   52.1072,   53.7979,   54.2886,   52.9971,   51.8778,   49.9666,   48.7602,   48.4009,   49.1711,   49.0454,   49.2440,   49.8374,   49.3276,   50.1748,   51.3060,
  3-NOV-1996 11:01:59.77,    2.8165,  999.0000,    1.3363,    0.7753,    1.2151,  999.0000,  999.0000,  999.0000,    7.0961,    8.7789,  999.0000,  999.0000,  999.0000,   20.4675,   22.0281,   24.5253,   25.4749,  999.0000,   25.7181,   25.8318,  999.0000,  999.0000,  999.0000,   28.5241,   30.4141,   30.3121,   29.9193,   29.4456,   31.5341,   33.3827,   32.3864,   32.3880,   33.3076,   34.9020,   38.1012,   40.0995,   40.5678,   42.0824,   44.3725,   45.9587,   49.0834,   50.7384,   47.9700,   46.2438,   45.7671,   44.6546,   45.3618,   47.8114,   49.1035,  999.0000,  999.0000,   54.0232,   55.0130,   53.5750,   51.8972,   50.8108,   50.0351,   50.5025,   49.5467,   49.3200,   50.5494,   50.1696,   49.6563,   50.8051,  999.0000,
  3-NOV-1996 11:06:30.64,    2.4038,    2.0958,  999.0000,  999.0000,  999.0000,  999.0000,  999.0000,  999.0000,  999.0000,  999.0000,  999.0000,  999.0000,  999.0000,  999.0000,   22.8419,   24.5342,   26.1870,   26.2347,   26.4287,   25.2926,   24.6526,   25.2714,  999.0000,   28.4875,   29.9656,   30.2326,   30.2924,   29.7175,   31.9176,   33.1579,   32.7177,   33.0019,   33.2997,   35.4635,   37.7999,   40.3147,   40.2924,   42.2958,   44.1799,  999.0000,   48.6835,   50.6852,   47.7718,   46.3842,   46.1758,   47.4027,   47.8278,   47.5949,  999.0000,   49.1670,   52.2811,   54.1278,   54.4343,   55.4004,  999.0000,  999.0000,  999.0000,  999.0000,  999.0000,   48.9247,   49.1916,   50.2320,   48.9951,   49.1925,  999.0000,
  3-NOV-1996 11:11:02.91,    2.2469,    2.4983,  999.0000,    0.8192,    0.3591,  999.0000,  999.0000,    6.1267,    5.8820,    6.6644,  999.0000,  999.0000,  999.0000,  999.0000,  999.0000,  999.0000,   26.3270,   26.5058,   26.3209,   26.2148,   25.8865,   26.2275,   27.5393,   29.0388,   29.0562,   30.3888,   30.5007,  999.0000,   32.1679,   33.6555,   33.2709,   32.6732,   33.6012,   36.3560,   38.6402,   40.9324,   40.4099,   41.7270,   44.1779,   44.7401,   47.4775,   50.9044,   49.0901,   47.6340,   46.8144,   47.0777,   47.3847,   47.4886,   48.9196,   50.5240,   51.8052,   53.2102,  999.0000,   54.6976,   52.4147,   52.8869,   53.3898,   53.3203,   52.4401,   52.0861,   51.8974,   52.0101,   51.4600,   50.9151,   51.2869,
  3-NOV-1996 11:15:32.48,    3.1088,    2.8705,  999.0000,  999.0000,  999.0000,  999.0000,  999.0000,  999.0000,  999.0000,  999.0000,  999.0000,  999.0000,   18.8942,   19.5519,  999.0000,   25.6297,   26.2169,  999.0000,  999.0000,  999.0000,  999.0000,  999.0000,  999.0000,   29.0476,   29.4385,   30.7885,   30.7066,   30.2232,   31.2330,   33.0935,   33.2903,   33.1916,   33.6854,   37.0219,   39.4179,   40.6343,   40.8286,   40.4729,   42.7795,   44.4695,   46.6578,  999.0000,   47.2342,   47.1549,   47.2193,   46.9947,   46.5372,   46.4380,   48.4512,   50.1010,   51.1265,   52.5877,   54.3002,   54.4695,   52.8659,   51.9501,   52.8935,   52.8952,   52.5540,   51.7457,  999.0000,   50.2765,   50.9964,   52.2207,   52.5949,
  3-NOV-1996 11:20:01.58,    3.2747,    2.3152,    1.6947,    1.5084,  999.0000,  999.0000,  999.0000,  999.0000,  999.0000,  999.0000,  999.0000,  999.0000,   19.8532,   20.8244,  999.0000,   25.1211,   26.3814,   26.5087,   26.0627,   25.7763,   26.2930,   27.1944,   28.5071,   29.0688,   29.5247,   29.9649,   30.3551,   30.4021,   30.9791,   33.2933,   33.2567,   33.3292,   34.2359,   36.8707,   39.0435,   40.7286,   40.9678,   41.8670,   43.9243,   46.2463,   48.9082,   49.3578,   47.4188,   47.1883,   47.0018,   46.7769,   46.9360,  999.0000,   49.1479,   50.4271,   52.1925,   54.6791,   55.5726,   54.4420,   52.4124,   52.8529,   52.8719,   52.4537,   53.3541,   52.8655,   52.3965,   51.9934,   51.6300,   52.3267,   53.1163,
  3-NOV-1996 11:24:30.83,    2.5709,  999.0000,    1.5644,    1.1642,    2.2976,  999.0000,    6.4317,    7.9230,    9.5739,   11.7351,   14.7081,   17.8488,   19.5240,   20.7312,   22.8898,   25.4264,   26.5118,  999.0000,   26.8464,   26.4412,   26.2608,   27.1258,   28.6868,   29.0904,   30.3747,   30.4137,   29.7898,   30.4047,   31.6297,   33.3884,   33.3044,   32.4454,  999.0000,   36.5230,   39.2183,   39.9321,   40.3865,   41.6424,   44.3269,   46.1057,   48.6451,   48.3920,   46.9645,   47.0126,   47.2259,   47.2539,  999.0000,   47.7185,   48.1842,   48.8559,   50.9065,   52.5689,   53.7197,   54.0561,   53.5457,  999.0000,  999.0000,   51.8741,   52.1024,   52.6898,   52.8960,   52.2260,   51.9959,   52.7491,   52.7486,
  3-NOV-1996 11:29:01.36,    3.3590,    2.9277,  999.0000,  999.0000,  999.0000,  999.0000,    7.2759,    8.3697,  999.0000,  999.0000,  999.0000,   18.3194,   19.6220,   21.0077,  999.0000,   25.8754,   26.5294,   26.3997,  999.0000,   26.6716,   26.7612,   27.3670,   28.8170,   28.9749,   30.2006,   30.2800,   30.1944,   29.8188,   31.2950,   33.4875,   32.9820,   32.4499,   35.3302,   35.8137,   38.8279,   40.7338,   40.2146,   39.9872,  999.0000,  999.0000,   48.8171,   48.8569,   48.3368,   47.8058,   47.2671,   48.4410,   48.3779,   47.9287,   47.8132,   48.5571,   50.3936,   51.7944,   52.4771,   53.4572,   53.0662,   52.2013,   53.1458,   51.4795,   51.8255,   53.3676,   52.6947,   52.7186,  999.0000,  999.0000,   53.5938,
  3-NOV-1996 11:33:31.06,  999.0000,  999.0000,    3.5188,    3.2987,    2.8599,  999.0000,  999.0000,  999.0000,    9.5309,   10.2550,   11.7137,  999.0000,   19.1334,   21.3328,   23.5238,   26.4888,   27.2184,   27.4464,   26.3486,   26.2996,   26.9122,   27.5503,   29.3045,   29.8764,   30.5343,   30.4617,   30.0499,   29.6506,   31.4894,   33.1310,   32.8798,   32.2901,   33.0730,   35.0854,   37.9391,   40.1636,   41.3275,   41.0311,   42.8952,   46.3171,   48.3704,   48.9052,   48.4895,   47.7837,   47.9712,   48.2097,   48.9731,   48.9969,   48.0824,   49.5746,   51.3833,   51.6262,   53.0272,   53.9574,   53.8382,   53.7247,   53.4234,   54.3397,  999.0000,   53.7540,   53.5065,   53.6282,   52.3823,   52.5052,  999.0000,
  3-NOV-1996 11:38:01.01,    5.3869,    4.8576,    3.8687,  999.0000,    2.7980,    2.8251,    4.8388,    7.5001,    9.0462,    9.4049,  999.0000,  999.0000,  999.0000,   22.9391,   23.5802,   25.1641,   27.4421,   28.5672,  999.0000,   25.5905,   26.0174,   27.8746,   29.2999,   29.3578,   30.3434,   30.1028,   30.1388,   29.6411,   31.3320,   33.1427,   32.5124,   32.5451,   32.4882,  999.0000,  999.0000,   38.5486,   39.2769,   40.7573,   42.6137,   45.6256,   48.9910,   48.4022,   47.9780,   46.9170,   47.2745,   47.2982,   46.7246,   47.1008,   48.2126,   49.0912,   50.6210,   52.0173,   53.5353,   53.6431,   52.9091,   53.1893,   53.0393,   52.8588,   52.4151,   52.1069,  999.0000,   51.7653,   53.2726,   53.8417,  999.0000,
  3-NOV-1996 11:42:30.69,    4.6595,    5.1105,    5.0432,  999.0000,  999.0000,  999.0000,  999.0000,  999.0000,  999.0000,  999.0000,  999.0000,   16.9911,   18.9152,   19.8322,  999.0000,  999.0000,   26.3083,   26.1926,   25.5674,  999.0000,   25.3898,   26.8262,   28.2528,   29.1773,   29.9473,   30.1008,   29.9968,   30.0491,   31.0273,   33.2244,   32.7896,   32.0326,   32.4598,   35.5766,   37.7106,   39.1914,   39.4676,   40.9770,   43.2990,   45.3608,   48.8709,   49.1648,   47.9529,   47.0432,   48.2120,   48.5578,   48.6726,   48.4228,   48.2854,   49.6336,   49.8883,   51.9135,   53.4391,   53.4933,   52.0337,   52.9835,   53.5380,   52.9057,   52.4490,   52.1899,   52.4464,   52.1759,   53.1441,   54.7057,   56.8991,
  3-NOV-1996 11:47:00.96,    4.8084,    3.6006,    3.1053,    3.0875,  999.0000,  999.0000,  999.0000,  999.0000,  999.0000,  999.0000,  999.0000,  999.0000,  999.0000,  999.0000,  999.0000,  999.0000,  999.0000,   26.2796,   25.3999,   25.8997,   26.2759,   26.7347,   28.3810,   29.0499,   29.2427,   30.2856,   30.3240,   29.3527,   30.3442,   32.9533,   33.4637,   33.6807,   33.9943,   34.8861,   37.1443,  999.0000,   39.6067,   40.0861,   42.4716,   44.6073,   48.5068,  999.0000,  999.0000,  999.0000,   47.6432,   48.6390,   48.8103,   48.5979,   50.4639,   51.3331,   51.0018,   52.5336,   52.9452,   52.1857,   53.0094,   54.1180,   53.3014,   52.7144,   51.8983,   51.6379,   52.0563,  999.0000,   51.0659,   53.8499,   55.2484,
  3-NOV-1996 11:51:31.50,    3.5863,    2.9300,    2.2242,    2.1546,  999.0000,    4.2078,    5.1558,  999.0000,    7.7877,    8.5951,  999.0000,   16.4224,   18.2932,   19.5365,   21.6591,   24.2841,   25.1109,   25.2669,   25.4553,   25.3704,   26.0814,   27.4548,   28.7874,   29.2290,   29.1623,   30.7922,   29.6904,   29.1702,   30.8994,   32.2540,   32.8696,   33.2208,   33.0631,   34.6218,   36.4052,   39.1535,   40.5486,   41.3302,   43.4253,   45.5268,   48.4874,   48.2065,   49.0619,   47.1033,   47.0836,   48.1838,   49.1202,   49.1725,   50.0380,   51.3644,   52.0395,   53.5440,   53.8099,   52.5887,   53.3454,  999.0000,   53.0067,   52.4510,  999.0000,   53.2020,   52.6779,   50.6216,   50.9048,   53.7765,   55.2962,
  3-NOV-1996 11:56:01.57,    4.8344,  999.0000,  999.0000,  999.0000,  999.0000,  999.0000,  999.0000,  999.0000,  999.0000,  999.0000,  999.0000,  999.0000,   18.8096,   19.8956,  999.0000,  999.0000,   26.2311,   26.5706,   25.6231,   25.7059,   26.2234,   27.4248,  999.0000,   29.0439,   29.1977,   30.4040,   29.2775,   28.5356,   29.9079,   30.8611,   32.5425,   32.2827,   33.3108,   33.2465,   36.4618,   38.4785,   39.4633,   41.0468,   43.3252,   44.8239,   48.3435,   50.2494,  999.0000,   47.9080,   47.8127,   47.2084,   48.5734,   49.6248,   50.5706,   51.7540,   52.9343,   54.4158,   54.8684,   53.3211,   52.4222,   52.7709,   52.1908,   51.7418,   52.3513,   52.9380,   52.4356,   52.3743,   53.6029,   54.6972,   54.6314,
  3-NOV-1996 12:00:31.42,    4.1734,    4.4211,  999.0000,  999.0000,  999.0000,  999.0000,    6.1115,    7.9275,    8.5637,   10.1951,   14.0349,   16.8962,   18.4418,   19.9808,   22.7027,   25.2399,   26.4702,   26.5465,   26.0408,   26.0643,   26.8241,   27.6318,   28.2741,   29.6653,   29.5437,   29.9671,   29.7610,   29.3074,   31.5810,   32.3006,   33.0776,   32.9222,   32.5530,   34.2827,   36.9012,   38.3101,   39.2977,   40.2324,   42.0507,   44.8615,   47.7085,   48.4364,   47.9937,   48.9045,   48.1269,   47.6228,   48.9641,   49.2689,   49.1912,   50.8925,   52.8378,   54.0535,   54.3835,   53.8887,   54.3327,  999.0000,   52.7474,   52.3888,   54.5497,   55.8735,  999.0000,   53.4226,   53.3931,   54.7031,   54.5790,
  3-NOV-1996 12:05:01.41,  999.0000,  999.0000,  999.0000,  999.0000,  999.0000,  999.0000,    5.3331,    7.1068,  999.0000,  999.0000,  999.0000,  999.0000,  999.0000,  999.0000,   23.3299,   25.1858,  999.0000,   27.2022,   27.1475,   26.4470,   26.3626,   27.9278,   28.9889,   29.4077,   29.5980,   30.1670,   29.8907,   29.0097,   30.2131,   31.5679,   32.8445,   32.6630,   31.7907,   33.4439,   35.8469,   36.8193,   38.5044,   39.5499,   41.6560,   44.5878,   48.4617,   49.6589,   48.1408,   48.5611,   47.7669,   48.2582,   50.3278,   51.2656,   51.1022,   51.6403,   52.6032,   53.0255,   53.7874,   53.1287,   53.1602,   53.7559,   54.5867,   53.3307,   53.8257,   54.2055,   52.2465,   51.6108,   52.5526,   54.1796,   55.0171,
  3-NOV-1996 12:09:31.13,    5.7807,  999.0000,    3.1963,    2.7328,    2.7175,  999.0000,  999.0000,  999.0000,  999.0000,  999.0000,  999.0000,  999.0000,   18.6195,   19.9940,  999.0000,  999.0000,   26.3147,   26.8335,   26.2104,   26.4426,   26.9109,  999.0000,   28.3349,   29.4860,   29.6660,   29.8653,   29.9685,   29.7180,   30.3743,   30.9739,   32.5150,   32.1515,   31.8539,   33.5937,   36.1843,   37.4539,   38.6717,   40.5059,   42.1539,   43.0515,  999.0000,   48.5564,   47.9614,   47.7119,   47.4973,   47.9821,  999.0000,   49.2555,   49.8202,   51.4205,  999.0000,  999.0000,   52.9374,   52.5436,   52.4950,   53.0087,   53.0580,   53.1779,   53.4867,   54.2363,  999.0000,  999.0000,  999.0000,  999.0000,  999.0000,
  3-NOV-1996 12:14:01.31,    4.7006,    4.1664,    3.1160,    2.7042,  999.0000,    4.7207,    5.4492,    6.4780,    7.3298,    8.4718,  999.0000,  999.0000,   18.1174,   19.4307,   21.0358,   23.8931,   25.7622,   26.0797,   25.9933,   26.2027,   26.4087,   27.8512,  999.0000,   30.2404,   29.3537,   29.8843,   29.4756,  999.0000,   31.9447,   31.9217,   33.1701,   33.2762,   32.8478,   34.2291,   36.9978,   38.3247,   39.4709,   40.3978,   42.3543,   43.9598,   47.3462,   49.5717,   47.9365,   48.4351,   48.1456,   48.4422,   49.7337,   50.5908,   51.7333,   53.4611,   53.8447,   52.0591,   51.8524,  999.0000,   53.0794,   52.4039,   52.6016,   52.8809,   52.6881,   51.7107,   52.8044,   53.5814,   53.7465,   52.9798,   51.9876,
  3-NOV-1996 12:18:31.69,    3.0242,    3.0741,    2.6322,    2.3714,    2.7021,    2.8856,  999.0000,    5.8813,    6.7370,  999.0000,  999.0000,  999.0000,   18.3068,   19.9397,   22.8367,   24.7041,   26.3938,   25.9853,   25.9175,   26.1032,   26.6516,   28.1809,   29.6091,   30.1350,   29.6567,   29.8956,   29.9019,   29.1626,   31.3789,   32.0834,   33.6084,   33.4038,   33.7357,   35.3432,   37.3751,   38.3233,   39.6663,   39.8762,   42.7567,   44.2822,   47.5638,   49.2968,   48.6287,   48.7817,   47.7569,   47.7788,   49.7427,   51.0279,   52.4185,   52.9719,   51.7749,   50.9077,   51.9875,  999.0000,  999.0000,  999.0000,   51.8026,   51.0832,   50.9927,   50.8292,   52.4447,   54.2212,   53.4531,   53.0489,   52.9751,
  3-NOV-1996 12:23:01.90,    5.4189,  999.0000,    3.6577,    3.0678,    3.1718,  999.0000,  999.0000,    7.0612,    7.9013,    8.6757,  999.0000,  999.0000,   18.2542,   19.7470,   21.7337,   24.4935,   26.2750,   26.6769,   26.2431,   25.9297,   26.0297,   27.1192,   28.6429,   30.0432,   29.2176,   29.7421,   29.6325,   29.1370,   31.4558,   31.6374,   33.2071,   33.3767,   33.4966,   34.6204,   36.9213,   38.5226,   39.8670,   39.8467,   42.5133,   44.3501,   47.8443,   49.0759,   47.5425,   47.6879,   47.7606,   47.6796,   48.6650,   50.1852,   52.4149,   52.8082,   52.4819,   53.0257,   53.2842,   53.2160,   53.9290,   54.1364,  999.0000,  999.0000,  999.0000,   52.6076,   54.4013,  999.0000,   53.8233,   52.6867,   53.0824,
  3-NOV-1996 12:27:31.86,    4.9986,  999.0000,    3.2274,    2.3896,  999.0000,    4.5586,    5.1061,    6.2382,    6.5205,    7.4679,  999.0000,  999.0000,   17.8794,   19.6537,   21.6761,   24.0338,   26.0368,   26.5651,   25.6977,   26.0012,   26.3791,   27.5047,   28.9861,   29.4870,   28.9032,   29.5037,   30.2728,   30.1404,   31.3008,   32.6948,   32.9121,   32.9772,   33.0830,   34.1943,   36.2730,   38.6651,   39.6109,   39.4801,   42.0460,   43.9255,   46.8978,   47.4986,   47.5149,   47.1512,   47.3305,   46.9689,   48.4878,   49.5518,   50.2651,   50.9058,   52.2266,   53.0495,   53.8155,   54.6261,   53.2714,   53.2694,   53.2580,   52.1618,   51.1705,   52.2603,   53.3943,   52.7369,   51.9390,   52.2616,   51.0437,
  3-NOV-1996 12:32:02.36,    3.3353,    3.4541,  999.0000,  999.0000,  999.0000,  999.0000,  999.0000,  999.0000,  999.0000,  999.0000,  999.0000,  999.0000,   18.2450,   19.6063,   21.6120,   23.5611,   25.2784,   26.1015,   26.1857,   26.5290,   26.0239,   27.1084,   28.3273,   29.8223,   29.2616,   29.5548,   29.9904,  999.0000,   30.9877,   31.8464,   32.2199,   32.9170,   31.6434,   34.8014,   36.5622,   38.6158,   39.6283,   40.2168,   42.5768,   44.2057,   46.4066,   47.8888,   49.6938,   47.5451,   47.7042,   47.5836,   49.0075,   50.3618,   49.6574,   50.4497,   53.2647,   54.0606,   53.8409,   54.9328,   54.3229,   53.3262,  999.0000,   50.8112,  999.0000,  999.0000,   52.7679,   52.0544,   51.5956,   52.4099,   51.1717,
  3-NOV-1996 12:36:32.21,    4.8464,    5.1478,  999.0000,  999.0000,  999.0000,  999.0000,  999.0000,    5.4963,    6.0112,    6.9819,  999.0000,  999.0000,   17.9236,   19.4183,   21.4925,   23.2667,  999.0000,  999.0000,  999.0000,   26.1031,   26.4479,   27.3163,   28.3432,   27.8808,   29.2423,   29.7245,   30.5148,   29.8223,   31.7816,   32.2068,   32.7199,   32.3008,   33.0314,   35.4465,   37.7893,   39.5781,   39.2209,   40.9996,   43.2768,   44.3086,   46.7573,   48.5451,   49.1569,   47.6282,   47.7052,   47.1959,   46.4755,   47.4790,   47.4768,   49.3232,   51.7537,   52.5999,   53.0150,   53.5613,   54.1358,   53.7573,   53.6750,   51.6233,   51.0353,   51.2167,   52.0790,   53.1104,  999.0000,   54.6743,   53.9828,
  3-NOV-1996 12:41:02.84,    2.6848,  999.0000,  999.0000,    3.1544,    3.1760,  999.0000,    5.1725,    5.0979,    6.4361,    7.1697,  999.0000,  999.0000,  999.0000,  999.0000,   21.9094,   23.2476,   24.5887,   25.7679,   25.5281,   25.3822,   27.1104,   27.9148,  999.0000,   28.3942,   29.0790,   29.6286,   30.1419,   29.5455,   31.6821,   32.8481,   32.6100,   33.1474,   33.1006,   34.0459,   36.1393,   38.4630,   38.3682,   40.5931,   42.7136,   43.8833,   47.5962,  999.0000,   49.5257,   47.4827,   47.3186,   47.5217,   47.5004,   48.3748,   48.6860,   49.8982,   51.6330,   52.9706,   52.9568,   52.7551,   52.5000,   51.8965,   51.9267,   51.7901,   53.4576,   54.0830,  999.0000,  999.0000,   51.6396,   52.1556,  999.0000,
  3-NOV-1996 12:45:33.59,    3.5838,    4.0540,    5.0173,    5.4140,    5.4581,    5.5151,    5.5847,  999.0000,  999.0000,  999.0000,  999.0000,  999.0000,  999.0000,  999.0000,  999.0000,   24.6078,   26.0877,   26.0344,   26.1203,  999.0000,   27.6058,   28.4836,   28.6795,   28.9520,   29.4543,   29.0426,   30.0211,   29.4694,   31.6133,   32.4596,   32.7476,   33.8080,   33.0866,   34.4772,   36.8218,   37.7943,   38.3960,   39.4321,   42.3867,   44.3384,   47.8813,   49.8167,   49.5789,   48.5333,  999.0000,   46.2833,   47.0209,   48.0574,   48.9266,   51.6206,   52.7863,   54.2675,   55.3653,   54.4304,   53.4204,   53.2350,   52.5304,   51.5781,   52.9000,   54.5905,   54.5907,   53.5473,  999.0000,   52.3411,   52.7495,
  3-NOV-1996 12:50:03.88,    5.7223,    4.9076,    5.2086,    5.4277,    5.5025,    5.7547,    6.1443,  999.0000,  999.0000,  999.0000,  999.0000,  999.0000,  999.0000,  999.0000,  999.0000,   24.2366,   25.2547,  999.0000,  999.0000,  999.0000,  999.0000,   28.0387,   29.0265,   27.8927,   29.4605,   29.0755,   28.6763,   29.3135,   32.1346,   32.8491,   32.2116,   33.5744,   33.1662,   35.2832,   37.8883,   38.1846,   39.0632,   39.7955,   42.3688,   44.2096,  999.0000,  999.0000,   49.8158,   48.7736,   47.9197,   45.9898,   46.6051,   47.4031,   48.2845,   50.5768,   51.8058,   52.7811,   53.5307,   53.7882,   53.8469,   54.6955,   54.0071,   52.4599,  999.0000,   51.2478,  999.0000,  999.0000,   53.2591,   53.8576,   53.6838,
  3-NOV-1996 12:54:34.00,    7.2689,  999.0000,    5.6053,    5.4458,    5.4279,    5.3390,  999.0000,  999.0000,  999.0000,  999.0000,  999.0000,  999.0000,  999.0000,  999.0000,   21.8430,   23.1738,   25.0862,   26.0018,  999.0000,  999.0000,  999.0000,  999.0000,  999.0000,  999.0000,  999.0000,   29.2387,   28.7276,   29.5483,   30.9432,   32.8907,   32.1835,   33.1231,   33.6562,   35.5029,   37.8468,   38.7411,   38.2900,   39.9576,   42.4145,   44.5154,   47.6428,   50.3581,   50.3116,   50.5857,  999.0000,   45.8194,   45.7760,   48.0281,   48.4981,   49.7764,   52.8890,   53.4522,   53.6688,   54.2287,   54.5198,  999.0000,  999.0000,  999.0000,  999.0000,   51.2391,   53.0566,   54.0625,   54.2184,   53.8013,  999.0000,
  3-NOV-1996 12:59:04.45,    4.9470,    4.9333,    5.1997,    5.2636,    5.3190,  999.0000,  999.0000,  999.0000,    6.0579,    6.5636,    8.0176,  999.0000,  999.0000,  999.0000,   22.4765,   24.3139,   26.0387,   26.3728,   26.6892,   26.4866,   26.7969,   27.9963,   28.1514,   29.2793,   29.8239,   29.3660,   29.2604,   29.8262,   32.4675,   33.1732,   32.8983,   34.4501,   33.7367,   35.4232,   37.6197,   38.6156,   38.3635,   39.2594,   42.1510,   44.6227,   47.8662,   50.3054,   50.7214,   50.3799,   46.5412,   45.4706,   46.8989,   47.2309,   48.0935,   49.0479,   51.4423,   52.9057,   52.1463,   52.5078,  999.0000,   52.6306,  999.0000,  999.0000,  999.0000,  999.0000,  999.0000,   53.0733,   52.8702,   54.0554,   53.7449,
  3-NOV-1996 13:03:36.06,    2.5516,  999.0000,  999.0000,  999.0000,  999.0000,  999.0000,    5.5372,    6.2585,    5.8251,  999.0000,  999.0000,  999.0000,  999.0000,  999.0000,  999.0000,  999.0000,  999.0000,  999.0000,   26.8102,   26.5597,   26.4004,   27.4030,   27.9197,   27.9198,   29.5326,   29.1464,   28.9002,   29.5719,  999.0000,   32.4386,   32.7649,   33.6180,   33.9901,   35.4892,   37.3166,   37.9178,   38.3440,   39.1744,   41.8802,   44.9189,   48.4322,   49.2751,   49.6448,   47.3764,   47.0557,   46.0579,   45.8574,   47.0305,   47.7639,  999.0000,  999.0000,   52.1152,   51.6465,   52.7067,   53.8883,   53.1019,   53.1070,   53.0679,   52.2210,   53.5850,  999.0000,   54.6523,   53.1382,   53.4865,   53.5411,
  3-NOV-1996 13:08:06.89,  999.0000,  999.0000,  999.0000,    3.4316,    3.8731,    4.4037,  999.0000,    6.6538,    6.1399,    5.4772,  999.0000,  999.0000,  999.0000,  999.0000,  999.0000,   24.0950,   25.3729,   25.4065,   25.6801,   26.1573,   26.6453,   27.3145,   28.2688,   28.2680,   30.1334,   29.2820,   29.2766,   29.8470,   30.9489,   32.4900,   32.4536,   33.5423,   33.4963,   34.6745,   36.8015,   37.9954,   38.5592,   39.5529,   41.6966,   44.9461,   48.4505,   50.3358,   50.4682,   48.5390,   47.3793,   46.4954,   45.7960,   47.7725,   48.1320,   48.3068,   50.3938,   51.8297,   51.2569,   51.8834,   53.1726,   53.7413,   53.5881,   53.6162,   53.5518,   53.4625,   53.4678,   54.2554,   53.6583,  999.0000,   51.5424,
  3-NOV-1996 13:12:36.75,    5.7756,    5.0146,    5.1196,    5.3260,    5.4188,    5.2295,    5.2337,    5.9746,    6.8793,    5.7296,  999.0000,  999.0000,  999.0000,  999.0000,  999.0000,   23.2680,   24.9203,   25.9369,   26.5724,   26.8793,   26.6887,   27.5833,   27.9255,   28.2955,   29.3670,   29.8569,   29.5946,   29.6530,   32.3315,   32.8663,   32.6463,   34.1251,   33.3458,   35.1716,   36.7777,   39.0263,   39.6375,   40.8293,   43.0160,   46.1996,   49.6226,   51.0421,   50.1424,   49.5987,   47.9399,   47.6956,   47.2219,   47.7753,   49.0869,   48.8821,   49.6427,   52.3047,   53.2393,   52.8696,   53.1605,   53.3934,   53.5436,   54.1385,   54.1438,  999.0000,   50.4759,   51.2720,   52.3671,   51.8633,   51.2692,
  3-NOV-1996 13:17:05.78,    5.8195,    4.6902,  999.0000,  999.0000,  999.0000,    4.1518,    4.4626,  999.0000,    6.1935,    6.2383,  999.0000,  999.0000,  999.0000,   18.0178,   20.9347,   23.3991,   25.8626,   26.5491,   26.3300,   26.7930,   26.6970,   26.8603,   27.4153,   27.6616,   28.1810,    5.0037,    6.0223,   30.0013,   33.0147,   33.0663,   32.2723,   32.9295,   33.3297,   35.3470,   37.1646,   37.7108,  999.0000,  999.0000,  999.0000,   47.3185,   49.4039,   49.6011,   49.1587,   49.2457,   49.1167,   47.8807,   46.7360,   47.1994,   47.8408,   48.4545,   50.5082,   52.1085,   52.5341,   53.1574,  999.0000,  999.0000,  999.0000,  999.0000,   51.6929,   52.2846,   52.4948,   52.5394,  999.0000,  999.0000,  999.0000,
  3-NOV-1996 13:21:34.94,    7.5357,  999.0000,    5.6682,    5.4076,  999.0000,  999.0000,  999.0000,  999.0000,  999.0000,  999.0000,  999.0000,  999.0000,  999.0000,  999.0000,  999.0000,  999.0000,   25.8485,   26.2363,   26.4182,   26.6868,   26.6868,   26.4839,   27.0516,   28.4996,   29.4126,   24.0865,   28.8521,   29.9024,   32.4815,   33.5006,   32.5209,   34.2903,   33.4712,   35.1251,   36.5593,   38.5283,   38.2459,   39.5266,   43.0380,   47.0943,   47.7007,   49.5443,   48.6255,   47.6157,   47.6961,   48.2954,   47.0839,   47.3225,   47.6492,   47.7269,   49.4547,   51.5858,   51.9975,   52.4461,   53.3738,   53.1047,   52.5037,   51.5150,   52.2177,   53.3598,   52.2721,   51.3098,   49.8944,   48.8573,   49.5074,
  3-NOV-1996 13:26:04.15,    6.0226,    5.0791,    5.1815,  999.0000,    5.1272,    5.2995,    5.1949,  999.0000,  999.0000,  999.0000,  999.0000,  999.0000,   17.9378,   19.3459,  999.0000,   24.5650,   26.1622,   26.4410,  999.0000,   26.7677,   27.4619,   27.5745,   27.7491,   27.9398,   28.4847,   29.0025,   29.6061,   29.7118,   31.7155,   32.1623,   32.4128,   33.3384,   32.8810,   34.7928,   36.4147,   37.9242,   38.6023,   40.3512,   43.5831,   46.5258,   49.1176,   49.6987,   49.7947,   48.8774,   48.8555,   49.1262,  999.0000,  999.0000,   48.1012,   48.8458,   49.9448,   51.3834,   52.1833,   52.1053,   52.9658,   53.0314,   50.8858,   50.4124,   51.3071,  999.0000,  999.0000,   51.4233,   50.8946,  999.0000,  999.0000,
  3-NOV-1996 13:30:33.41,    5.7484,    5.0511,    5.3468,    5.3382,  999.0000,  999.0000,  999.0000,  999.0000,  999.0000,  999.0000,  999.0000,  999.0000,  999.0000,   18.4746,   20.1880,  999.0000,   25.5358,   26.1988,  999.0000,   26.8564,   27.2846,   27.2162,   27.4613,   27.6887,   28.5039,   28.7581,   28.9043,   30.3794,  999.0000,  999.0000,  999.0000,  999.0000,  999.0000,  999.0000,  999.0000,  999.0000,  999.0000,  999.0000,  999.0000,  999.0000,  999.0000,  999.0000,  999.0000,  999.0000,  999.0000,  999.0000,  999.0000,  999.0000,  999.0000,  999.0000,  999.0000,  999.0000,  999.0000,  999.0000,  999.0000,  999.0000,  999.0000,  999.0000,  999.0000,  999.0000,  999.0000,  999.0000,  999.0000,  999.0000,  999.0000,
  3-NOV-1996 13:35:02.72,    6.3054,  999.0000,    5.2654,    5.0534,  999.0000,    5.0584,    5.0444,  999.0000,  999.0000,  999.0000,  999.0000,  999.0000,  999.0000,  999.0000,  999.0000,  999.0000,  999.0000,  999.0000,  999.0000,  999.0000,  999.0000,  999.0000,  999.0000,   28.3653,   28.5655,   28.8968,   26.5402,   30.3608,  999.0000,  999.0000,  999.0000,  999.0000,  999.0000,   34.9469,   36.3435,  999.0000,  999.0000,  999.0000,  999.0000,  999.0000,  999.0000,  999.0000,  999.0000,  999.0000,  999.0000,  999.0000,  999.0000,  999.0000,   48.5791,   49.2056,  999.0000,  999.0000,   52.0366,   52.9925,   52.5791,  999.0000,  999.0000,  999.0000,  999.0000,   53.8076,   53.7060,  999.0000,  999.0000,  999.0000,  999.0000,
  3-NOV-1996 13:39:31.91,    3.8679,    3.6918,    3.4566,    3.0368,  999.0000,  999.0000,  999.0000,  999.0000,  999.0000,  999.0000,  999.0000,  999.0000,  999.0000,  999.0000,  999.0000,  999.0000,  999.0000,  999.0000,  999.0000,  999.0000,  999.0000,  999.0000,  999.0000,   28.5631,   28.3085,   29.3596,  999.0000,   31.7075,   33.6726,   33.6181,  999.0000,  999.0000,   33.5532,   34.0733,  999.0000,   40.0618,   38.7364,   39.7290,   42.6551,   45.4308,   47.3486,   48.7333,   48.9995,   48.9016,   48.0394,   48.0901,   48.0396,   48.5111,   48.3712,   49.6064,   52.2932,   53.5342,   52.7095,   52.5160,   53.3425,   54.0944,   54.2629,   53.2117,   53.4183,   53.6300,   53.1485,   53.0900,   53.3348,   54.4984,   54.4159,
  3-NOV-1996 13:44:00.94,    4.8172,    4.9011,    5.0052,  999.0000,  999.0000,    2.8288,    2.9853,    5.4852,    7.2831,    8.1331,  999.0000,  999.0000,   17.8202,   19.9696,  999.0000,  999.0000,  999.0000,  999.0000,  999.0000,  999.0000,  999.0000,  999.0000,  999.0000,  999.0000,  999.0000,  999.0000,  999.0000,   31.8314,   33.1223,   32.1454,   32.8306,  999.0000,   33.4605,   34.6136,   36.2742,  999.0000,   38.7417,   39.7653,  999.0000,  999.0000,  999.0000,  999.0000,  999.0000,  999.0000,  999.0000,  999.0000,  999.0000,  999.0000,  999.0000,  999.0000,  999.0000,  999.0000,  999.0000,  999.0000,  999.0000,  999.0000,  999.0000,   54.9367,   55.4877,   55.6684,  999.0000,   54.4691,   54.2484,   54.5575,   53.9902,
  3-NOV-1996 13:48:30.17,    2.8360,    2.8571,    2.8402,    2.8224,    2.9201,    2.7725,    2.6744,  999.0000,  999.0000,  999.0000,  999.0000,  999.0000,  999.0000,  999.0000,  999.0000,  999.0000,  999.0000,  999.0000,  999.0000,  999.0000,  999.0000,  999.0000,   28.4532,   28.3136,   28.2918,   29.1761,   29.4815,   31.8380,   33.2802,   32.2844,   33.9170,   34.0689,   33.6730,   35.4465,   37.1782,  999.0000,   38.1414,   39.0514,   41.8922,   44.8425,   48.4829,   50.8585,   51.0511,   49.3208,   48.3272,   47.6618,   47.8760,   49.1944,   48.8925,   49.5208,   51.6756,   53.0203,   53.2196,   53.6901,   54.1154,   53.5845,   52.9569,   52.9670,   53.2801,   54.4189,   54.8863,   55.4594,  999.0000,   55.5000,   54.1344,
  3-NOV-1996 13:52:59.56,    3.3717,    3.4281,    3.4517,    3.2696,    4.0193,    3.3665,    2.9034,    4.4677,  999.0000,  999.0000,  999.0000,  999.0000,  999.0000,  999.0000,  999.0000,  999.0000,   26.4589,   26.8114,  999.0000,  999.0000,  999.0000,   27.4481,   28.3731,   29.2545,   28.5317,   29.2364,   30.0920,   32.1858,   33.6188,   33.1094,  999.0000,   33.9463,   34.3574,   36.0733,   37.1033,   38.7253,   38.2823,   39.0159,   41.6320,   44.4751,   48.5116,  999.0000,   50.9803,   48.3434,   46.8682,   47.7730,   48.9490,   49.3599,   49.6925,   50.9111,   52.2272,   53.2946,   54.5390,   53.5670,   52.5109,   53.5141,   53.4130,  999.0000,  999.0000,   54.5515,   55.7257,   56.8578,  999.0000,   51.7351,   51.6545,
  3-NOV-1996 13:57:28.53,  999.0000,  999.0000,    5.2701,    5.4085,    5.0557,    4.8393,    4.9233,  999.0000,  999.0000,  999.0000,  999.0000,   16.8164,   18.3885,   21.4465,   24.3802,   25.6135,   27.4002,   27.4499,  999.0000,  999.0000,  999.0000,   28.1542,   28.7778,   28.9966,   28.3925,   28.9033,   30.0627,   32.4976,   33.7633,   32.5504,   35.7831,   34.4273,   34.9329,   35.9167,  999.0000,   37.6305,   37.7510,   38.9753,   41.3363,   42.9547,   48.3009,   49.8615,  999.0000,   46.6593,   46.7050,   48.2221,   48.9610,   48.4858,   48.9360,   51.7977,   53.1869,  999.0000,  999.0000,  999.0000,  999.0000,  999.0000,  999.0000,  999.0000,  999.0000,  999.0000,  999.0000,  999.0000,  999.0000,  999.0000,  999.0000,
  3-NOV-1996 14:01:57.73,    5.8719,  999.0000,  999.0000,  999.0000,    3.4314,    3.0689,    3.1916,  999.0000,  999.0000,   10.9604,   12.4339,   14.4739,   17.1303,  999.0000,  999.0000,  999.0000,  999.0000,  999.0000,  999.0000,  999.0000,  999.0000,  999.0000,   28.7638,   28.7720,   28.1418,   28.8942,   30.2832,   32.4981,   32.8483,   32.1989,   33.8474,   33.3579,   34.4896,   36.4395,  999.0000,  999.0000,  999.0000,  999.0000,  999.0000,  999.0000,  999.0000,   49.4932,   49.5340,   48.3045,   48.3812,   48.2167,   48.1862,   48.8330,   51.0033,   51.1683,   51.1962,   53.1261,   54.1266,  999.0000,  999.0000,  999.0000,  999.0000,   54.6931,   53.3284,   53.7683,  999.0000,   54.1923,   52.7537,   53.7837,   53.4875,
  3-NOV-1996 14:06:26.86,    7.8534,  999.0000,    5.8409,    5.2704,  999.0000,    4.7243,    5.1150,    6.6985,  999.0000,   10.3157,   11.6638,   14.0435,   17.5538,  999.0000,  999.0000,  999.0000,  999.0000,  999.0000,  999.0000,  999.0000,  999.0000,  999.0000,  999.0000,   29.4508,   27.9628,   28.8149,  999.0000,   31.9168,   33.0380,   32.7353,   33.7841,   32.6871,   34.2068,   36.3996,   36.7786,   37.0528,   37.9017,   39.3444,   41.0656,   44.3035,   47.3002,   48.8179,   49.4127,   48.8520,   48.5673,   48.0097,   47.8704,   48.9050,   49.5993,   49.7786,  999.0000,  999.0000,   54.2995,   54.6665,   54.6943,   54.4258,   54.3173,   55.2461,   55.0815,   54.8402,   54.2788,   53.6150,   52.8753,   53.3190,   53.8355,
  3-NOV-1996 14:10:55.90,    5.4407,    5.4319,    5.4593,    5.0598,    5.1922,    4.6573,    4.7879,  999.0000,  999.0000,  999.0000,  999.0000,  999.0000,  999.0000,  999.0000,  999.0000,  999.0000,  999.0000,  999.0000,  999.0000,  999.0000,  999.0000,  999.0000,  999.0000,  999.0000,  999.0000,  999.0000,  999.0000,  999.0000,  999.0000,  999.0000,  999.0000,  999.0000,  999.0000,  999.0000,  999.0000,  999.0000,  999.0000,  999.0000,  999.0000,  999.0000,  999.0000,  999.0000,  999.0000,  999.0000,  999.0000,  999.0000,  999.0000,  999.0000,  999.0000,  999.0000,  999.0000,  999.0000,  999.0000,  999.0000,  999.0000,  999.0000,  999.0000,  999.0000,  999.0000,  999.0000,  999.0000,  999.0000,  999.0000,  999.0000,  999.0000,
  3-NOV-1996 14:15:26.68,    5.5712,    4.8396,    4.6559,  999.0000,    3.9638,    2.9027,  999.0000,    5.6123,    9.5915,   10.8592,   11.8300,   13.5340,  999.0000,  999.0000,  999.0000,  999.0000,  999.0000,  999.0000,  999.0000,  999.0000,  999.0000,  999.0000,  999.0000,   29.1351,   29.3332,  999.0000,  999.0000,  999.0000,   32.3611,   33.1900,   33.7937,  999.0000,  999.0000,  999.0000,   36.8965,   38.3463,   38.8368,   40.2046,   40.4848,  999.0000,  999.0000,  999.0000,  999.0000,  999.0000,  999.0000,  999.0000,  999.0000,  999.0000,  999.0000,  999.0000,  999.0000,   54.9427,   54.7692,   54.3494,  999.0000,  999.0000,  999.0000,  999.0000,  999.0000,  999.0000,  999.0000,  999.0000,  999.0000,  999.0000,  999.0000,
  3-NOV-1996 14:19:57.06,    2.1308,    1.9390,    0.9649,    0.6487,    0.6248,    0.8570,  999.0000,  999.0000,  999.0000,  999.0000,  999.0000,  999.0000,  999.0000,  999.0000,  999.0000,  999.0000,  999.0000,  999.0000,  999.0000,  999.0000,  999.0000,  999.0000,  999.0000,  999.0000,  999.0000,  999.0000,  999.0000,  999.0000,  999.0000,  999.0000,  999.0000,  999.0000,  999.0000,  999.0000,  999.0000,  999.0000,  999.0000,  999.0000,  999.0000,  999.0000,  999.0000,  999.0000,  999.0000,  999.0000,  999.0000,  999.0000,  999.0000,  999.0000,  999.0000,  999.0000,  999.0000,  999.0000,  999.0000,  999.0000,  999.0000,  999.0000,  999.0000,  999.0000,  999.0000,  999.0000,  999.0000,  999.0000,  999.0000,  999.0000,  999.0000,
  3-NOV-1996 14:24:26.16,  999.0000,    2.9723,    3.1866,    3.1881,    2.7695,    4.4251,    5.1415,    6.3306,  999.0000,  999.0000,  999.0000,   15.2155,  999.0000,  999.0000,  999.0000,  999.0000,  999.0000,  999.0000,  999.0000,  999.0000,  999.0000,  999.0000,  999.0000,  999.0000,   28.9560,   29.1503,   29.9455,   31.6987,  999.0000,  999.0000,  999.0000,  999.0000,  999.0000,  999.0000,  999.0000,  999.0000,   37.7918,   39.0498,  999.0000,  999.0000,   47.1935,  999.0000,  999.0000,  999.0000,  999.0000,  999.0000,  999.0000,  999.0000,  999.0000,  999.0000,  999.0000,  999.0000,  999.0000,  999.0000,  999.0000,  999.0000,  999.0000,  999.0000,  999.0000,  999.0000,  999.0000,  999.0000,  999.0000,  999.0000,  999.0000,
  3-NOV-1996 14:28:55.49,    5.5985,    5.4678,    5.4401,    5.4280,  999.0000,  999.0000,  999.0000,    7.4000,  999.0000,  999.0000,  999.0000,   14.9532,   16.6212,  999.0000,  999.0000,  999.0000,   25.7771,   26.3786,   25.9154,   25.9383,   26.4569,   27.5749,   28.4831,   28.4686,   29.2291,   30.3094,   29.7539,   31.4927,   32.4142,   32.9607,   33.6238,  999.0000,   34.6414,   36.1460,   36.9241,   36.8549,   37.6538,   38.4505,   40.6395,   43.8794,   46.2340,   47.5429,   49.0016,   49.2772,   48.6816,   48.9234,  999.0000,  999.0000,   48.0694,   49.9940,   51.2815,   52.6536,   53.6161,   53.4267,   53.9093,   53.7560,   52.7337,   52.8948,   52.8750,   51.9924,   52.3452,   51.2136,   49.7509,   49.8093,   49.6117,
  3-NOV-1996 14:33:25.07,    5.3845,    5.5660,    5.5244,  999.0000,    3.1030,    2.7604,  999.0000,  999.0000,   10.8306,   10.0220,  999.0000,  999.0000,  999.0000,  999.0000,  999.0000,  999.0000,  999.0000,  999.0000,  999.0000,  999.0000,  999.0000,  999.0000,  999.0000,   29.1294,   29.4164,   29.7833,   29.6722,   31.2878,   31.7009,   32.6785,   33.5485,   33.2611,   34.6910,   36.1138,   36.8851,   37.0202,   38.8320,   39.7836,   41.9836,   44.6234,   46.5458,   47.3252,   49.4669,   50.0284,   49.8791,   48.7694,   48.5067,   48.8870,   48.6735,   50.4464,   51.9623,   53.4077,   54.7544,   53.9899,   53.5063,   52.4572,   52.3534,   53.2389,   54.0260,   53.6100,   52.6460,   51.7767,   50.6850,   50.8242,   51.9471,
  3-NOV-1996 14:37:54.27,    5.5747,  999.0000,    5.5071,    5.3315,  999.0000,  999.0000,  999.0000,  999.0000,  999.0000,  999.0000,  999.0000,  999.0000,  999.0000,  999.0000,  999.0000,   24.5141,   25.1673,  999.0000,  999.0000,  999.0000,  999.0000,  999.0000,  999.0000,   29.6905,   29.2187,   30.3278,   29.9833,   31.5878,   32.2633,   33.0574,   33.8641,   34.0580,   35.6021,   37.3368,   37.5913,   38.4293,   40.1014,   40.1279,   42.2823,   44.2357,   45.3644,   47.5259,   48.7571,   49.1579,   49.1895,   49.6768,   49.0801,   48.1973,   48.4994,   49.9119,  999.0000,  999.0000,   54.5120,   54.5125,   54.1088,   53.0544,   52.8914,   53.1490,   52.9877,   52.9402,   52.8839,   52.4810,   51.2563,   50.6521,   51.9327,
  3-NOV-1996 14:42:23.43,    5.1441,    5.2869,  999.0000,  999.0000,    2.9765,    2.9180,  999.0000,  999.0000,  999.0000,  999.0000,   12.5244,   14.3416,  999.0000,  999.0000,  999.0000,  999.0000,  999.0000,  999.0000,   26.8470,   26.5232,   27.2122,   28.4989,   29.0291,   30.0281,   29.9659,   29.5588,   29.6872,   30.9540,   31.5152,   31.8074,   33.4488,   34.2936,   35.2498,   36.4381,   35.8154,   37.0197,   39.3709,   40.5997,   41.4329,   44.0941,   44.9143,   47.4364,   49.1720,   48.5087,   48.9539,   48.4675,   47.5739,   48.2359,   48.4538,   49.4183,   50.8201,   52.9481,   53.8179,   53.1633,   53.2477,   52.7352,   53.8053,   53.9579,   53.2634,   52.9443,   52.2660,   52.1410,   51.8661,   51.4859,   51.4995,
  3-NOV-1996 14:46:52.59,    5.5929,  999.0000,  999.0000,  999.0000,  999.0000,    3.1881,    3.9152,  999.0000,  999.0000,  999.0000,   12.5574,   14.1892,  999.0000,  999.0000,  999.0000,  999.0000,  999.0000,  999.0000,   26.2406,   26.6823,   27.5586,   28.4187,   28.8264,   29.9481,   29.9530,   29.6376,   28.9051,   30.5594,   31.3828,   31.6814,   33.4724,   33.2921,   34.0506,   35.3518,   35.0998,   37.4687,   38.9481,   39.9747,   42.0148,   44.2101,   45.4995,   47.2979,   49.1359,   49.3398,   49.3309,   50.0297,   49.9944,  999.0000,   49.6346,   50.4389,   52.0317,   52.4413,   53.8926,   54.5621,   54.4807,   55.2593,   55.8297,   54.2030,   52.9507,   53.0467,   52.2372,   52.3695,   52.3863,   51.9493,   50.7363,
  3-NOV-1996 14:51:21.72,    4.8115,    5.1832,    5.1445,  999.0000,  999.0000,  999.0000,    4.8545,    6.3495,    7.7052,    8.2908,  999.0000,  999.0000,  999.0000,  999.0000,   21.6391,   23.1062,   25.1656,   25.6435,   25.6735,   25.8535,   27.4186,   29.1557,   29.1589,  999.0000,   29.5760,   28.2525,   28.3350,   30.4989,   32.3145,   32.4362,   33.3842,  999.0000,   34.6382,   34.9562,   35.8207,   38.5347,   40.5644,   41.1181,   42.7747,   44.1542,   45.5805,   47.0135,   48.0489,   49.5604,   50.5186,   49.9262,   49.4088,   48.9403,   49.9572,   51.6400,   51.4813,   51.6750,   54.2688,   54.2821,  999.0000,   52.8192,   53.6465,  999.0000,   53.8416,  999.0000,  999.0000,  999.0000,   53.0869,   53.2926,   53.0501,
  3-NOV-1996 14:55:51.02,    5.4127,  999.0000,    3.4893,    2.9581,    2.7658,    2.9521,    3.5754,  999.0000,  999.0000,  999.0000,  999.0000,  999.0000,  999.0000,  999.0000,   21.6744,   22.8307,  999.0000,  999.0000,  999.0000,  999.0000,  999.0000,   29.2842,   30.1190,   29.5586,   30.2303,   28.9939,   29.7592,   30.3558,  999.0000,  999.0000,  999.0000,  999.0000,   36.7406,   37.2770,   37.8013,   38.3477,   39.7606,   40.9167,   42.6310,   44.3599,   45.2551,   47.1697,   48.8167,   50.2254,   50.7317,   50.3379,   50.6020,   49.6598,   49.7331,   50.8156,   49.5153,   50.3889,   52.3289,   53.5169,   55.6694,   55.8055,   55.3848,   54.0130,  999.0000,  999.0000,   51.4607,   51.8339,   52.9227,   54.1829,   54.5679,
  3-NOV-1996 15:00:20.62,    4.9935,  999.0000,  999.0000,  999.0000,  999.0000,  999.0000,  999.0000,  999.0000,    8.6531,    8.1398,    9.8843,  999.0000,  999.0000,  999.0000,  999.0000,   23.9888,   25.5038,   25.6381,   25.8344,   26.3634,   27.6067,  999.0000,   30.1220,   30.3401,  999.0000,   29.8815,   30.0418,   30.3462,   32.3895,   32.5861,   33.4707,   33.0706,   34.7162,   35.4639,  999.0000,   37.4067,   38.8844,   40.9893,   42.0330,   43.0683,   44.3427,   46.6698,   47.2553,   49.1264,   49.3563,   48.7995,   48.2196,   48.8600,   49.7965,   51.2486,   50.8168,   50.8779,   53.1574,   53.6351,   53.6726,   53.1290,   51.0213,   51.0514,   51.7555,   51.0142,   51.2200,  999.0000,   52.9007,   53.2121,   53.8709,
  3-NOV-1996 15:04:49.97,    5.3650,    5.8751,    5.7841,  999.0000,  999.0000,  999.0000,  999.0000,    9.3289,    9.7774,   10.9531,   13.0636,   15.2599,  999.0000,  999.0000,   22.8042,   24.3770,   25.2837,   26.0169,   25.8692,   27.1951,  999.0000,  999.0000,   29.9882,   30.7172,   31.7916,  999.0000,   28.9442,   29.9352,   31.8631,   32.0123,   33.4064,   32.7152,   34.4612,   33.6071,   34.6059,   37.1014,   38.8574,   41.0520,   41.4225,   42.5307,   44.5140,  999.0000,   46.7362,   47.4677,   48.8234,   48.7282,   48.3158,   49.2513,   48.8418,   48.9244,   50.3255,   51.6292,   52.8978,  999.0000,   51.4621,   51.7938,   50.8010,   51.1390,   52.1235,   52.8070,   54.7196,   55.2567,  999.0000,   55.3986,   56.8084,
  3-NOV-1996 15:09:19.38,  999.0000,  999.0000,  999.0000,  999.0000,    1.5101,    1.2047,  999.0000,  999.0000,    8.6543,    9.2223,   10.5694,  999.0000,  999.0000,  999.0000,   23.3846,   24.6236,   25.7566,  999.0000,   25.4470,   27.2041,   28.6076,   28.8606,   29.3287,   30.2867,  999.0000,   30.7057,   30.2156,   29.3848,   31.5803,   32.5902,   33.3964,   33.4405,   34.7878,   34.2000,   35.2520,   38.1191,   40.8556,   41.8050,   42.0473,   43.7498,   43.9671,   44.5372,   46.7707,   48.5282,  999.0000,   50.0146,   47.3552,   47.2181,   47.8847,   48.8771,   50.4539,   51.8544,   52.5312,   52.0094,   51.2533,   52.1449,   52.7432,   53.9071,   55.7072,   55.2171,   54.9363,   53.4762,   52.1603,   53.0300,   53.9920,
  3-NOV-1996 15:13:48.97,    6.7727,    6.8364,  999.0000,    5.5273,    5.3057,    5.3072,    4.9673,  999.0000,    9.1021,   10.6069,   11.7036,   13.8380,  999.0000,  999.0000,   22.9837,   24.2384,   25.6623,   25.7012,   26.0436,   26.7958,   27.8073,  999.0000,   29.0168,   29.8630,   28.8967,   29.8287,   29.8832,   30.0074,   31.3987,   32.9728,   32.7616,   33.0397,   34.3580,   35.5550,   34.6470,   37.6222,   39.3212,   42.7763,   42.1025,   43.8267,   43.3168,   44.7316,   46.7636,   48.4955,   50.0543,  999.0000,   50.2107,  999.0000,   47.0768,   49.4434,   51.8611,   53.3502,   52.5139,   52.0605,  999.0000,  999.0000,   52.7628,   53.7907,   55.1096,   55.9081,   54.8958,   54.6274,   54.6520,   54.7812,   55.1818,
  3-NOV-1996 15:18:18.63,    5.4744,    5.4119,    4.3808,  999.0000,  999.0000,  999.0000,  999.0000,  999.0000,    8.3522,    9.5962,   10.5389,   13.2560,  999.0000,  999.0000,  999.0000,  999.0000,  999.0000,   25.1067,   26.5755,   27.6968,   28.2319,   28.3511,   29.3053,   29.9612,   30.1187,   30.8907,   29.9933,   31.2229,   32.9332,   33.6403,   33.8766,   34.9699,   34.7495,  999.0000,   36.1960,   39.3597,   39.9423,   40.7437,   42.9052,   44.4560,   43.8033,   45.4085,   46.9804,   49.4821,   52.3689,   51.9571,   49.3879,  999.0000,   48.5623,   50.3683,   52.5826,   53.7130,   52.8460,   51.9752,   51.8850,   53.2680,   54.4793,   55.2934,   55.1774,   55.1561,   55.4222,   56.4211,   55.8376,   53.7328,   53.8210,
  3-NOV-1996 15:22:49.14,    5.1208,    5.0934,  999.0000,  999.0000,  999.0000,  999.0000,  999.0000,  999.0000,    9.7890,   11.0574,   12.0809,   14.0530,  999.0000,   20.8625,   22.6831,   24.8666,   25.6238,   25.6107,   26.3937,   27.5209,   28.1236,   28.5271,   29.0573,   29.2858,   28.4449,   30.3430,   29.5303,   30.7862,   32.7584,   33.4894,   33.0051,   33.3208,   34.3471,   34.5729,   34.9747,   37.8882,   39.1152,   40.7794,   43.0313,   44.5211,   44.3636,   44.9216,   46.8408,   49.4244,   51.7394,   52.3673,   50.7529,   49.6881,   49.4150,   50.1549,   52.5842,   53.4936,   53.0795,   52.7023,   53.7753,   54.9652,   56.0298,   54.6760,   54.2328,   54.7708,   54.6156,   54.7236,   54.9956,   54.1503,   53.5840,
  3-NOV-1996 15:27:19.12,    3.2100,    3.0734,  999.0000,  999.0000,  999.0000,  999.0000,  999.0000,  999.0000,    9.7303,   10.8676,  999.0000,  999.0000,  999.0000,  999.0000,   23.3719,   25.0263,   25.6600,  999.0000,  999.0000,   28.0974,   28.3350,   28.9957,   29.3362,  999.0000,  999.0000,   29.9408,   29.7099,   30.8719,   32.7424,   33.1294,   33.1930,   33.5102,   35.4512,   34.8898,   36.0297,  999.0000,   39.8270,   41.2993,   42.8746,   43.9967,  999.0000,  999.0000,  999.0000,   49.0827,   50.3643,  999.0000,   50.0516,   49.2022,   49.6290,  999.0000,  999.0000,  999.0000,  999.0000,  999.0000,  999.0000,  999.0000,  999.0000,  999.0000,  999.0000,  999.0000,  999.0000,  999.0000,  999.0000,  999.0000,   55.3424,
  3-NOV-1996 15:31:55.58,    2.8084,    3.2668,    3.3505,    3.1455,    3.0865,    3.4785,  999.0000,    9.9222,   10.8108,   11.0293,   12.9971,   14.8169,  999.0000,  999.0000,   23.9051,   25.6456,   26.6275,   26.7122,   26.8039,   27.7807,   28.4362,   28.9001,   28.3685,   31.4164,   31.3875,   29.2413,   30.4480,   31.0319,   32.0192,   34.4368,   34.9952,   34.9694,   35.2638,   33.8273,   35.3041,   37.3605,   38.3780,   40.2691,   42.0022,   42.0968,   41.8483,   43.7467,   45.6949,   48.9288,   49.7350,   49.5521,   49.3345,   49.4885,   50.8509,   52.7733,   54.2651,   54.9786,   54.9003,   54.6576,   55.5184,   54.9144,   54.7555,   54.5707,   53.8195,   53.4441,  999.0000,  999.0000,   53.9196,   53.2351,   54.2725,
  3-NOV-1996 15:36:24.81,    3.2573,    3.2350,    3.5908,  999.0000,    2.5730,    2.3762,  999.0000,  999.0000,  999.0000,   10.6192,   12.2495,   13.8131,  999.0000,  999.0000,   23.7194,   25.2995,   25.6220,   26.0421,   26.6358,   27.4589,  999.0000,   28.9777,   28.4231,   29.0216,   30.0457,   29.7747,   29.2052,   30.8884,   32.1021,   34.2560,   34.0593,   34.8163,   34.2080,   33.3921,   34.8804,   37.1857,   38.9627,   40.1735,   42.8294,   43.8738,   43.9825,   44.4621,   45.9053,   49.1116,   50.2560,   49.6225,   50.1264,   49.8401,   49.4187,   51.0196,   52.8406,   54.1689,   54.5343,   54.3012,   54.2886,   55.0015,   54.0891,   53.2993,   53.8564,   54.5684,   55.1003,   54.9614,   54.3428,   54.3319,   54.6706,
  3-NOV-1996 15:40:54.09,    5.4390,    5.4023,  999.0000,  999.0000,    1.1528,    1.0138,  999.0000,    9.5607,   10.2938,  999.0000,  999.0000,  999.0000,  999.0000,   21.9237,   23.2016,   24.4015,   25.2675,   25.9053,   26.2256,   26.7061,  999.0000,   28.3540,   28.5578,   28.4679,   29.6428,   29.5437,   29.4143,   31.7508,   33.6929,   34.0604,   34.8886,   35.0558,   33.6719,  999.0000,  999.0000,   37.2873,   39.0197,   41.6268,  999.0000,   43.7866,   44.4808,   44.4661,   46.2319,   49.1257,   51.8039,   51.9124,   51.3910,   50.0700,   49.1609,   50.4900,   52.6082,   54.7600,   54.7792,   53.9797,   53.8226,   54.7637,   55.4112,   55.3399,   55.4822,   56.1047,   56.0973,   55.6485,   54.7930,   54.5249,   54.2756,
  3-NOV-1996 15:45:23.47,    5.4321,    5.2726,  999.0000,  999.0000,  999.0000,  999.0000,  999.0000,    8.9050,    9.5014,   11.1439,   12.4984,  999.0000,  999.0000,   22.0532,   23.1838,   24.3850,   24.7629,   25.8122,   26.7682,   26.8488,   27.3290,   28.1846,   27.9681,   28.6238,   30.1007,   29.4819,   30.2538,   33.1251,   33.8376,   34.1088,   34.6949,   34.2913,   32.5550,   33.1859,   36.2212,   37.7314,   39.4491,   42.2596,   41.7412,   41.7363,   44.3299,   45.6454,   46.3077,   49.3548,   52.6458,  999.0000,   51.1098,   50.2073,   49.4402,   50.1849,   52.0570,   54.1375,   53.6615,   53.3823,   53.3583,   54.0466,   54.6171,   53.8098,   53.5907,   53.3974,   53.7678,   53.4301,   52.9694,   53.5093,  999.0000,
  3-NOV-1996 15:49:52.92,  999.0000,  999.0000,  999.0000,    2.8320,    2.8000,  999.0000,  999.0000,    8.8362,   10.0057,   11.5048,   13.8168,  999.0000,  999.0000,   22.5580,   24.0559,   24.8467,   24.8498,   25.2536,   25.9327,   27.0815,   27.7454,   28.4514,   29.0711,   28.2323,   29.2548,   29.4218,   29.8970,   32.1162,   33.4428,   34.1755,   33.7662,   34.3469,  999.0000,   33.6405,   36.2185,   38.1792,   40.0507,   42.6054,   43.3796,   43.0647,   44.9324,   46.6478,   47.2638,   49.0552,   51.1180,   52.2513,   51.2609,   50.9523,   51.1522,   50.3086,   51.4261,  999.0000,   53.4936,   54.6868,   53.1010,   54.1973,   54.3827,   54.4014,   54.2398,   55.6235,   56.8227,   55.7135,   55.1451,   55.5361,   56.5853,
  3-NOV-1996 15:54:22.54,    5.1085,    4.2711,    3.7389,    3.0756,    2.9285,    4.0989,  999.0000,    8.1203,    8.6054,   11.1029,   13.3351,  999.0000,  999.0000,   22.9806,   24.0184,   24.9686,  999.0000,  999.0000,  999.0000,  999.0000,   27.5661,   27.8151,   28.6244,   28.3224,   28.6215,   29.7431,   30.2410,   31.7769,   33.2466,   33.5794,   33.0178,   33.6744,   31.9001,  999.0000,  999.0000,   38.2585,   39.4541,   42.2483,   43.8799,   43.8943,   45.2575,   45.9987,   46.6491,   48.3403,   49.6940,   50.3580,   52.7619,   51.5576,   50.6742,   49.5051,   51.7855,   54.5045,   54.4134,   54.0675,   53.8131,   54.2194,   54.5306,   54.5243,   54.1691,   55.6941,   57.4309,   57.8235,   56.9880,   55.3337,   55.8515,
  3-NOV-1996 15:58:52.78,    5.4047,    5.3377,  999.0000,  999.0000,  999.0000,  999.0000,  999.0000,  999.0000,  999.0000,  999.0000,  999.0000,  999.0000,  999.0000,  999.0000,  999.0000,  999.0000,  999.0000,  999.0000,  999.0000,  999.0000,   27.5404,   28.1450,   28.6895,   28.2773,   29.6829,   30.1747,   30.2611,   32.2333,   33.6711,   33.7970,   33.6118,   33.1332,   32.7081,   33.5477,   35.2875,   37.4023,   39.8168,   41.9765,   43.8709,   44.2015,   44.9200,   45.9530,   45.5812,   47.5882,   50.0792,   51.4955,  999.0000,  999.0000,   49.9230,   50.8581,  999.0000,  999.0000,  999.0000,   52.2021,   52.3475,   53.9406,   54.4922,  999.0000,  999.0000,   54.2255,   54.2887,   53.8818,   54.7873,   55.2434,   55.7634,
  3-NOV-1996 16:03:22.43,    5.2366,  999.0000,  999.0000,  999.0000,  999.0000,  999.0000,    5.6329,    7.9440,    8.8247,   10.8472,   13.0606,  999.0000,  999.0000,   22.0780,   23.0506,   23.3138,   23.8937,  999.0000,   25.1727,   26.0232,   27.0721,   27.9075,   28.3067,   28.4251,   29.3157,   30.2131,   30.4595,   32.3052,   33.5484,   33.3520,   33.1256,   32.5283,   32.4927,   32.7413,   34.4057,   36.5518,   39.3045,   41.6688,   42.2973,   43.6927,   44.9338,   45.1497,   45.7878,   47.3904,   49.7365,   50.0380,   50.3337,   50.4695,   49.6705,   51.0136,   53.3257,   53.9682,   53.6332,   53.4650,   52.4833,   52.3271,   53.5932,   53.9306,   53.7898,   54.3679,   55.0017,   55.1189,   56.6473,  999.0000,   59.0266,
  3-NOV-1996 16:07:51.79,    5.3475,  999.0000,    3.3573,    2.6399,    2.6890,  999.0000,  999.0000,   10.2527,   10.9941,   11.5963,   13.4914,  999.0000,  999.0000,   23.2813,   24.2677,   24.3443,   24.9647,   25.0865,   25.5691,   26.2695,   27.0534,   28.3912,   28.5877,   28.8255,   30.2712,   30.3667,   31.1058,   32.4490,   32.5111,   32.9109,   32.8450,   32.3137,   32.6344,   32.0338,   33.6194,   35.8259,   38.6222,   41.5615,   42.0666,   44.2996,   45.1152,   43.8552,   44.7347,   47.8573,   50.4845,   50.0522,   49.4755,   49.8822,   50.2346,   51.2550,   53.6353,   54.0940,   53.6634,   53.7495,   53.1223,   52.8034,   53.0341,   53.7002,   53.7134,   53.0776,   54.1670,   54.6377,   55.9841,   56.3869,   57.1827,
  3-NOV-1996 16:12:21.89,    4.8412,    4.1533,  999.0000,    0.7622,    0.4908,  999.0000,  999.0000,    9.3904,   10.8544,   11.6618,  999.0000,  999.0000,  999.0000,   23.6959,   24.2508,   24.1810,   24.4442,   24.7414,   25.6697,  999.0000,   26.8312,   27.9473,   28.9938,   29.7183,  999.0000,   29.6241,   30.0592,   31.4497,   32.3069,   32.5963,   32.4282,   31.9649,   32.2752,   32.2886,   34.3589,   36.7725,   38.3081,   40.7184,   41.2889,   43.4605,   45.1368,   44.7285,   45.9404,   49.2116,   50.1832,   50.8983,   49.7536,   49.5025,   49.8881,   51.8444,   53.7904,   55.3393,   55.2666,  999.0000,  999.0000,  999.0000,  999.0000,  999.0000,  999.0000,  999.0000,  999.0000,  999.0000,  999.0000,   55.5114,   56.7366,
  3-NOV-1996 16:16:52.51,    3.1309,    3.4848,  999.0000,    1.0157,    0.4618,  999.0000,  999.0000,    9.0010,   10.2477,   11.3385,   13.1088,  999.0000,  999.0000,   22.9781,   24.0626,   24.3788,   24.5648,   24.7328,   25.7851,   26.4432,   27.7958,   28.8964,   29.8728,   29.5905,   30.3525,   30.0317,   30.7645,   32.0043,   32.4976,   33.0278,   32.8244,   32.7390,   32.1063,   31.4867,   32.9657,   35.3485,   38.1476,   39.3359,   40.2574,   43.3766,   44.9565,   44.4954,   46.1708,   48.7298,   51.4759,   52.7196,  999.0000,   49.8400,   51.4077,   53.0412,   54.5498,   55.9464,   55.0278,   54.1740,   54.8772,   54.1613,   54.1299,   53.4677,   53.2104,   53.6680,   53.8947,   55.0772,   56.1068,   56.8519,   58.6994,
  3-NOV-1996 16:21:22.80,    4.8246,    4.0179,  999.0000,    1.0261,    0.6490,  999.0000,  999.0000,    9.4421,   10.1641,   11.1503,   13.2431,   16.0591,   19.9038,   22.6009,   24.2398,   24.0820,   24.4904,   24.4704,   25.5020,   26.6956,   27.0463,   27.9875,   29.2317,   29.9100,   29.9923,   29.8236,   30.4694,   32.5240,   32.9306,   33.4412,   32.9814,   32.7435,   30.8616,   31.2486,   33.2096,   35.8275,   38.5206,   40.4008,   41.9121,   44.4193,   45.8973,   45.2684,   47.0737,   48.8925,   52.1896,   52.1495,   50.7126,   49.4488,   50.9291,   52.3194,   53.9838,   54.5973,   55.3023,   56.4714,   56.3156,   54.5987,   53.6920,   53.6158,   54.2235,   53.7687,   54.0742,   55.0092,   55.7579,   57.2986,   58.3383,
  3-NOV-1996 16:25:52.02,    3.1381,    2.7225,  999.0000,    0.5062,    0.1305,  999.0000,  999.0000,    9.3925,   10.3140,  999.0000,  999.0000,  999.0000,  999.0000,   22.5751,   24.3177,   24.2467,   24.9332,   26.0489,   26.3118,   26.5053,   27.5861,   29.2701,   30.3602,   30.5791,   29.9207,   29.8376,   31.1479,   32.0658,   32.5978,   33.2811,   33.5927,   33.6727,   31.5302,   31.8466,   33.7678,   36.1215,   38.6718,   39.7140,   41.3067,   44.6538,   44.8739,   46.2565,   47.9872,  999.0000,   52.6523,   54.0036,  999.0000,   51.1671,   50.6937,   51.2587,   53.8594,   54.4384,   54.4588,   54.5994,   54.2932,  999.0000,  999.0000,   51.0758,   50.9663,   52.4097,  999.0000,   54.7194,   55.6223,   56.9682,  999.0000,
  3-NOV-1996 16:30:21.19,    3.5221,    3.1311,  999.0000,    0.5352,    0.1801,  999.0000,  999.0000,  999.0000,    9.9480,   10.6382,   11.5405,  999.0000,  999.0000,   22.5887,   24.3101,   24.5568,   25.4784,   26.1941,   26.5509,   27.6127,   28.9664,   29.8668,   30.7644,   29.7814,   30.4912,   30.9553,   31.2429,   33.3965,   32.7544,   33.7445,   33.7794,   33.5421,   31.7079,   32.6086,   33.2791,   36.0629,   39.1885,   41.1916,   42.0692,   44.3134,   44.1181,   45.5090,   46.5113,   49.5360,   52.6520,   53.2873,   52.3990,   52.2559,   51.0840,   51.7154,   52.4278,   53.0247,   53.8440,   54.1670,   53.4315,   52.4644,   52.4711,   52.2505,  999.0000,  999.0000,  999.0000,   56.0628,   56.3636,  999.0000,   58.5833,
  3-NOV-1996 16:34:50.73,    5.1985,    5.1275,  999.0000,  999.0000,  999.0000,  999.0000,  999.0000,  999.0000,  999.0000,  999.0000,  999.0000,  999.0000,  999.0000,  999.0000,   23.5019,   24.3186,   25.4742,   26.1280,  999.0000,  999.0000,  999.0000,   29.4349,   30.0242,   30.0237,   30.3167,   31.2072,   31.7048,  999.0000,   33.0895,   33.2266,   33.5581,   32.4680,   31.2493,   32.4273,   33.8331,   36.4165,  999.0000,  999.0000,   41.8175,   44.2464,   44.2871,   46.3231,   48.2011,   49.4274,   50.8831,  999.0000,   53.6961,   51.8975,   52.3478,   52.5103,   52.7130,   53.3441,   54.2485,   53.5158,   53.2707,  999.0000,  999.0000,  999.0000,  999.0000,  999.0000,  999.0000,  999.0000,  999.0000,  999.0000,  999.0000,
  3-NOV-1996 16:39:19.97,  999.0000,  999.0000,  999.0000,    1.0663,    1.0759,  999.0000,  999.0000,    8.7185,   10.3422,  999.0000,  999.0000,  999.0000,  999.0000,  999.0000,  999.0000,  999.0000,   24.8540,   25.5343,   25.7002,   26.1707,  999.0000,   29.1369,   29.8764,   29.8333,   29.2727,   30.3843,   31.1212,  999.0000,   32.4404,   32.4343,   32.6705,   32.1581,   31.5251,   32.3654,   35.1022,   37.5394,   39.8690,   40.8754,   42.4264,   44.7205,   45.3553,   47.0858,   49.5512,   49.7153,   49.8965,   52.3384,   52.9682,   52.7715,   53.7686,   53.5855,   53.0945,   53.0275,   53.7687,   53.5493,   52.9242,   54.0399,  999.0000,  999.0000,  999.0000,  999.0000,  999.0000,  999.0000,   53.4797,   54.9116,   56.7215,
  3-NOV-1996 16:43:50.36,    4.8199,    4.3966,  999.0000,  999.0000,  999.0000,  999.0000,  999.0000,  999.0000,    9.6505,   10.5368,   12.1139,  999.0000,  999.0000,  999.0000,   23.9713,   24.9962,   25.5889,   26.2382,   26.7812,   27.3119,   28.0388,   28.8660,   29.2531,   28.9965,   29.9781,   31.3062,   32.1468,   33.2882,   33.6135,   32.6488,   33.4098,   32.7042,   32.8907,  999.0000,   35.6720,   37.3929,   39.9976,   40.9546,   41.9072,   43.8433,   45.5437,   46.8494,   48.8715,   49.9058,   51.3403,   53.9865,   53.8232,   53.9597,   53.6851,   52.5231,   52.4096,   52.2117,   52.3399,   52.0980,   51.5858,   50.7890,   50.1701,   50.7213,   50.4482,   50.4449,   51.2567,   53.0316,   53.9247,   55.3042,   55.8704,
  3-NOV-1996 16:48:20.22,    3.1341,    2.8331,  999.0000,    0.9003,    0.6685,    1.5277,  999.0000,  999.0000,    9.1114,   10.5199,   12.4375,  999.0000,  999.0000,  999.0000,  999.0000,   25.7824,   25.7861,   26.2759,   26.7805,   27.1827,   28.4087,   29.2506,   28.8471,   28.7922,   29.9920,   31.3604,   31.7282,  999.0000,   32.1383,   33.2606,   34.0695,   32.4138,   33.0184,   33.4116,   35.6892,   37.2982,   39.4506,   41.1557,   42.1744,   44.7103,   45.2218,   46.6537,   48.7720,   51.3067,   51.7969,   51.7802,   54.0169,   55.0747,   54.3303,   52.2986,   51.9217,   52.1838,   51.7206,   52.3478,   51.7165,   50.2622,   51.3788,   52.6778,  999.0000,  999.0000,   51.2775,   51.1137,   52.1175,   53.5814,   55.1262,
  3-NOV-1996 16:52:51.92,    2.7692,    3.1734,    3.2946,    2.0853,    2.1945,  999.0000,  999.0000,    8.4435,    9.5385,   10.6112,   12.7025,  999.0000,  999.0000,  999.0000,   24.3224,   25.0302,  999.0000,   26.2383,   26.6298,   27.4984,   28.3878,   28.7919,   28.5797,   28.9072,   29.9345,   31.0663,   31.8950,   33.2237,   33.0567,   32.9531,   33.7247,   31.9148,   32.9470,   33.4941,   35.6921,   37.6868,   39.5774,   41.3947,   41.7440,   43.9145,   44.6931,   46.1129,   48.6343,   50.3218,   50.6504,   50.1636,   52.3837,   53.2697,   53.0189,   52.6397,   52.1520,   51.5354,   52.0179,   52.4949,   51.3145,   50.9884,   51.3717,   50.8111,   51.3079,   52.3045,   51.0534,   50.3758,   52.1915,   53.6796,   54.7871,
  3-NOV-1996 16:57:22.07,    3.1481,    3.1302,    3.1892,    3.0555,    2.7228,    3.1340,  999.0000,    8.0404,    8.9769,   10.7758,   12.7561,  999.0000,  999.0000,   22.8052,   23.8931,   24.3076,   25.2160,   25.7134,   26.5464,   27.0341,   27.9782,  999.0000,  999.0000,   28.7116,   29.5695,   30.8067,   31.4731,   32.8095,   32.9663,   33.9699,   34.4863,  999.0000,   32.0582,   32.2620,   34.6144,   36.9927,   39.4414,   40.8248,   41.3822,   42.7613,   44.2306,   46.1520,   49.7887,   51.2260,   51.4580,   52.3343,   53.5274,   55.0462,   54.2730,   54.6904,   54.6175,   52.3871,   51.8465,   52.6682,   52.7989,   52.9802,   52.5303,   50.2799,   50.4288,   50.4846,   50.2313,   50.6189,   52.5019,   55.0058,   55.9248,
  3-NOV-1996 17:02:28.94,    5.1995,    4.8742,  999.0000,  999.0000,    1.1454,    2.3909,    5.8365,    6.7848,    7.6273,   10.4301,  999.0000,  999.0000,  999.0000,   23.2193,   23.7214,   24.0672,   25.1457,   25.8275,   26.0745,   26.0198,   26.7202,   28.6666,   29.8169,   28.2941,   29.7098,   30.9531,   31.2329,   32.9477,   32.5002,   33.2946,  999.0000,   33.0587,   32.2066,   33.2580,   34.9711,   37.4479,   39.6183,   40.2912,   42.3726,   44.3932,   45.2330,   47.5778,   48.4844,   50.9698,   52.6718,   52.4934,   52.8429,   53.7356,   54.3402,   55.7653,   57.1935,  999.0000,  999.0000,   52.7555,   53.5417,  999.0000,  999.0000,   51.3125,   51.8462,   52.2537,   51.6500,   52.5322,   54.4760,   55.3306,   55.8225,
  3-NOV-1996 17:07:04.82,    4.7984,    4.3509,  999.0000,    2.0123,    0.9129,    1.9027,  999.0000,  999.0000,    9.2968,   10.7235,  999.0000,  999.0000,  999.0000,   23.1577,   24.5905,   25.3567,   25.8665,   26.0561,   26.2841,   26.6365,   27.6614,   28.5036,   28.9306,   29.3841,   31.0037,   32.2670,   32.3531,   34.0081,   33.2829,   33.5704,   34.2828,   33.3529,   33.2201,   33.8801,   35.9508,   37.6641,   39.8204,   41.0536,   42.7859,   44.3786,   45.6077,   48.0752,   49.2710,   51.4626,   52.2299,   53.5925,   53.4811,   54.2501,   55.1779,   56.0150,   56.7111,   54.9664,   52.4150,  999.0000,  999.0000,  999.0000,  999.0000,   51.4297,   51.6919,   50.2800,   49.4883,   50.5002,   52.1570,   54.0313,   55.7281,
  3-NOV-1996 17:11:43.22,    3.2888,    3.6798,    3.4352,  999.0000,  999.0000,  999.0000,    6.9553,    8.2279,    9.2068,   11.0283,  999.0000,  999.0000,  999.0000,   23.5246,   24.6459,   25.1489,  999.0000,   26.1764,   26.8150,   27.0379,   27.4912,   28.5391,   29.7770,   30.6250,   31.5313,   32.6620,   32.2445,   33.4952,   32.5293,   33.4981,   33.8387,   32.9084,   32.9965,   33.4625,   36.0692,   37.5266,   39.2221,   40.4255,   42.4132,   44.3179,   44.4022,   47.1165,   50.1357,   51.6458,   51.0745,   52.2577,   53.4185,   55.1644,   57.0221,   56.8681,   55.9097,   55.4460,  999.0000,  999.0000,  999.0000,   51.2662,   49.6863,   49.7857,   49.3711,  999.0000,   51.1805,   52.4645,   53.8463,   54.1994,   55.0813,
  3-NOV-1996 17:16:18.88,    4.3215,    5.1473,  999.0000,    3.3704,    2.9601,  999.0000,  999.0000,  999.0000,   11.0516,   12.6160,  999.0000,  999.0000,   23.2438,   24.3945,  999.0000,  999.0000,  999.0000,  999.0000,   26.5134,   26.9921,  999.0000,  999.0000,  999.0000,   29.9777,   31.3928,   32.2787,   32.5576,   33.4758,   32.6353,   33.4941,   33.6032,   33.7052,   34.6012,  999.0000,   35.4990,   37.0581,   38.8566,   40.6117,   42.7410,   43.3020,   43.8675,   46.8606,   48.6736,   51.5194,   52.5423,   51.9610,  999.0000,   55.2648,   56.5358,   56.1910,   55.3233,   54.9608,   54.6569,   54.7195,   53.0445,   51.9430,   50.7559,   50.4319,   50.7460,   50.9488,  999.0000,   52.4569,   53.5351,   54.3956,   55.2877,
  3-NOV-1996 17:20:53.80,    2.3862,  999.0000,  999.0000,  999.0000,    2.9315,    5.3178,  999.0000,    8.8716,   10.5282,   11.8707,  999.0000,  999.0000,   24.3051,   25.4906,   25.7232,   25.9039,   26.4510,   26.5041,   26.4272,   26.6449,   27.6178,   28.4593,   29.8111,   30.2096,   30.9677,   31.8879,   32.6772,   33.5952,   32.6455,   33.4015,   32.8412,   33.4538,   35.1609,   36.3676,   35.9254,   38.0461,   39.6184,   42.9385,   42.7367,   43.5246,   44.8538,   47.5265,   49.7201,   51.6365,   52.6775,   52.1428,   51.5703,   53.3640,   53.9561,   54.7797,   54.1709,   53.6100,   53.8269,   54.3313,   54.6629,  999.0000,  999.0000,   51.1372,   50.5913,   50.2420,   51.0803,   52.4669,   53.8066,   54.7626,   55.7459,
  3-NOV-1996 17:25:28.48,    2.5592,    2.9329,    2.7284,    1.4178,    0.4245,  999.0000,  999.0000,  999.0000,  999.0000,   11.4657,   13.2948,  999.0000,   24.0337,   24.9563,   25.1873,   25.7156,   25.7505,   25.2104,   25.6517,   26.8499,   27.5629,   28.3738,   29.0441,   30.0914,  999.0000,   32.1438,   32.8403,   33.7395,  999.0000,  999.0000,  999.0000,  999.0000,   34.0708,   36.0298,   36.8084,   38.1722,   39.5900,   40.8243,   42.3873,   43.8377,   45.7428,  999.0000,  999.0000,   52.5536,   53.8317,   53.0383,   52.8005,   53.4620,   55.2814,   55.8334,  999.0000,   54.9472,   55.5491,   54.7691,   53.7740,   52.5585,   51.4883,   51.6683,   51.1180,   50.4956,   51.6448,   53.1555,   53.8601,   54.0089,   54.1368,
  3-NOV-1996 17:30:04.51,    2.6935,    2.7927,    2.9703,    1.8593,  999.0000,  999.0000,  999.0000,    8.4177,   10.2031,   11.7791,   13.3596,  999.0000,   23.7369,   24.6996,   25.2233,   24.7182,   24.8947,   24.7459,   25.5878,   26.8591,   28.3552,   29.7353,   30.2629,   29.1911,   30.4764,   31.4581,   32.3239,   33.2268,   33.0635,   33.6627,   33.8984,   33.9344,   33.9464,  999.0000,   36.2367,   37.7588,   39.5112,   39.7884,   41.9961,   43.7768,   45.0512,   47.7271,   50.8146,   52.7419,   53.7981,   53.6014,   52.9501,   54.8825,   56.9808,   57.8176,  999.0000,   55.1382,   53.8142,   53.7763,   53.6950,   52.8117,   51.9619,   51.4738,   50.8777,   50.8991,   51.5874,   52.5559,   52.5762,   52.1416,   54.0490,
  3-NOV-1996 17:34:40.67,    3.0135,    3.2320,    3.1475,  999.0000,  999.0000,  999.0000,    6.5222,    8.2453,    9.9897,   11.8398,  999.0000,  999.0000,   23.5895,   24.4927,   24.7132,   24.5694,   24.7718,   25.0481,   25.2330,   26.1873,   27.3325,   28.6338,   29.0197,   29.1070,   29.5188,   31.1595,   32.0130,   33.6721,   33.8758,   33.4082,   33.1882,   34.1639,   34.7869,   33.7483,   34.9923,   36.9938,   39.1289,   40.3426,   42.0676,   43.2606,   44.3420,   45.9494,   49.3114,   51.3734,   51.7281,   51.7640,   51.4873,  999.0000,  999.0000,  999.0000,   54.5413,   54.0706,   53.5787,   53.7213,   53.0947,   53.4719,   52.6908,   53.1970,   52.3745,   51.9367,   52.3268,   52.1211,   52.9305,   54.1360,   55.7474,
  3-NOV-1996 17:39:15.23,    4.1742,    4.9398,  999.0000,    2.1558,    1.0311,  999.0000,  999.0000,    8.3565,   10.2129,   11.2649,  999.0000,  999.0000,   23.2606,   24.1623,   24.3849,   24.4891,   24.3840,   25.4661,  999.0000,   26.8083,   27.3484,   28.3502,   28.9390,   29.5389,   29.6611,   31.3071,   32.3101,   33.1940,   33.9435,   33.5524,   33.2116,   34.7607,   35.0910,   35.0794,   35.4760,   36.9262,  999.0000,  999.0000,  999.0000,   43.1532,   43.6093,   46.5828,   50.2227,  999.0000,   51.1280,   51.5384,   52.5271,   53.1738,   55.1543,   56.0163,   53.9580,   53.3373,   54.8173,   53.9217,   53.4663,   53.5835,   52.9175,   52.5829,   50.7929,   51.3768,   53.0095,   53.9687,   54.9265,   55.2681,   56.4790,
  3-NOV-1996 17:43:49.35,    2.0057,    2.5650,    1.9053,    1.8570,    2.9540,    4.1437,  999.0000,    6.9874,    8.6898,  999.0000,  999.0000,  999.0000,   23.2153,   24.6686,   25.5811,   24.5400,   23.4701,   23.9610,   24.8480,  999.0000,  999.0000,   28.6558,   29.1516,   29.4781,   30.0781,   31.6944,   31.9206,   34.2695,   33.8347,  999.0000,   34.6729,   35.5755,   34.9554,   34.9066,   35.2435,   37.1157,   39.3838,   40.5895,   41.7343,   43.3358,   45.2168,   48.6043,   51.1231,   52.6232,   52.1532,   51.2965,  999.0000,   55.0775,   56.7985,   56.2543,   55.6501,   54.2019,   53.4890,   54.7067,   54.0534,   53.2320,   53.6111,   51.9034,   50.6481,   52.2259,   53.1837,   54.2742,   56.0135,   56.7227,   57.9434,
  3-NOV-1996 17:48:25.17,  999.0000,  999.0000,    0.7314,    0.7222,  999.0000,    3.2623,    5.2405,    6.1706,    8.0122,   10.6135,   11.6746,  999.0000,   22.7547,   24.6662,   25.6159,   25.0774,   24.7155,   24.6178,   25.5126,   25.9855,   26.9997,   28.2156,   29.0321,   29.8471,   30.0402,   32.0592,   32.3120,   33.5801,   34.2710,   33.4901,   35.6730,   36.6836,   35.3033,   35.5494,   34.9265,   36.8977,   38.4436,   40.0644,   41.4110,   43.0343,   45.8491,   48.4701,   50.6886,   51.6206,   50.7847,   50.0517,   51.8032,   56.4427,   57.8949,  999.0000,  999.0000,   54.2032,   54.1040,   54.9581,   55.2498,   54.5505,   52.5997,   50.7994,   51.2577,   51.3466,   52.4494,   54.9054,   55.9903,   55.8275,   56.4120,
  3-NOV-1996 17:53:01.29,    1.6461,  999.0000,    1.1705,    1.1543,  999.0000,    3.3044,    5.8684,    6.9842,    8.6513,   10.3425,   12.1331,  999.0000,  999.0000,  999.0000,   25.4563,   25.4991,   25.0271,  999.0000,   25.8978,   25.7296,   26.6742,  999.0000,   29.7629,   30.2905,   29.9404,   31.5964,   31.9310,   33.2786,   34.5377,   33.5189,   35.2751,   35.2844,   34.2399,   34.5665,   35.1925,   36.6965,   39.2762,   41.6304,   41.7606,   43.7003,   45.9781,   49.3709,   51.3881,   50.9507,  999.0000,  999.0000,   55.5821,   56.7411,   56.4484,   54.8360,   55.5791,   55.5227,   54.1454,   54.9276,   54.2399,   52.2342,   52.0762,   52.1037,   52.6043,   53.3435,   54.3681,   55.2507,   57.2239,   56.9544,   56.1115,
  3-NOV-1996 17:57:38.79,    0.6457,    0.5780,    1.8449,    2.6557,    3.1352,    4.5671,    5.7915,    6.7773,    8.3924,   10.1548,  999.0000,  999.0000,   23.6358,   24.9360,   25.2620,   24.8162,   23.8874,   23.9801,   24.5783,   24.6805,   26.2128,   29.3110,   30.0574,   30.4060,   30.7986,   31.7998,   33.0620,   33.3184,   34.6960,   33.5409,   34.6358,   35.1049,   34.9802,   33.7774,   34.5816,   34.5487,   36.5381,   38.6743,   40.6403,   43.2283,   45.9932,   48.6634,   50.9196,   50.7252,   49.7213,   52.0043,   53.4819,   55.0911,   57.2426,   56.8853,   54.7028,   54.1973,   55.1968,   54.6343,   53.1757,   52.1750,   52.7422,   53.3550,   54.3786,   55.3122,   54.9935,   55.5539,   56.8590,   57.8687,  999.0000,
  3-NOV-1996 18:02:13.69,  999.0000,  999.0000,   -0.1091,    0.5071,    1.4388,  999.0000,  999.0000,  999.0000,  999.0000,  999.0000,  999.0000,  999.0000,   23.7527,   25.1542,  999.0000,   25.7969,   25.2233,   24.7896,   24.7406,   25.8687,  999.0000,   27.9907,   28.8904,   29.7946,   30.8953,   32.5106,   33.5375,   33.7895,   34.5373,   34.1054,  999.0000,  999.0000,  999.0000,  999.0000,   35.7969,   35.1329,   36.8478,   38.5148,   40.0877,   42.9436,   45.4570,  999.0000,   48.8872,   47.9455,   49.1745,   51.8172,   53.7746,   56.1434,  999.0000,   58.8230,   56.0894,   54.8100,   54.5813,   54.6893,   53.8189,   52.6499,   52.1686,   52.0921,   53.1018,   54.9199,   55.6647,   56.3280,   57.2642,   58.2092,  999.0000,
  3-NOV-1996 18:06:50.56,    2.4507,    2.2367,  999.0000,    0.5363,    1.3081,  999.0000,    2.4618,    3.4905,  999.0000,  999.0000,  999.0000,  999.0000,   22.5732,   24.4935,   25.3000,  999.0000,  999.0000,   25.4930,   26.0407,   26.4614,   26.9815,   28.3232,   29.5832,   30.0120,   30.2966,   31.7663,   32.8771,   33.5945,   33.8836,   34.0562,   33.8747,   34.2638,   34.6683,   34.6507,   35.3167,   34.9099,   37.1344,   39.6389,   41.7639,   43.3572,   45.2057,   48.8737,   50.0452,   49.8277,   51.0037,   51.7934,   54.2043,   56.7943,   57.9641,   58.1683,   57.1450,  999.0000,   54.3085,   54.0628,   55.0179,  999.0000,  999.0000,   50.4667,   51.1895,   52.3876,  999.0000,  999.0000,  999.0000,  999.0000,  999.0000,
  3-NOV-1996 18:11:25.89,    2.6091,  999.0000,    0.9830,    0.7475,    1.1290,    3.5863,    5.6278,    6.7324,    8.7673,  999.0000,  999.0000,  999.0000,   22.3473,   24.2226,   24.7972,  999.0000,   25.0356,   25.7555,   25.4946,   26.2196,   27.2478,   29.1123,   29.9113,   29.9679,   30.6869,   32.8040,   33.8003,   34.9505,   34.4364,   34.8500,   34.9326,   34.9725,   35.2367,   36.3141,   36.0236,   36.7137,   37.6954,   38.6711,   40.6288,   42.6054,   44.3397,  999.0000,   49.5784,  999.0000,   49.6843,   52.5246,   54.8231,   55.4809,   57.4250,  999.0000,   54.7607,   53.2267,   53.9757,  999.0000,  999.0000,  999.0000,   51.5336,   52.5303,   53.1484,   53.8082,   54.6211,   56.1420,   57.5442,   59.3639,   61.8412,
  3-NOV-1996 18:16:03.01,   -0.2642,    0.0451,    0.7950,    0.9277,    1.7216,    4.1882,    5.6724,    6.5949,    7.9640,  999.0000,  999.0000,  999.0000,   22.4790,   23.7166,   23.7270,   24.3379,   25.2550,   25.8082,   25.6570,   26.8396,   27.5066,   28.3683,   29.6106,   29.7159,   30.7277,   32.8695,   33.6273,   34.1174,   33.6792,   34.0399,   35.2565,   35.9908,   34.6265,   35.6300,   36.4443,   37.2884,   38.4057,   38.9738,   40.8927,   42.5247,   43.9940,   46.8227,   46.9765,   46.6068,   49.0536,   52.7702,   55.3845,   55.6816,   58.5434,   59.9252,  999.0000,  999.0000,   51.7801,   52.3969,  999.0000,   50.7113,   48.8887,   49.2282,   48.8158,   49.6101,   52.4607,   55.0111,   56.7560,  999.0000,  999.0000,
  3-NOV-1996 18:20:40.54,    2.7433,    2.6252,    1.2438,    0.4579,  999.0000,  999.0000,  999.0000,  999.0000,    9.0542,   10.6935,  999.0000,  999.0000,   22.2845,   23.4391,   23.8879,   24.7002,   25.5415,   25.7087,   26.0063,  999.0000,   27.5127,   28.5936,   29.9658,   30.5276,   32.5236,   33.1082,   33.6760,   32.6607,   33.0186,   33.4115,   33.9275,   35.1075,   33.9130,   34.8868,   35.9351,   37.0997,   39.4877,   38.8483,   39.7720,   42.1399,   44.1375,   46.4089,   45.9271,   46.4915,  999.0000,   53.2235,   54.6986,  999.0000,   57.7077,  999.0000,  999.0000,  999.0000,   53.3896,   54.4187,   55.9166,   54.0487,   52.5561,   52.0674,   52.2279,   53.5096,   55.3605,   57.4939,   57.8149,   60.7534,   63.7996,
  3-NOV-1996 18:25:17.12,  999.0000,  999.0000,    0.1453,   -0.3999,  999.0000,  999.0000,  999.0000,    7.2868,    9.0137,   10.5925,  999.0000,  999.0000,  999.0000,  999.0000,  999.0000,   25.0570,   25.0451,   25.6690,   26.1142,  999.0000,   27.8986,   29.4282,   30.3627,  999.0000,   32.5243,   32.4568,  999.0000,   34.0577,   33.7219,   34.0587,   35.2276,   35.6019,   34.7525,   35.4231,   35.6509,   37.3774,   38.4580,   40.9618,   41.8482,   43.3578,   43.5143,   46.3845,   46.6561,  999.0000,  999.0000,   52.3309,  999.0000,   56.7462,  999.0000,   57.7454,  999.0000,   54.7406,  999.0000,   55.7433,   56.0838,   53.9215,   53.1557,   54.2174,   54.4740,   55.4182,   56.4175,   58.3697,   60.3527,   61.9455,  999.0000,
  3-NOV-1996 18:29:54.53,    3.2098,  999.0000,    1.1563,    0.6609,    0.4460,  999.0000,  999.0000,  999.0000,  999.0000,  999.0000,  999.0000,  999.0000,  999.0000,   23.7042,   24.3934,   24.5140,   23.9323,  999.0000,  999.0000,  999.0000,   27.8487,   28.8989,   30.2046,   31.8917,   33.1581,   33.7115,   32.3014,   33.4921,   34.2929,   34.2277,   35.2529,   34.4213,   34.4461,   35.0967,   35.7048,  999.0000,   38.3444,   41.9747,   42.9027,   44.0775,   44.5436,   46.5561,   45.3385,   45.0542,   47.5873,  999.0000,  999.0000,  999.0000,  999.0000,   57.6169,   58.0300,  999.0000,  999.0000,   55.4888,   54.6381,   53.6491,   53.9814,   53.3813,   53.5353,   54.4026,   55.3676,   58.0051,   60.4971,   60.5890,   61.6307,
  3-NOV-1996 18:34:29.61,    1.6528,    1.2084,    1.2772,    1.2856,    0.9803,    1.2941,  999.0000,  999.0000,  999.0000,  999.0000,  999.0000,  999.0000,   22.6268,   23.9213,   24.5386,   24.8336,   24.9181,   25.2892,   25.5343,   26.8880,   27.9649,   29.1725,   30.4579,   32.5609,   32.9455,   33.8441,   33.2612,   34.0818,   34.7683,   35.7864,   36.3623,   35.4398,  999.0000,   35.6104,   36.2581,   37.5656,   39.3170,   42.2247,   43.1701,   45.0380,   44.4222,   47.0884,   45.0443,   47.1233,   49.2904,   52.9979,   53.8282,   54.0532,   56.5116,   57.4752,   58.9600,   60.3591,  999.0000,   55.4263,   55.1230,   53.9348,   52.8854,   51.5039,   51.7938,   52.2705,   53.7417,   54.7382,   56.2619,   58.6150,   59.2124,
  3-NOV-1996 18:39:04.30,    3.8167,  999.0000,    0.8148,    0.5223,  999.0000,  999.0000,  999.0000,  999.0000,  999.0000,  999.0000,  999.0000,  999.0000,  999.0000,   23.5013,   24.6853,   24.5319,   24.6829,   25.2786,   26.1665,   27.2956,   28.6944,   28.7559,   30.2525,   32.2105,   32.4367,   33.7793,   32.9193,   33.2241,   34.4183,   35.9138,   35.3726,   34.6975,   34.1936,   34.8512,  999.0000,   36.4445,   37.5851,   40.3980,   42.8637,   44.7450,   44.1334,   45.9968,   45.2949,   46.2665,   49.1963,   52.7900,   54.8475,   54.3830,   55.3684,   57.8297,   59.0370,   57.9438,   55.9236,   55.4524,   55.4207,   54.6839,   53.9805,   53.2047,   53.1009,   53.3166,   54.7504,   56.5418,   56.4420,   57.3306,   59.9116,
  3-NOV-1996 18:43:41.27,    0.5744,  999.0000,   -2.4377,   -2.7514,  999.0000,  999.0000,  999.0000,  999.0000,  999.0000,    9.3419,   11.0696,  999.0000,  999.0000,   23.1624,   24.1061,   24.7835,   24.9868,   25.2464,   27.2408,   28.0654,   28.3717,   27.9666,  999.0000,   30.3236,   31.8661,   32.9305,   32.2894,   32.2277,   33.3861,   34.2996,   33.2934,   33.6838,   34.7341,   34.2491,  999.0000,  999.0000,   37.9743,   40.7574,   42.2324,   43.8204,   44.1133,   45.8550,   46.1600,   47.0055,   48.7711,   51.9378,   54.7132,   56.3662,   58.0997,   59.0514,   58.9014,   58.1573,   55.7034,   55.5539,   55.0373,   54.0451,   54.0082,   54.0530,   54.3942,   54.5281,   55.2979,  999.0000,  999.0000,   54.9445,   56.3364,
  3-NOV-1996 18:48:16.09,    1.6231,  999.0000,    0.7050,    1.3819,    1.6781,    1.5384,    2.8624,  999.0000,    9.2959,   10.7091,  999.0000,  999.0000,  999.0000,   22.3831,   23.6949,   24.4812,   24.9146,   25.7676,  999.0000,   27.8663,   27.4792,   28.4869,   29.1547,   30.4832,   32.3619,   32.0112,   31.4960,   32.7758,   32.8892,   32.8702,   33.1986,   33.5505,   35.0891,   34.4784,   36.1000,   35.7811,   37.3616,   41.2204,   42.5132,   44.4019,   44.3686,   45.8446,   45.9452,   46.4401,   49.2878,   53.1641,   55.9784,   57.3286,   58.4548,   58.9900,   58.3460,   57.0857,   56.4417,   57.9545,  999.0000,  999.0000,   53.5337,   54.7401,   55.2443,   55.8667,   56.0912,   56.4318,   57.1748,   56.2764,   57.7437,
  3-NOV-1996 18:52:51.02,    0.3310,    0.1986,    0.1785,  999.0000,   -0.5028,   -0.1814,  999.0000,  999.0000,  999.0000,  999.0000,  999.0000,  999.0000,  999.0000,   21.9960,   23.2489,   24.2985,   24.7868,   25.0987,  999.0000,   28.1807,   28.3857,   28.8415,   29.6953,   31.1035,   32.1882,   31.1695,   31.8114,   32.3560,   31.8823,   32.0189,   32.7917,   34.3720,   35.0713,  999.0000,  999.0000,  999.0000,  999.0000,   40.9969,   43.3456,   44.9785,   44.6820,   45.6322,   44.4212,   45.8821,   47.9328,  999.0000,  999.0000,  999.0000,   59.0161,   59.1130,   57.7212,   58.2490,   57.0137,   55.8918,   54.7497,   53.8393,   52.9080,  999.0000,  999.0000,  999.0000,  999.0000,  999.0000,  999.0000,  999.0000,  999.0000,
  3-NOV-1996 18:57:30.14,    0.9519,    0.5825,    0.6864,    1.5494,    1.9647,    2.5402,    3.5600,  999.0000,    9.0842,   10.3584,   10.9464,  999.0000,  999.0000,   22.9264,   23.7920,   24.3595,   25.5184,   26.3021,   26.8960,   27.3152,   27.7261,   28.3664,   29.2983,   31.0807,   31.4548,   31.8586,   31.5695,   32.1730,   31.2453,   31.9837,   32.6425,   33.8929,   34.2576,   34.5165,   36.1522,   36.0662,   37.6093,  999.0000,   42.8471,   44.2626,   44.9912,   45.6485,   44.7679,   45.7788,   48.6021,   53.5592,   57.4553,   58.5578,   58.5413,   57.4872,   57.7686,   58.1449,   59.1916,   59.9805,   58.4464,   58.8450,   58.0137,   56.8711,   55.7614,   55.0263,   55.7211,   57.0155,  999.0000,  999.0000,  999.0000,
  3-NOV-1996 19:02:07.07,    1.2326,    0.8432,    0.7973,    1.7031,    1.9337,    2.5347,    3.6273,  999.0000,    9.7442,   10.0500,   10.6870,  999.0000,  999.0000,   22.4652,   23.3408,   24.0616,   25.3301,   26.0248,   26.2342,   27.1526,   27.9265,   28.8130,   29.8688,   31.5069,   31.2645,   31.7396,   31.5329,   31.8008,   31.9563,   32.6151,   31.8740,   33.2749,   34.0201,  999.0000,   35.8149,   36.3824,   37.9879,   41.4892,   43.6905,   44.7181,   45.1784,   45.9928,   45.8629,   45.7534,   48.8255,   53.1545,   55.4549,   55.6046,   56.7747,   55.7843,   56.2236,   57.7136,   60.1110,   60.8668,   60.2927,   60.1746,   57.9437,   57.1312,   57.7101,   58.4890,   57.3538,   56.9741,   56.9365,   57.1130,  999.0000,
  3-NOV-1996 19:06:43.08,    1.1064,    0.6832,    1.1040,    1.1911,    1.5878,    1.8227,    2.2811,  999.0000,    9.7817,   10.6903,  999.0000,  999.0000,  999.0000,   22.8589,   23.4411,   24.2373,   24.5606,   25.0285,   25.9615,  999.0000,   28.4911,   28.4608,   28.8714,   31.5704,   31.6169,   32.2909,   32.0583,   31.9872,   31.6292,   32.6516,   32.2159,   33.7120,   34.3757,   34.1055,  999.0000,  999.0000,  999.0000,   42.5177,   44.0839,   44.3436,   45.0707,   45.9742,   44.7867,   46.1901,   48.5293,   51.2813,   53.5175,   54.5029,   55.4254,   55.7467,   56.3908,   56.5620,   57.4363,   57.9828,   58.2795,   59.4047,  999.0000,  999.0000,   60.1753,   57.8541,   57.2007,   58.1227,   58.6498,   58.4571,   59.8020,
  3-NOV-1996 19:11:16.80,    0.8464,    0.1416,    0.6559,    0.9483,  999.0000,   -1.1070,   -0.4922,  999.0000,    9.4282,   10.3395,  999.0000,  999.0000,  999.0000,   22.6765,   23.3876,   23.7584,   23.9901,   24.9836,   25.8487,  999.0000,   28.4411,   28.8164,   29.3097,   30.7319,   31.5843,   30.5196,   30.2220,   32.0461,   31.2363,   31.7924,   32.7079,   33.6182,   34.1662,   34.1975,  999.0000,  999.0000,  999.0000,  999.0000,   44.2199,   43.9055,   44.8464,   45.3475,   43.9636,   45.3003,   46.6647,   49.1617,   50.7843,   52.0265,   54.8407,   56.8306,   57.5426,   56.7204,  999.0000,   56.4881,   58.3927,   60.5590,  999.0000,   61.3422,   60.1367,   60.1707,   59.3186,   59.3144,  999.0000,   57.8046,   59.1043,
  3-NOV-1996 19:15:50.63,    0.1580,    0.2672,    0.8285,    1.0772,    1.2733,    1.3164,    2.6434,  999.0000,    9.2879,   10.0678,   11.7139,  999.0000,  999.0000,   22.8434,   22.9849,   23.3438,   24.6512,   26.2770,   26.5475,   27.4550,   27.9926,   28.6794,   29.0999,   30.2873,   30.3973,   30.1466,   29.8583,   31.3627,   30.4426,   31.4663,   32.6496,   34.3376,   34.7522,   37.6515,  999.0000,  999.0000,  999.0000,  999.0000,   43.4880,   43.5305,   44.7152,   45.5198,   44.4387,   45.9953,   46.8210,   48.4796,   49.5470,   49.7738,   52.5370,   56.8425,   58.7558,   58.5883,   60.6765,   62.4183,   61.4385,   61.2689,   61.2938,   59.8215,   58.7212,   59.2474,   60.2175,   59.6874,   58.5812,   58.9981,   60.3063,
  3-NOV-1996 19:20:26.88,    0.0112,   -0.3468,    0.2045,    0.4344,    0.7086,    1.2343,    2.6681,  999.0000,    8.6021,    9.6349,  999.0000,  999.0000,  999.0000,   21.9639,   22.2201,  999.0000,   24.9301,   25.0370,   25.3279,   26.9446,   28.1704,   28.9100,   29.6220,   29.9383,   29.7932,   28.0748,   29.8508,   31.2476,   31.0196,   31.4133,   33.0700,   34.3029,   35.8910,   37.5370,  999.0000,   37.9526,   39.0662,   41.7757,   43.5149,   44.3281,   43.7618,   45.2419,  999.0000,   45.8486,   46.1726,   47.6321,   48.4079,   49.0009,   51.1411,   55.8921,   58.4850,   60.2609,   64.3370,   63.0425,   61.9303,   59.2777,   59.1353,   58.4864,   57.8743,   58.3931,   59.5126,   60.1690,   62.9767,   64.6377,  999.0000,
  3-NOV-1996 19:25:02.82,    0.3728,    0.3092,   -0.0582,    0.7243,    1.4810,    1.2279,  999.0000,  999.0000,  999.0000,  999.0000,  999.0000,  999.0000,  999.0000,  999.0000,  999.0000,   24.5569,   24.7814,   24.6786,   24.8629,   25.9461,   27.7533,   28.0270,  999.0000,   29.6739,   29.7068,   28.5187,   28.9936,   30.7848,   30.6831,   30.3778,   31.9704,   33.4876,   34.3515,  999.0000,  999.0000,  999.0000,  999.0000,  999.0000,   43.3498,   45.0330,   44.7984,   45.7493,   44.3621,   45.0393,   45.6475,   46.7941,  999.0000,   49.6370,   53.6516,   58.1234,   60.1251,   61.0100,   63.0727,   62.9844,   61.8690,   60.4724,   59.4779,   58.3925,  999.0000,   57.1635,   57.8725,   59.4992,   61.3231,  999.0000,   63.1704,
  3-NOV-1996 19:29:41.10,    0.5264,    0.6536,    1.0065,    1.1070,    1.8278,    1.7767,  999.0000,  999.0000,    9.9982,   10.6575,  999.0000,  999.0000,   21.7027,   23.7751,   23.8202,   24.0959,   24.6553,   24.7359,   25.3501,   26.7868,   28.3911,   29.1103,   29.6137,   29.2062,   28.5739,   28.1535,   29.8153,   30.7025,   30.1841,   30.1798,   31.7577,   33.1536,   34.0366,  999.0000,  999.0000,  999.0000,  999.0000,   41.5004,   43.1543,   43.8822,   43.9461,   44.8997,   44.0549,   43.8902,   45.7245,   46.1738,   47.2979,   48.1345,   52.1648,   56.3086,   57.7508,   59.7035,  999.0000,  999.0000,   61.4441,   59.2753,   58.5201,   57.7700,   58.1478,   59.2487,   58.9366,   60.3913,   61.3541,   62.8712,   62.4350,
  3-NOV-1996 19:34:17.42,    0.5711,    0.7085,    0.8006,    0.4208,    1.1158,    0.8280,    3.1240,  999.0000,    9.1994,   10.0359,   12.4752,  999.0000,  999.0000,   23.6276,   24.0408,   24.1428,   24.4051,   24.9162,   25.6080,   27.1800,   27.5630,   27.3610,   27.8642,   28.7150,   28.4364,   28.6851,   30.2585,   31.2588,   29.7417,   30.2785,   32.6915,   34.6250,   34.8767,   36.8895,  999.0000,  999.0000,  999.0000,   41.5960,   43.1100,   44.3397,   43.7739,   43.8029,   44.8009,   44.3878,   44.2062,   45.3313,   45.0058,   47.4101,   51.1433,   55.6096,   57.2828,   58.8825,   62.9412,   61.5405,   59.5998,   58.6557,   58.1675,   58.6636,   58.7000,   60.0367,   60.0365,   60.3198,   60.9511,   62.6707,   63.0587,
  3-NOV-1996 19:38:53.20,    0.3967,  999.0000,  999.0000,  999.0000,  999.0000,  999.0000,  999.0000,  999.0000,   10.0135,   10.5962,   12.6395,  999.0000,  999.0000,   22.8779,   23.3644,   23.8182,   24.4263,   24.6774,   25.7213,   27.7520,   28.3000,   28.2852,   27.9754,   28.4839,    2.3623,    4.5606,    4.8702,    6.2316,   30.5373,   29.9131,   31.7535,   33.6543,   34.5618,   36.3942,  999.0000,  999.0000,   39.4069,   41.0683,   42.3973,   43.9142,   43.8620,   44.3320,   45.4067,   43.9325,   43.0770,   43.8009,   45.9650,  999.0000,   52.1386,  999.0000,   58.0932,   59.3030,   62.3351,   60.9319,   58.8089,   57.9407,   58.6417,   59.0514,   57.8606,   59.1235,   59.1425,   59.4606,   60.7746,  999.0000,   62.1320,
  3-NOV-1996 19:43:29.27,   -2.5611,   -3.9276,   -6.3901,  999.0000,   -4.5084,   -4.2405,  999.0000,  999.0000,    9.9156,   10.3037,   12.7946,   15.1242,   18.6069,   21.7325,   23.3040,   23.5356,   24.4756,   25.0495,   26.1875,   27.8117,   28.6330,   28.7366,   27.8143,   29.0131,   25.7186,   24.8496,   29.0289,   24.3087,   28.8033,   29.9536,   31.4718,   32.5065,   34.4637,   36.1821,   37.2525,   38.4373,  999.0000,  999.0000,   42.0264,   43.3060,   43.8910,  999.0000,  999.0000,   42.5989,   42.0746,   43.6370,   45.8749,   48.4870,   51.8613,   55.4546,   59.3353,   62.0437,   63.1013,  999.0000,  999.0000,   58.3428,   59.7013,   60.2741,   59.9344,   60.9338,   62.2598,   63.0494,   64.9880,  999.0000,   64.4542,
  3-NOV-1996 19:48:03.67,   -3.5881,  999.0000,  -10.3456,   -9.8888,  999.0000,  999.0000,  999.0000,  999.0000,    9.9544,   10.7655,   12.6034,   15.4298,   18.4550,   21.8496,   23.2442,   23.4457,   23.7918,   24.2304,  999.0000,   26.5102,   27.2494,   27.1559,   28.4940,   29.8272,   30.6438,   30.5886,   26.9936,   29.2779,   28.8621,   30.1255,   31.2226,   33.4115,   34.4762,   36.0837,   37.5266,  999.0000,  999.0000,   41.5904,   42.0571,   43.3296,   44.2858,   45.3426,   45.1693,   43.1109,   44.3679,   44.1816,   45.9283,   47.4263,   51.3233,   56.0211,   58.3190,   59.3766,   61.9704,   61.6905,   60.4189,   60.5053,   60.1864,   58.4381,   57.8109,   58.2177,   59.7398,   60.9602,   59.9976,   60.3766,  999.0000,
  3-NOV-1996 19:52:39.84,    0.3908,    0.1476,  999.0000,   -0.6931,   -0.1739,    0.5706,    3.6323,  999.0000,    8.8232,   10.4979,   13.1819,   15.5498,   17.7470,   20.9077,   22.4601,   23.2676,   23.7843,   24.4512,   24.8101,   25.4909,   26.9900,   27.8257,   28.5082,   29.9251,   29.6440,   29.7420,   29.4252,   28.1826,   29.0559,   30.1741,   31.5995,   33.7099,   35.1877,   35.7950,   37.1114,  999.0000,  999.0000,   41.2505,   42.7636,   44.3242,   43.3730,   45.7866,   44.6819,   44.0548,  999.0000,   45.4053,   47.9839,   49.4167,   52.7569,   56.6051,   59.2620,   61.2313,   63.7858,   61.2634,   60.3834,   61.4472,   61.5264,   60.9360,   60.9661,   59.8235,   60.4150,   61.6523,   61.0236,   62.7598,  999.0000,
  3-NOV-1996 19:57:13.98,  999.0000,  999.0000,  999.0000,  999.0000,  999.0000,  999.0000,  999.0000,    7.9099,    9.3413,   10.4276,   12.6407,   15.3534,  999.0000,  999.0000,   21.9823,   22.8127,   23.8282,   24.5279,   25.3888,   26.3481,   27.3567,   27.9090,   28.0977,   29.1588,   29.1198,   28.6744,   28.5594,   28.7696,   28.7937,   29.8583,   30.7896,   32.8509,   33.6142,   34.0644,   36.7004,   37.7873,   38.4441,   41.2321,   42.4238,   43.5979,   43.5176,   44.6900,   45.8781,   43.9170,   43.0141,   44.8124,   47.3152,   48.1913,   51.6065,   55.7486,   58.5029,   60.7565,   63.3416,   61.1183,   59.8429,   59.7433,   59.9407,   59.1934,   58.9808,   59.3611,   59.3752,   59.8376,   59.5366,   59.6872,   58.6778,
  3-NOV-1996 20:01:48.55,  999.0000,  999.0000,  999.0000,  999.0000,  999.0000,  999.0000,  999.0000,  999.0000,    8.1858,    9.9555,   12.8542,   15.3737,   16.7227,   18.8765,   20.8204,   22.1003,   23.3107,   23.5221,   24.2215,   25.9602,   26.6273,   27.7834,   28.5390,   29.2351,   30.0183,   27.6441,   27.0687,   27.4390,   28.4782,   29.6751,   30.7336,   33.0973,   33.9770,   34.8382,   36.8650,   38.7628,   38.9507,   40.9859,   41.7189,   44.2084,   43.3293,   44.2384,   44.6099,   43.5473,   43.1891,   44.4255,   46.8780,   47.8786,   50.7344,   54.8645,   58.2229,   60.8311,   63.4331,   63.2817,  999.0000,  999.0000,   60.9411,   59.3180,   58.9183,   58.8605,   59.5548,   59.9910,   58.4755,   59.4527,   59.7041,
  3-NOV-1996 20:06:22.80,  999.0000,  999.0000,  999.0000,  -12.4825,  -13.0310,  999.0000,  999.0000,  999.0000,    8.9662,   11.1097,   13.9155,   15.2403,   17.0032,   19.3771,   21.2209,   22.4596,   23.0530,   23.4429,   25.0349,   26.5378,   27.8840,   28.8982,   28.7831,  999.0000,  999.0000,   27.2357,   28.3675,   28.1515,   28.4600,   29.9420,   31.1491,   33.5223,   34.6198,   35.5276,   38.0740,  999.0000,  999.0000,   40.7623,   42.0973,   43.6013,   44.0484,   43.5171,   44.9862,   44.8935,   42.9365,   44.1931,   45.8154,   48.4177,   51.4697,   55.4925,   58.6595,   60.9532,   61.9527,   61.3829,   62.5663,  999.0000,  999.0000,   57.7051,   56.6325,   56.9712,  999.0000,  999.0000,  999.0000,  999.0000,  999.0000,
  3-NOV-1996 20:10:56.56,   -0.5517,   -2.0440,  999.0000,  -11.6957,  -12.2348,  999.0000,  999.0000,  999.0000,    9.9505,   11.5996,   14.2806,   15.9873,   17.5463,   19.1254,   21.1666,   23.0047,   23.6719,   24.1402,   24.9403,  999.0000,   27.1807,   27.6271,   28.2062,   28.1940,  999.0000,  999.0000,  999.0000,  999.0000,  999.0000,  999.0000,  999.0000,   32.9793,   33.9165,   34.7934,   37.2830,  999.0000,  999.0000,  999.0000,   39.7298,   41.7761,   42.9900,   43.8626,   44.5565,   43.7165,   42.4278,   43.1217,   45.5372,   47.4621,   50.5442,   54.8727,   57.8621,   61.6340,   63.3263,   62.5512,   60.8478,   59.7441,   58.7466,   58.3885,   58.1399,   59.0231,   59.2171,   58.7788,   59.0354,   59.4352,   62.0069,
  3-NOV-1996 20:15:30.36,  999.0000,  999.0000,  999.0000,  999.0000,   -6.7348,   -5.2726,  999.0000,    7.8587,    9.7748,  999.0000,  999.0000,  999.0000,   16.9711,   18.2635,   20.0910,   22.1657,   23.3690,   24.1263,   24.5125,   25.8039,   27.5286,   27.4961,   27.3343,   28.7692,   28.4799,   27.4218,   27.4053,   27.3132,   28.4673,   28.9249,   30.2254,   33.4750,   34.2491,   35.0846,   36.9920,   38.6258,   37.9193,   38.8862,   41.1460,   41.2832,   42.2511,   42.9748,   44.6199,   43.6933,   42.5613,   43.0296,   45.5543,   47.1458,   49.7062,   54.2709,  999.0000,   60.9176,   60.6666,   60.0841,   58.2050,   57.5841,   57.0407,   57.0338,   57.5134,   58.2937,   58.1326,  999.0000,   60.5859,   61.2823,   62.4060,
  3-NOV-1996 20:20:04.46,  999.0000,  999.0000,  999.0000,   -8.6824,   -9.9397,  999.0000,  999.0000,  999.0000,    9.0976,   11.0434,   12.1949,   14.2026,   15.9723,   17.0228,   19.2229,   21.1497,   22.2033,   22.9415,   23.9034,   24.8954,   25.8405,   26.9257,   27.8598,   27.4436,   27.5291,   27.9867,  999.0000,   27.4219,   27.1323,   29.1999,   31.3740,   33.6661,   33.8511,   35.1090,   37.0490,   38.7491,   38.1703,   38.3243,   40.3911,   40.1905,   41.6433,   43.0266,   43.8725,   43.3542,   43.0405,   42.5546,   45.3958,   47.4254,   51.2304,   56.1735,   59.8585,   61.5503,   62.1168,   60.8029,   58.4835,   58.0722,   57.6028,   57.0960,   57.3329,   57.7479,   59.5868,   59.9130,   60.4085,   60.8928,   60.6689,
  3-NOV-1996 20:24:38.43,  999.0000,  999.0000,  999.0000,   -8.5891,   -9.7597,  999.0000,  999.0000,  999.0000,  999.0000,  999.0000,   12.2579,   14.0927,   16.0603,   16.6429,   18.3265,   19.9511,   21.1852,   22.3060,   23.6555,   25.0552,   26.3384,   25.9907,  999.0000,   27.2454,   27.7697,   26.8515,   26.6580,   27.6179,   26.7838,   28.6435,   30.9769,   33.0561,   34.5767,   36.0941,   37.2522,   38.7967,  999.0000,  999.0000,   39.8023,   39.4245,   41.6392,   43.1754,   44.0061,   43.8096,   42.0094,   42.5014,   45.5845,   47.3431,  999.0000,   55.5106,   60.1651,   62.6491,   62.5635,   60.2330,   59.3565,   58.5508,   57.8134,   57.8573,   57.0723,   56.6457,   58.4431,   59.9420,   59.8174,   61.7973,   62.2335,
  3-NOV-1996 20:29:12.49,    0.9208,    0.3503,  999.0000,   -7.1246,   -8.6194,   -7.7601,  999.0000,    6.6931,    8.4853,  999.0000,  999.0000,   14.5249,   15.6541,   17.3174,   18.7971,   20.0241,   21.1116,   22.4106,   23.5193,   24.4430,   24.5864,   24.5719,   25.4158,   26.7679,   27.8732,   26.3998,   26.5643,   27.5393,   27.1557,   28.9914,   31.9372,   33.2194,   34.7222,   36.8412,   37.4608,  999.0000,  999.0000,  999.0000,   39.6300,   39.9665,   41.7097,   43.1628,   44.3525,   44.7175,   42.6097,   42.8600,   45.5172,   47.8462,   51.0931,   56.1733,  999.0000,   61.9962,   61.8959,   60.5943,   58.8193,   57.5215,   57.5894,   57.8795,   58.6952,   59.7996,   59.8250,   61.1060,   62.2055,  999.0000,   61.9192,
  3-NOV-1996 20:33:48.48,    0.9454,  999.0000,  999.0000,   -8.5880,   -8.3501,   -6.9909,  999.0000,  999.0000,  999.0000,   11.2569,   13.2414,   14.9017,   15.7989,   17.6029,   19.3538,   20.4525,   21.3821,   22.0658,   22.9250,   23.3428,   23.6158,   24.4371,   25.2561,   26.3148,  999.0000,   26.6529,   25.8684,  999.0000,   27.2094,   29.0212,   31.6819,   32.7485,   34.1633,   36.7887,   37.0114,   38.5439,  999.0000,  999.0000,   39.0818,   39.4384,   41.5895,   42.8629,   43.4526,  999.0000,   42.2641,   44.6465,   44.9536,   48.1416,   51.2733,   55.6864,   59.1539,   61.3990,   61.5233,   59.6897,   59.1931,   59.6679,   59.2158,   59.8561,   59.7275,   58.6031,  999.0000,   59.4420,   59.9241,   58.9862,  999.0000,
  3-NOV-1996 20:38:24.86,    2.6633,  999.0000,  999.0000,  999.0000,  999.0000,  999.0000,  999.0000,  999.0000,    9.6401,   11.3571,   13.6033,   14.8065,   15.7751,   18.1318,   20.0701,   20.6239,   21.4164,   21.6407,   22.2285,   23.3121,   23.7335,   24.3050,   25.2655,   26.3469,   27.0339,   28.1215,  999.0000,  999.0000,  999.0000,   29.1694,   32.4491,   34.2500,   34.9332,   36.3461,   36.6116,  999.0000,  999.0000,  999.0000,   39.4095,   39.2302,   40.8346,   42.5349,   43.7158,   44.4213,   41.5675,   41.1521,   43.5240,   47.0094,   50.0752,   54.3024,   57.0786,   59.1023,   59.9770,   61.2352,   58.8133,   58.1027,   58.3594,   59.0045,   59.6063,   58.3977,   58.2073,   59.2627,   59.3642,   58.0151,   57.6199,
  3-NOV-1996 20:42:59.65,    0.0852,    0.2213,  999.0000,  999.0000,  999.0000,  999.0000,  999.0000,  999.0000,   10.0443,   11.1374,  999.0000,   14.4310,   15.7334,  999.0000,   18.7857,   19.8038,   20.7560,   21.0684,   21.7002,  999.0000,   22.9334,   23.7614,   24.6989,   25.7550,   26.8120,   25.8854,   26.2493,   25.6498,   26.4328,   29.3137,   32.0792,   34.1283,   35.1132,   36.0702,   37.4280,   37.9141,  999.0000,   38.4854,   39.6805,   40.2201,   40.3959,   42.2417,   44.2235,   44.8575,   42.4732,   41.9559,   43.0317,  999.0000,  999.0000,   53.8082,   57.4532,   59.5949,   60.7206,   61.5620,   60.8506,   59.4048,   59.4964,   59.0236,   58.7706,   58.8301,   58.1757,   57.5996,   57.4341,   56.4744,   56.4869,
  3-NOV-1996 20:47:34.13,   -0.3895,    0.2751,  999.0000,   -7.3312,  999.0000,  999.0000,  999.0000,    9.2068,   10.8207,   11.3947,   12.2367,   14.0883,   15.8860,   17.2033,   18.5762,   19.0424,   19.2636,   19.9025,   20.1702,   21.6414,   22.5041,   23.3536,   24.5265,   25.9143,  999.0000,   25.5761,   25.5475,   26.0763,  999.0000,   29.2073,   32.5831,   33.9848,   35.0347,   36.7149,  999.0000,  999.0000,  999.0000,   39.4364,   39.8470,   40.1419,   41.1078,   42.6631,   44.9466,   45.0830,  999.0000,  999.0000,   43.5762,   46.0008,   47.8980,   52.2048,   55.8413,   59.2071,   60.8950,   60.9666,  999.0000,   58.3324,   57.7518,   57.2421,   56.5365,   56.0250,   55.9205,   56.0880,   57.2860,   57.2222,   58.4992,
  3-NOV-1996 20:52:11.11,   -2.4249,  999.0000,  999.0000,  999.0000,  999.0000,  999.0000,  999.0000,  999.0000,   10.4691,   11.2376,   12.3486,   14.2782,   15.3380,   16.5202,   18.3071,   17.7256,   18.4845,   19.4498,   20.2109,   21.1056,  999.0000,  999.0000,  999.0000,  999.0000,  999.0000,   25.3107,   25.3890,   26.2375,   26.7693,   28.7143,   32.1852,   34.1899,   35.4485,   37.6382,   37.3147,   36.7469,   38.2768,   38.8209,   39.7720,   39.8305,   40.2764,   41.8414,   43.4219,   44.3674,   41.4672,   40.6169,   42.7424,   45.9179,   49.6195,   54.2520,   58.9523,   60.6342,   62.3433,   61.7156,   59.4830,   59.2789,   57.4624,   56.0911,   55.8647,   56.2281,   56.7301,   57.9187,   59.4930,   60.0968,   61.4564,
  3-NOV-1996 20:56:48.03,    0.2542,    0.9812,  999.0000,  999.0000,  999.0000,  999.0000,  999.0000,  999.0000,   11.1797,   12.3822,   12.9262,   13.5548,   15.2160,   16.3357,   17.5966,  999.0000,   18.6019,   18.7185,   19.4866,   20.9440,   22.5818,  999.0000,   24.5431,   25.1013,   25.1966,   24.3289,   24.5937,   25.3842,   26.8326,   28.7018,   30.9640,   32.9131,   35.9260,   37.6448,  999.0000,  999.0000,   39.1458,   40.1872,   41.0408,   39.9669,   41.4647,   43.2302,   44.0882,   42.5229,   42.1253,   41.7792,   43.4743,   46.6105,   50.7170,   55.9077,   59.2766,   59.7128,   59.8093,   58.9358,   58.2215,   59.4305,   58.4031,  999.0000,   58.4202,   58.5299,   58.0789,   58.0295,   59.2334,   59.3173,   60.5578,
  3-NOV-1996 21:01:22.77,  999.0000,  999.0000,  999.0000,  999.0000,  999.0000,  999.0000,  999.0000,   10.0131,   11.0746,   11.6195,   12.8069,   13.7491,   14.9271,   15.5731,   17.1391,   18.0935,   18.2836,   18.9423,   19.3734,   20.3078,  999.0000,   23.6821,   24.3674,   24.9896,  999.0000,   24.3710,   25.4398,   23.9903,   25.1654,   28.3203,   30.3421,   33.6151,   35.4558,   37.4618,   37.8585,   37.8849,   38.7203,   39.8383,   39.6904,   38.8481,   40.5735,   42.4957,   44.0274,   44.3500,   42.6451,  999.0000,   43.4463,   47.6477,   52.1576,   57.7833,  999.0000,   60.9603,   60.7776,   59.9482,   59.5458,   58.9199,   57.8028,   57.4194,   57.5637,   59.1477,   59.6269,   59.3109,   59.8297,   59.2579,   60.3987,
  3-NOV-1996 21:05:59.98,  999.0000,  999.0000,  999.0000,  999.0000,  999.0000,    3.1257,    6.6677,    9.8475,   10.8848,   11.2527,   11.7887,   12.8914,   14.0086,   15.7653,   17.5016,   17.5292,   17.5466,   18.1102,   18.9949,   19.5810,   22.0115,   23.4428,   23.8831,    0.4462,    0.7481,    4.6760,    4.1378,    4.1561,  999.0000,  999.0000,   31.4644,   32.9732,   34.6209,   36.4162,   37.4167,   37.8683,   39.1590,   39.4957,   39.2080,   38.6548,   39.5432,   41.1559,   43.0732,   43.5316,   42.0774,   42.0653,   44.3210,   48.8278,   52.7584,   56.5771,   57.8968,   60.9215,   59.5409,   58.7582,   58.6165,   58.0461,   56.8494,   58.3436,   57.9432,   59.9296,   59.7601,   60.0703,   60.5737,   59.9548,   60.1648,
  3-NOV-1996 21:10:35.34,   -4.2118,  999.0000,  999.0000,   -7.1911,   -6.0050,  999.0000,  999.0000,    9.2655,   10.8130,   10.8688,   11.7837,   12.9614,   13.9298,   15.6858,   17.4863,   17.4999,   16.9126,   15.6588,  999.0000,  999.0000,   21.6780,   22.6411,   22.9015,   23.0665,   22.8085,   19.6890,   20.9072,   20.9226,  999.0000,   27.3431,   29.6662,   32.4018,   34.0772,   37.0369,   38.2712,   38.1445,   38.6190,   40.0779,   39.2512,   39.1178,   39.6246,   41.1369,   42.8917,   42.8228,   42.0387,   41.5815,   43.8176,   47.2610,   50.7831,   53.7841,  999.0000,  999.0000,   61.1573,   58.8699,   58.4004,   58.2370,   58.9177,   60.3191,   57.2499,   60.7837,  999.0000,  999.0000,  999.0000,   58.6291,   58.7735,
  3-NOV-1996 21:15:10.43,   -2.0973,   -3.7950,  999.0000,  999.0000,  999.0000,  999.0000,    4.6122,    9.1441,   10.6441,   11.0015,   11.6898,   12.5679,   14.1500,   15.4112,  999.0000,   17.1551,   17.3726,   17.3526,  999.0000,  999.0000,   21.6777,   22.5923,   23.1667,   23.1540,   22.3858,   23.0239,   23.9681,   23.7328,  999.0000,  999.0000,   29.7769,   33.0361,   33.8323,   36.8157,   37.8670,   38.2592,   37.4051,   38.9909,   39.7793,   38.7864,   39.0904,   40.5968,   41.9623,   42.3625,   40.7475,   41.6331,   42.5304,   45.4160,   48.2010,   52.0336,   54.6387,   58.5783,  999.0000,   61.1964,   59.1107,   58.6653,   58.3608,   58.1841,   57.5286,   57.9861,   58.1408,   58.9833,   57.6137,  999.0000,   57.9866,
  3-NOV-1996 21:19:44.90,   -2.8920,   -3.4261,  999.0000,   -3.8743,   -2.5260,  999.0000,  999.0000,    9.5783,   10.4589,   11.5072,   12.4849,   13.4551,   15.0368,   16.2423,   16.8610,   16.9541,   16.8361,   16.9439,   18.2243,   20.5685,   22.4808,   22.9398,   22.8618,   22.8333,   23.0357,   24.1834,   24.8006,   24.4587,   26.8772,   29.3961,   32.0400,   34.1484,   35.2860,   37.9345,   38.2787,   39.1852,   37.5230,   38.5599,   39.8016,   38.8384,   38.9336,   41.2816,   43.2658,   43.0558,   41.7167,   41.2980,   42.1273,  999.0000,  999.0000,   53.6794,   56.3111,  999.0000,   60.6173,   61.9675,   58.5835,   59.3167,   59.2221,   58.5279,   58.2223,   57.1685,   57.2246,   58.7547,   57.5764,   58.3750,   58.4021,
  3-NOV-1996 21:24:21.38,   -1.8674,  999.0000,  999.0000,  999.0000,  999.0000,  999.0000,  999.0000,    9.6100,   10.5358,   11.0520,   11.7179,   12.5549,   14.1759,   15.7189,   16.7935,   17.0082,   16.8839,   18.0834,   19.4490,   21.1893,   22.8599,   23.0205,   22.7330,   22.4605,   22.3045,   24.5645,   24.2193,   24.2468,   26.3831,   29.3323,   31.9225,   33.8248,   35.9142,   38.1063,   37.7808,   37.5278,   38.9287,   38.7510,   39.7518,   38.6872,   39.7690,   42.0934,   43.1397,   43.1418,   41.6312,   41.4319,   43.2830,   45.6152,   47.8689,   52.8519,   55.6325,   58.2514,   61.1591,   62.6777,   60.0262,   59.6899,   59.8975,   60.1241,   59.4823,   60.3576,   59.3044,   59.1421,   59.7442,   60.4351,   61.8415,
  3-NOV-1996 21:28:59.14,   -1.3708,   -2.2684,   -3.5146,  999.0000,  999.0000,  999.0000,  999.0000,    9.5148,   10.7246,   11.2871,   12.2502,   13.0974,   14.1960,   15.6319,   16.1209,   16.4763,   16.9348,   18.0315,   19.7502,   21.4750,   22.7185,   23.4347,   23.9364,   22.9542,   22.2082,   24.1798,   24.1788,   24.1494,   26.5258,   27.7767,   32.8333,   34.7363,   37.1703,   38.0036,   38.6024,   38.7693,   39.0066,   39.7559,   40.7401,   39.6765,   40.3180,   42.2741,   43.2818,   42.7527,   41.9124,  999.0000,   44.1668,   47.0888,   49.4849,   54.0870,   57.5522,   59.9462,   60.8435,  999.0000,   60.3561,   58.3266,   58.4938,   57.9453,   57.9747,   58.3597,   59.8978,   59.9208,   60.7950,   60.5546,   61.7590,
  3-NOV-1996 21:33:33.24,   -0.0047,   -0.6397,   -0.8618,   -1.7521,  999.0000,  999.0000,  999.0000,  999.0000,   10.7272,   11.0553,   11.7960,   12.2214,   13.0188,   14.3306,   15.6883,   16.2620,   16.7252,   17.9002,   19.3079,   21.2939,   22.0368,   22.4229,   22.8530,   22.2339,   20.9335,   23.0218,   24.2315,  999.0000,  999.0000,   28.5428,   31.7574,   33.7364,   36.2141,   37.2248,   36.4100,   37.5392,   36.8958,   38.6694,   40.2079,   39.7652,   38.9007,   40.5903,   42.2539,   42.7672,   41.6235,   41.5614,   43.7227,   46.1228,  999.0000,   52.7123,   56.5490,   59.3907,   60.7422,  999.0000,  999.0000,   60.0287,   59.9884,   59.6584,   60.6852,   60.5543,   61.2868,   60.6410,   61.5951,   60.5481,   61.1685,
  3-NOV-1996 21:38:11.04,   -0.1233,  999.0000,  999.0000,  999.0000,  999.0000,  999.0000,  999.0000,    9.2424,   10.8552,   11.2001,   11.7010,   12.2985,   13.3666,   14.6863,   15.9917,   16.4173,   16.5336,   17.1361,   18.3436,   20.2436,   21.6807,   22.2833,   23.1530,   22.1228,   22.1786,   23.6142,   24.0704,  999.0000,   27.7217,   30.1516,   32.1929,   34.7084,   36.7263,   36.9350,   37.5283,   37.7885,   37.3529,   39.2034,   39.9832,   39.6468,   39.6328,   40.2846,   41.5381,   42.6535,   41.6075,   41.1890,   43.5180,   45.6553,   48.1104,   52.4014,   56.7298,   60.5305,   61.5857,   62.2720,   64.2884,   62.7796,   61.6077,   61.9972,   61.5870,   62.3100,   61.8756,  999.0000,   60.1564,  999.0000,  999.0000,
  3-NOV-1996 21:42:46.36,  999.0000,  999.0000,  999.0000,  999.0000,  999.0000,  999.0000,    9.1622,   10.5706,   10.8079,   11.2129,   11.7131,  999.0000,   13.4702,   14.4114,   14.6969,   15.4868,   16.5669,   17.6934,   19.5290,   20.8152,  999.0000,   21.9666,   22.4843,   22.1870,   21.6977,   21.9045,   23.4474,  999.0000,   24.7447,   27.1495,   30.9429,   34.0949,   35.2753,   35.9695,   35.7219,   37.3213,   37.8767,   38.4998,   39.9361,   40.5668,   40.2132,   40.3995,   42.1043,   42.4377,   41.4872,   41.2964,   43.4746,   44.8101,   46.9555,   51.1639,   55.0901,   58.5534,   60.8722,   63.3501,   65.2236,   64.5104,   64.4349,   64.0906,   63.8569,   63.1617,   62.1877,   59.9299,   59.8912,   60.3297,   61.2761,
  3-NOV-1996 21:47:20.99,   -0.2936,  999.0000,  999.0000,  999.0000,  999.0000,  999.0000,  999.0000,    9.4061,   10.3212,   10.6526,   11.0543,   12.3021,   13.5605,   14.4076,   14.7433,   15.9866,   17.2010,   18.2790,   18.9759,   19.9868,   20.4637,   20.5570,   21.5998,   22.0300,   21.0072,   22.1157,   23.2866,   23.5294,   24.1248,   26.9131,   29.5195,   32.7850,   34.5269,   36.2546,   35.6550,   36.8765,   37.0842,   37.4694,   38.2471,   39.3156,   39.7993,   39.7735,   42.0365,   42.2450,   40.0915,   40.4064,   42.8295,   44.0007,  999.0000,  999.0000,  999.0000,   59.7564,   61.6529,   61.1769,   62.9507,   63.1248,   62.5240,   64.8304,   63.5970,   64.9264,   63.7113,  999.0000,   59.7336,   60.8998,  999.0000,
  3-NOV-1996 21:51:57.77,   -0.4305,   -0.6899,   -0.8188,   -0.1191,    2.7805,    5.0610,    5.7988,    8.2316,    9.3282,   10.3631,   11.1979,   11.8406,   12.6949,   14.0217,   15.0639,   15.4319,   15.5227,   17.2469,   18.3214,   19.2388,   20.6208,   20.5062,   20.8845,   21.8090,   20.9561,   21.9805,   14.7728,   14.7965,   15.8416,   27.3761,   29.6843,   32.2648,   34.3681,   36.2187,   35.3711,   36.7123,   37.3105,   38.3750,   38.3591,   39.1955,   40.2775,   39.5944,   40.5221,   41.2834,   39.7236,   40.0615,   42.2693,   43.5819,   45.9976,   50.9007,   55.1533,   59.1448,   60.5396,   59.9108,   61.8569,   63.6247,   64.1436,   64.4535,   63.2430,   62.5509,   62.6454,   60.6782,  999.0000,  999.0000,  999.0000,
  3-NOV-1996 21:57:12.39,   -0.2270,   -0.3486,   -0.7913,   -0.4048,    2.0378,    4.9851,    6.1648,    7.4240,    8.8361,    9.3754,   10.3543,   11.1806,   11.8930,   12.8476,   14.2240,   14.8140,   15.2347,   16.5093,   17.4035,   18.1399,   17.9259,   18.7286,   20.1114,   21.5008,   20.5719,   21.6100,   19.9041,  999.0000,  999.0000,  999.0000,   29.0292,   32.3494,   34.3354,   36.6902,   36.1876,   36.9557,   37.9746,   39.7545,   39.9126,   40.1397,   41.6768,   40.6807,   40.5320,   40.5877,   39.6256,   40.8359,   43.0577,   43.8189,   46.2181,   51.3606,   55.6104,   58.0232,   58.5579,   59.8372,   63.9566,   65.6644,   65.4308,   64.3450,   64.0712,   63.0869,   63.7767,   63.6608,  999.0000,  999.0000,  999.0000,
  3-NOV-1996 22:01:50.39,   -0.1355,   -0.5181,  999.0000,  999.0000,  999.0000,  999.0000,  999.0000,  999.0000,    8.7520,    9.5881,    9.9318,   11.0535,   11.7210,   12.2308,   13.7566,   14.4190,   14.9213,  999.0000,   16.4062,   17.3287,   17.3621,   18.7520,   20.2802,   21.1963,   20.0600,   21.5402,   22.4208,   21.2448,  999.0000,  999.0000,   28.9084,   31.1003,   33.5679,   35.5791,   35.0472,   35.8481,   37.1134,   37.8722,   37.8421,   38.6389,   40.5593,   42.1879,   41.4173,   40.7428,   39.8552,   41.6206,   43.3460,  999.0000,   47.3045,   52.4143,   56.0167,   57.7269,   58.3734,   60.8296,   62.4425,   66.2200,  999.0000,   67.3116,   65.6493,   64.0619,   63.9132,   63.9188,   65.0064,  999.0000,  999.0000,
  3-NOV-1996 22:06:26.56,   -0.5412,   -0.4230,    0.6124,    0.7556,  999.0000,    4.6387,    6.7859,    7.4292,    7.6067,    8.8636,    9.2888,   10.9173,   12.2208,   12.8193,  999.0000,   14.4429,   15.3246,   16.1327,   16.8893,   16.9035,   16.9903,   16.9976,   18.4895,   19.7663,   19.7647,   20.3569,   20.7766,  999.0000,  999.0000,  999.0000,   30.5033,   34.0659,   36.4415,   37.4320,   37.1978,   38.5718,   40.0730,   40.1106,   40.4784,   42.6658,   41.3332,   41.4148,   40.8487,   40.3640,   40.7226,   42.2020,   42.9775,   44.3853,   48.4449,   53.4005,   55.6252,   57.5472,   59.6020,  999.0000,   62.7486,   64.0376,   64.2576,   66.7735,   67.1562,   66.4301,   65.7787,   64.6299,   65.4451,  999.0000,   64.2902,
  3-NOV-1996 22:11:00.99,   -0.8527,   -0.8203,   -1.1832,    0.0316,    2.9304,    3.4862,  999.0000,    7.3741,    8.0282,    8.6767,    9.3457,   11.1485,   12.1974,   13.2667,   13.9361,   14.5286,   14.6038,   16.0243,   15.6013,   16.1614,   17.1454,   17.7137,  999.0000,   20.2508,   20.3799,   21.4706,   22.0381,   22.6396,   25.2773,   28.6935,   31.7981,   33.5569,   35.5504,   35.2367,   35.1524,   35.4399,   36.7480,   36.9446,   36.8500,   37.3096,   37.4113,   39.2246,   40.5483,   40.8209,   40.7289,   42.6819,   42.0451,   41.4724,  999.0000,  999.0000,   55.0078,   55.4119,   56.1828,   58.1965,   60.5684,   60.5494,   62.8720,   65.8639,  999.0000,   65.5490,   64.9449,   65.5186,   64.6236,   62.8638,  999.0000,
  3-NOV-1996 22:15:34.96,   -3.6780,   -2.9264,    0.0152,    1.4396,    4.3213,    5.7545,    6.5409,    7.9331,    8.5234,   10.1516,   10.9595,   12.1634,   12.4130,   13.5685,   14.5485,   14.8450,   15.1839,   15.8448,  999.0000,  999.0000,  999.0000,   18.0597,   18.9519,   20.0608,   20.0818,   21.5813,   22.5230,   23.1013,   26.3341,   28.3841,   31.1119,   32.8650,   35.2451,   34.9556,   33.2533,   34.5478,   35.1711,   36.7439,   37.7705,   37.6634,   37.9871,   38.3906,   39.4284,   41.0685,   41.9022,   43.3496,   43.4260,   44.5929,  999.0000,  999.0000,  999.0000,  999.0000,  999.0000,  999.0000,   61.0458,   61.8622,   62.1362,   66.3346,  999.0000,   67.0968,   65.7631,   65.6515,   65.1492,   64.8301,   63.7135,
  3-NOV-1996 22:20:13.18,   -0.3647,    0.3017,    0.5337,    2.1346,    4.7247,    5.6472,    6.2863,  999.0000,    8.9189,   10.6341,   10.9095,  999.0000,   10.9193,  999.0000,   14.6921,  999.0000,  999.0000,  999.0000,   13.1439,   14.6514,  999.0000,  999.0000,  999.0000,   19.4508,   20.4410,  999.0000,  999.0000,   24.8467,   26.7811,   28.6009,  999.0000,   32.6302,   34.4247,   35.1811,   35.9894,   34.4023,   34.1880,   36.2492,   37.7586,   38.8442,   38.6377,   38.2708,   38.2890,   40.6637,   42.1023,   43.0665,   42.9229,  999.0000,  999.0000,  999.0000,  999.0000,  999.0000,  999.0000,   58.5685,   60.5477,   60.7618,   63.8750,   66.4111,   66.6061,   65.7236,   67.2722,   67.3250,   66.6624,  999.0000,   64.8277,
  3-NOV-1996 22:24:50.46,   -0.6986,  999.0000,  999.0000,  999.0000,  999.0000,  999.0000,  999.0000,  999.0000,  999.0000,   10.9328,   11.5009,   12.4042,   13.6511,   14.0120,   14.1193,  999.0000,  999.0000,  999.0000,   16.2680,   16.4625,   16.5783,   18.3135,   19.8645,   19.7593,   20.7714,   21.8187,   22.2533,   24.6241,  999.0000,   29.2169,  999.0000,   32.7144,   34.6877,   35.1834,   35.8333,   34.4925,   34.4678,  999.0000,   36.1176,   37.2873,   38.6116,   38.4941,   38.9517,   41.5400,   43.2210,   43.4677,   43.3421,   45.5429,   47.6768,   50.8253,   51.3347,   53.3433,   56.9711,   59.2203,   60.3700,   61.4533,   63.5533,   64.2329,   64.7371,   66.7006,   67.0532,   64.9134,   63.7238,  999.0000,  999.0000,
  3-NOV-1996 22:29:28.79,   -0.3751,    0.1667,    0.5768,  999.0000,    4.7221,    5.4370,    6.3238,    8.6521,   10.4664,   10.7552,   10.9698,   12.0947,   13.0276,   13.6915,   14.1561,   15.0909,  999.0000,   15.2026,   15.4524,   16.0004,   17.0462,   19.1434,   20.0081,   19.9965,   20.8431,   21.4448,   23.0196,   24.5465,   27.3696,   30.2881,   32.3568,   32.8598,   34.9698,   34.5744,  999.0000,  999.0000,  999.0000,  999.0000,  999.0000,   35.8584,   37.5242,   38.1686,   37.6313,   39.9099,   41.5412,   42.1938,   41.7944,   44.0565,   45.2853,   46.7958,   48.7249,   51.8082,   55.8553,   59.4737,   63.3407,   65.0638,   64.6045,   63.8794,  999.0000,   64.3014,   63.9248,   64.1999,   62.7871,   62.7698,  999.0000,
  3-NOV-1996 22:34:03.79,   -0.0412,    0.3888,    0.3129,    2.5835,    4.3888,    5.2981,    5.9619,    7.3006,    9.7790,   10.6660,   10.8941,   11.5481,   12.4016,   12.8514,   13.4237,   13.5237,   13.2626,   14.2763,   15.0628,   15.5656,   16.8102,   18.4171,   19.0265,   19.5020,   20.2205,   21.8049,   23.2622,   25.4335,   27.7171,   30.2475,   31.6653,   32.4599,   32.9319,   34.0037,  999.0000,  999.0000,  999.0000,  999.0000,  999.0000,  999.0000,   36.2060,   36.6238,   39.3643,   40.1577,   40.9728,   41.6783,  999.0000,  999.0000,   43.9812,   45.3845,  999.0000,  999.0000,  999.0000,  999.0000,   64.0509,   65.1772,   64.7092,   64.4309,   66.2772,   65.2375,   64.1039,   64.0003,   63.9150,   62.4619,   63.5058,
  3-NOV-1996 22:38:40.15,   -0.3432,    0.4232,  999.0000,  999.0000,  999.0000,  999.0000,  999.0000,    7.3113,    8.5897,    9.7786,   10.4369,   11.4565,   12.2185,   12.8091,   13.3969,   13.5559,   12.7820,   13.8845,   14.7389,  999.0000,   16.7134,   18.1328,   19.0976,   19.4638,   20.1079,   21.1052,   22.4092,   24.8862,   28.1139,   31.2921,   32.5030,   32.8099,   34.6061,  999.0000,  999.0000,  999.0000,   34.7659,   35.0116,  999.0000,  999.0000,   37.0870,   37.6500,   37.9873,   39.2939,   40.2407,   41.6706,   42.0274,   42.7862,   44.1354,   45.6344,   49.5492,   52.9090,   56.2292,   60.9899,   64.6714,   65.4658,   64.9457,  999.0000,   64.8820,   64.8883,  999.0000,   61.9376,   61.3249,   62.3044,  999.0000,
  3-NOV-1996 22:43:19.49,   -0.5164,   -0.3359,    0.5059,  999.0000,    3.8830,    5.3035,  999.0000,    7.2277,    8.6180,    9.6158,    9.9091,   10.6660,   11.7319,   13.0620,   13.8274,   14.2461,   14.2269,   14.6961,   15.0821,   16.0081,   17.1030,   17.3472,   17.3196,   19.3273,   19.8573,   20.7917,   22.7431,   25.8889,   28.4707,   31.2401,   32.1673,   31.9413,   33.4091,   32.9880,   34.5408,  999.0000,  999.0000,  999.0000,  999.0000,   36.2684,   36.8247,   38.0495,   38.3474,   39.1584,   40.0633,   41.9109,   42.1123,   42.2113,   44.3308,   46.2782,   49.0118,   52.5024,   55.4697,   58.7565,   61.7703,   63.4792,   63.7513,   63.8049,   65.3047,   62.9606,   62.7331,   62.3502,  999.0000,   62.8983,   63.3885,
  3-NOV-1996 22:47:55.29,   -0.4202,    0.4109,    2.3878,    3.1938,    3.3958,    5.1538,    6.8767,    8.3918,    9.1887,    9.4624,    9.8821,   11.2477,   12.0609,   12.5173,   13.4401,   13.9811,   13.4211,   13.4087,   14.4183,   14.8784,   16.5548,   17.4116,   17.6231,   18.8798,   19.5587,   21.0183,   22.5220,   25.3860,   28.6203,   31.6181,   32.0526,   31.9941,   31.7551,  999.0000,  999.0000,  999.0000,   33.4605,   34.0132,   35.7108,   35.6979,   35.8757,   37.5317,   38.3059,   38.6625,   39.5817,   41.3068,   41.2862,   41.5211,   44.1012,   46.0325,   48.1031,   51.9160,   55.3022,   59.2009,   61.8795,   63.1422,   62.6151,   63.7897,   65.0636,   63.6322,   64.2463,   65.1735,   64.4683,   61.6039,   60.9591,
  3-NOV-1996 22:52:32.38,   -0.9287,    0.1059,    2.3108,    3.3594,    4.0215,    5.1728,    6.6220,    8.4082,  999.0000,  999.0000,  999.0000,   11.4225,   11.8321,   12.6700,   13.2215,   14.4474,   14.2725,   14.2406,   14.9081,   15.6691,   16.6180,   17.0515,   17.6228,   19.0983,   19.3296,   19.4328,   22.8306,   25.0938,   28.6684,   27.8729,   31.6432,   -6.9823,   -6.3895,  999.0000,  999.0000,  999.0000,  999.0000,  999.0000,  999.0000,  999.0000,   36.5482,   37.3932,   37.9210,   38.6346,   39.3676,   41.5038,   41.1835,  999.0000,   44.4213,   46.4176,   49.0437,   52.2658,   55.6443,   58.9959,   61.9098,   63.7454,  999.0000,  999.0000,   60.4653,   61.5061,   61.9473,  999.0000,  999.0000,   59.6171,   59.1637,
  3-NOV-1996 22:57:07.59,   -0.3658,   -0.4646,    0.9268,    2.2087,    4.2117,    5.2730,    6.9930,    8.3703,   10.0097,   10.5969,    9.7691,    9.9839,    9.9915,   11.5129,   12.1716,   12.5170,   13.7113,   13.8953,   14.6882,   15.5349,  999.0000,  999.0000,  999.0000,  999.0000,  999.0000,  999.0000,   22.9733,   25.2618,   28.3218,   29.8166,   31.6949,   24.0341,   24.7042,  999.0000,  999.0000,  999.0000,  999.0000,   34.3216,   34.4516,   34.5489,   36.1284,   37.3293,   37.7493,   38.4486,   38.8679,   40.9158,   40.7361,  999.0000,   44.1523,   46.5445,   49.3932,   53.2832,   56.8231,   60.4700,  999.0000,   61.9272,   61.8964,   63.4500,   62.7890,   63.8470,   63.9201,   62.9137,  999.0000,  999.0000,   60.8879,
  3-NOV-1996 23:01:43.04,   -0.0311,    0.4158,    1.0203,    3.9983,    5.1484,    5.4036,    5.5000,    6.6626,    9.2458,  999.0000,    7.9308,    6.6362,    7.0247,  999.0000,  999.0000,  999.0000,  999.0000,  999.0000,  999.0000,  999.0000,  999.0000,  999.0000,   16.1492,   18.0502,   18.4090,   21.3297,   22.5359,   24.5975,   27.1062,   30.0285,   31.1868,  999.0000,  999.0000,   31.5271,   32.7054,  999.0000,   34.3221,   34.0690,  999.0000,   34.7049,   34.8641,   36.2689,   37.2547,   37.8508,   38.2635,   40.3227,   39.9205,   39.8256,   42.5400,   45.1059,   47.4230,   50.7706,   54.8299,   58.3475,   59.8671,   63.4343,   62.3520,   63.3379,   63.9479,   64.2197,   63.3509,   62.4643,   62.4297,   60.4247,   59.6669,
  3-NOV-1996 23:06:19.27,   -0.1022,    0.7082,    1.6857,  999.0000,    5.0111,    5.3428,    5.4820,    8.0883,    9.4645,   10.2088,   10.2756,   10.5639,   11.3177,   11.6633,   11.8391,  999.0000,   12.7537,   14.0797,   14.3618,  999.0000,  999.0000,  999.0000,   17.5080,   17.9442,   19.1191,   20.6109,   21.0424,   23.4861,   27.1799,   29.9561,   30.8028,   30.4442,  999.0000,  999.0000,  999.0000,  999.0000,  999.0000,  999.0000,  999.0000,  999.0000,   34.9466,   35.1432,   36.2568,   35.9202,   38.2357,   39.2783,   40.0874,   40.5798,   41.9287,   44.4857,   47.5887,   51.3906,   55.6514,   59.4687,   62.2242,   64.4759,   63.2067,   64.7198,   62.7573,   62.6413,   61.9941,   62.4283,   61.8239,  999.0000,  999.0000,
  3-NOV-1996 23:10:55.11,   -0.1393,    0.3565,    1.3009,    3.4616,    4.5908,    4.3336,    4.6881,    7.0000,    8.4211,    8.7328,    8.6940,    9.3479,   10.0516,   10.7905,   12.9738,  999.0000,  999.0000,   13.9226,   13.9264,   15.2020,   15.2280,   15.2915,   16.2477,   17.5282,   17.8868,   20.3580,   21.6756,   24.4998,   27.5808,   29.7052,   30.6039,   31.7097,   31.2127,   31.6526,   31.7115,   31.8888,   30.8542,   31.2190,   31.4917,   32.7771,   33.8030,   35.3200,   36.4072,   36.7754,   37.5742,   40.3601,   41.4142,   40.6716,   42.1120,   44.9917,  999.0000,  999.0000,  999.0000,   60.2336,   62.6650,   62.5771,   61.8078,   63.0422,   63.5141,   63.6137,   62.7537,   61.0934,   61.2870,   59.5341,  999.0000,
  3-NOV-1996 23:15:30.50,   -0.0786,    0.2717,   -0.2891,   -0.8638,    1.0871,    2.5435,    1.5341,    1.5902,    2.2597,    2.4676,    1.4080,    2.0464,    2.8998,    4.5464,  999.0000,    2.8016,    3.4066,  999.0000,  999.0000,  999.0000,  999.0000,  999.0000,  999.0000,  999.0000,  999.0000,   20.2003,   22.0667,  999.0000,  999.0000,   29.7053,   30.5043,   31.6727,  999.0000,  999.0000,   31.5796,   31.2300,   30.6879,  999.0000,  999.0000,  999.0000,   33.7861,   35.3046,   35.7275,   36.0893,   37.0464,   39.7271,   40.9785,   40.7233,   42.3420,   44.9589,   48.3490,   52.4655,   57.5883,   60.2292,   61.7876,   61.6778,   62.1562,   61.3882,   61.3614,   61.9151,   62.2615,   60.3953,   59.7576,   60.4505,   61.8003,
  3-NOV-1996 23:20:06.80,    0.2319,    0.8629,    0.6042,  999.0000,  999.0000,  999.0000,  999.0000,    7.2194,    8.7888,    9.7565,  999.0000,   10.6487,   11.3798,   12.6136,   12.7604,   12.5478,   13.7126,   13.9935,   13.8962,   14.6263,  999.0000,  999.0000,  999.0000,   17.5361,   17.9932,   20.0352,   22.0699,   24.9401,   27.6577,   29.4580,   30.6790,   30.6941,   29.8870,   31.3515,   31.5105,   30.3421,   30.5897,  999.0000,  999.0000,   34.3102,   34.3723,   35.7894,   36.3391,   36.0961,   37.3888,   38.5879,   40.5964,   40.5016,   41.8671,   44.5354,   47.8947,   52.2712,   55.9056,  999.0000,  999.0000,   61.6408,   61.7745,   61.1211,   61.4833,   61.5631,   61.9891,   61.0145,  999.0000,   60.1953,   59.5596,
  3-NOV-1996 23:24:41.13,   -0.4186,   -0.4120,  999.0000,    0.9927,    2.4004,  999.0000,    5.2985,    6.4244,    8.8096,   10.5146,   10.6063,   11.0218,   11.9689,   12.8374,   13.0151,   12.9103,   13.1732,   13.0499,   13.1092,   14.4761,   15.0757,   14.7332,   15.5930,   17.3467,   18.9532,   20.1749,   22.7215,   25.1274,   28.2020,   29.7984,   30.0199,   29.7367,   30.7526,   30.3590,   29.8811,   29.5572,   30.0953,  999.0000,  999.0000,  999.0000,   34.4364,   35.4796,   35.4039,   35.9959,   37.4810,   38.1123,   40.3796,   40.6232,   41.3875,   43.4279,  999.0000,  999.0000,  999.0000,   57.7842,   60.9908,   63.0513,   62.5586,   61.9335,   60.5021,   59.2931,   60.4411,   59.5249,  999.0000,   58.0414,   58.4401,
  3-NOV-1996 23:29:17.76,   -0.2092,   -0.1469,    0.1620,    0.8050,  999.0000,    4.8394,    5.5333,    6.6944,  999.0000,  999.0000,  999.0000,  999.0000,   11.4450,   11.9510,   12.4877,   13.3298,   13.1971,   13.0835,   13.1283,   14.1451,   14.4852,   14.3639,   15.3320,   16.8239,   18.6053,   20.4784,   23.3226,   25.5887,   28.5148,   29.5996,   29.7335,   30.1201,   30.2917,   29.8288,   29.5770,   31.2172,  999.0000,  999.0000,  999.0000,   34.2847,   34.5847,   35.0518,   35.0984,   35.7383,   36.7234,   38.1944,   40.2585,   41.3320,   42.0962,   44.5280,   48.4398,   52.3377,   55.2658,  999.0000,   59.9380,   60.6666,   61.2111,   61.6023,   60.9444,   60.7862,   62.2295,   60.9747,   59.1020,   58.4130,   58.6218,
  3-NOV-1996 23:33:53.79,    0.6021,    0.7869,    0.8877,  999.0000,  999.0000,  999.0000,  999.0000,    7.0365,    8.0991,    8.2225,    7.8105,    9.0384,  999.0000,   11.7478,   12.4254,   12.8938,   13.1356,   12.8266,   13.0084,   13.8893,   14.5108,   14.5920,  999.0000,   16.6676,   18.0501,  999.0000,   22.7592,   25.2926,   28.4018,   29.5673,   30.3002,   30.2997,   30.0868,   29.7978,   30.2252,  999.0000,  999.0000,  999.0000,   31.8241,   33.7863,   34.5123,   34.7181,   35.1836,   36.1190,   36.4612,   38.4814,   40.4480,   41.4399,   42.3707,   45.5231,   49.1220,   52.8609,   56.1093,   58.7826,   61.6035,   61.9512,   59.9099,   60.1623,   60.4855,   61.7571,   61.2375,   59.8974,   58.5384,   57.9492,  999.0000,
  3-NOV-1996 23:38:29.91,   -0.8658,   -1.0667,    1.2783,    2.5862,    2.3458,    4.3543,    5.3132,    6.1772,    7.6296,    8.2240,    7.8836,    9.6051,   11.4908,   12.1170,   12.4820,   12.2203,   13.7310,   13.5793,   13.2181,   13.8053,   14.1080,   13.9347,   14.2387,   15.7342,   17.1822,   19.6837,   22.5156,   25.1287,   27.7615,   29.1025,   29.6733,   30.4096,   29.8843,  999.0000,  999.0000,  999.0000,  999.0000,   31.2385,   32.2246,   33.5916,   34.4773,   34.9063,   35.0377,   35.7245,   36.4133,   38.8127,   40.9495,   41.3840,   43.9370,   45.0146,   49.0720,   52.8208,   55.6429,   57.8024,   61.4168,   62.6342,   63.1042,   62.0180,   61.1796,   61.1969,   59.6267,   59.3455,  999.0000,   58.8456,   58.8564,
  3-NOV-1996 23:43:07.08,    0.5158,    0.2179,    0.4480,  999.0000,    0.9288,    2.7802,    4.9787,    7.2150,    8.2542,    8.6365,    8.4222,    9.3923,   11.5462,   12.0218,   11.2386,   11.1173,   11.9285,   13.1076,   13.1095,  999.0000,   13.6281,   13.6219,   14.8810,   16.0829,   16.7549,   19.9050,   22.1175,   25.0550,   26.4207,   28.6019,   29.3421,   29.7821,   29.2663,   30.6574,   30.1926,  999.0000,  999.0000,   32.6219,   34.3326,   35.4090,   36.0297,   36.5885,   36.6830,   36.9866,   37.4075,   37.9437,   39.7857,   41.1895,   42.4521,   45.0083,   48.3371,   52.3422,   55.5115,   57.9445,   60.5592,   60.4289,   60.2991,  999.0000,   60.8193,   59.7867,   59.4720,   60.7891,   60.3444,  999.0000,   59.0677,
  3-NOV-1996 23:47:41.55,    0.2439,   -0.4406,    1.4694,    1.8871,    2.5877,  999.0000,  999.0000,    7.5987,    8.8755,    9.2514,  999.0000,    9.9668,   11.7701,   12.7820,   13.3887,   12.5299,   12.7652,   13.5609,   13.3631,   13.6463,   14.1445,   14.2115,   14.8732,  999.0000,   17.0195,   18.8896,   20.8495,   23.6880,   26.4189,   28.1256,   28.8402,   29.0067,   29.1646,  999.0000,   30.3391,   30.2126,   31.8553,   33.5549,   34.5727,   34.7190,   35.9053,  999.0000,   38.6623,   39.8154,   38.9878,   37.8060,   37.9021,   40.2810,   42.5985,   44.4816,   48.2663,   51.5667,   54.0383,   56.6200,   60.2753,   59.8864,   60.7722,   59.9113,   60.1872,   60.1628,  999.0000,  999.0000,  999.0000,   57.0712,   58.5316,
  3-NOV-1996 23:52:18.31,   -0.3638,   -0.0539,  999.0000,    2.4012,    3.4482,    4.8662,    5.3675,    7.6754,    8.8130,    9.0971,    9.4480,   10.4645,   12.1375,   13.1113,   13.5816,   13.8479,   13.9699,  999.0000,   13.2125,   12.7862,   13.6906,   14.3355,   14.8635,   15.3796,   16.9454,   19.1051,   20.6055,   22.9393,   25.8697,   27.9501,   28.4093,   28.0673,   29.2853,   29.2543,   29.7797,   30.6417,   32.5579,   33.2651,   33.8471,   35.2962,   37.3118,   37.6260,   37.8410,   37.4673,   37.0952,   35.3206,   36.7111,   39.3691,   42.1979,   45.0836,   47.8984,   49.2911,   51.5545,   54.6038,   56.9290,   58.5661,   60.7407,   60.9378,   61.0659,  999.0000,   57.9774,   56.6372,  999.0000,   57.3023,   58.4085,
  3-NOV-1996 23:56:52.55,    0.2963,    0.6897,    1.8641,    2.3215,    3.0277,    4.0951,    4.7477,    7.6862,    9.1349,    8.3319,    9.1904,   10.4770,   12.6724,   13.5664,   13.5067,  999.0000,  999.0000,   13.9163,   13.2481,   13.1751,   13.9594,   13.6622,  999.0000,   15.1158,   16.9814,   19.3398,   20.7833,   22.5028,   25.3848,   28.2236,   28.7510,   28.5054,   29.4745,   30.0058,   30.1716,   30.6717,   33.1503,   34.5269,   34.6460,   36.0615,   37.5803,   37.9867,   37.6981,   38.7030,   37.6559,  999.0000,   37.1891,   39.1494,   41.0915,   43.6755,  999.0000,  999.0000,  999.0000,  999.0000,   56.6031,   59.4520,   60.3880,   60.9638,   60.9060,   58.3278,   56.1189,   55.1907,   56.3407,  999.0000,   58.2473,
